<?xml version="1.0" encoding="UTF-8" standalone="no" ?>
<gpx xmlns="http://www.topografix.com/GPX/1/1" xmlns:xsi="http://www.w3.org/2001/XMLSchema-instance" xsi:schemaLocation="http://www.topografix.com/GPX/1/1 http://www.topografix.com/GPX/1/1/gpx.xsd" version="1.1" creator="VisuGPX - https://www.visugpx.com">
  <metadata>
    <name>Sommet du Prorel</name>
    <desc><![CDATA[Chantemerle - Col Prorel - Sommet du Prorel]]></desc>
  </metadata>
  <trk>
    <name><![CDATA[Sommet_Prorel_09 FEB 2022]]></name>
    <trkseg>
      <trkpt lat="44.93468" lon="6.58543">
        <ele>1415.61</ele>
        <time>2022-02-09T08:01:05Z</time>
      </trkpt>
      <trkpt lat="44.93463" lon="6.58541">
        <ele>1417</ele>
        <time>2022-02-09T08:01:15Z</time>
      </trkpt>
      <trkpt lat="44.93465" lon="6.58541">
        <ele>1413.81</ele>
        <time>2022-02-09T08:01:25Z</time>
      </trkpt>
      <trkpt lat="44.93464" lon="6.58545">
        <ele>1417.66</ele>
        <time>2022-02-09T08:01:35Z</time>
      </trkpt>
      <trkpt lat="44.93464" lon="6.58544">
        <ele>1414.7</ele>
        <time>2022-02-09T08:02:16Z</time>
      </trkpt>
      <trkpt lat="44.93463" lon="6.58544">
        <ele>1413.85</ele>
        <time>2022-02-09T08:02:27Z</time>
      </trkpt>
      <trkpt lat="44.93462" lon="6.58544">
        <ele>1418.43</ele>
        <time>2022-02-09T08:02:38Z</time>
      </trkpt>
      <trkpt lat="44.93462" lon="6.58543">
        <ele>1417.85</ele>
        <time>2022-02-09T08:02:49Z</time>
      </trkpt>
      <trkpt lat="44.93463" lon="6.58545">
        <ele>1414.4</ele>
        <time>2022-02-09T08:02:59Z</time>
      </trkpt>
      <trkpt lat="44.93463" lon="6.58544">
        <ele>1416.13</ele>
        <time>2022-02-09T08:03:11Z</time>
      </trkpt>
      <trkpt lat="44.93464" lon="6.58545">
        <ele>1416.49</ele>
        <time>2022-02-09T08:03:27Z</time>
      </trkpt>
      <trkpt lat="44.93462" lon="6.58545">
        <ele>1418.08</ele>
        <time>2022-02-09T08:03:37Z</time>
      </trkpt>
      <trkpt lat="44.93462" lon="6.58544">
        <ele>1417</ele>
        <time>2022-02-09T08:03:51Z</time>
      </trkpt>
      <trkpt lat="44.93463" lon="6.58544">
        <ele>1415.87</ele>
        <time>2022-02-09T08:04:08Z</time>
      </trkpt>
      <trkpt lat="44.93464" lon="6.58544">
        <ele>1417.4</ele>
        <time>2022-02-09T08:04:20Z</time>
      </trkpt>
      <trkpt lat="44.93464" lon="6.58545">
        <ele>1418.6</ele>
        <time>2022-02-09T08:04:33Z</time>
      </trkpt>
      <trkpt lat="44.93465" lon="6.58545">
        <ele>1416.6</ele>
        <time>2022-02-09T08:04:45Z</time>
      </trkpt>
      <trkpt lat="44.93466" lon="6.58544">
        <ele>1415.88</ele>
        <time>2022-02-09T08:05:02Z</time>
      </trkpt>
      <trkpt lat="44.93465" lon="6.58544">
        <ele>1414.64</ele>
        <time>2022-02-09T08:05:17Z</time>
      </trkpt>
      <trkpt lat="44.93466" lon="6.58545">
        <ele>1418.52</ele>
        <time>2022-02-09T08:05:27Z</time>
      </trkpt>
      <trkpt lat="44.93464" lon="6.58545">
        <ele>1415.14</ele>
        <time>2022-02-09T08:05:37Z</time>
      </trkpt>
      <trkpt lat="44.93464" lon="6.58544">
        <ele>1414.27</ele>
        <time>2022-02-09T08:06:15Z</time>
      </trkpt>
      <trkpt lat="44.93465" lon="6.58544">
        <ele>1416.35</ele>
        <time>2022-02-09T08:06:35Z</time>
      </trkpt>
      <trkpt lat="44.93466" lon="6.58544">
        <ele>1414.21</ele>
        <time>2022-02-09T08:06:51Z</time>
      </trkpt>
      <trkpt lat="44.93467" lon="6.58544">
        <ele>1417.12</ele>
        <time>2022-02-09T08:07:01Z</time>
      </trkpt>
      <trkpt lat="44.93467" lon="6.58546">
        <ele>1413.74</ele>
        <time>2022-02-09T08:07:11Z</time>
      </trkpt>
      <trkpt lat="44.93465" lon="6.58545">
        <ele>1415.03</ele>
        <time>2022-02-09T08:07:21Z</time>
      </trkpt>
      <trkpt lat="44.93467" lon="6.58544">
        <ele>1414.26</ele>
        <time>2022-02-09T08:07:51Z</time>
      </trkpt>
      <trkpt lat="44.93468" lon="6.58544">
        <ele>1414.65</ele>
        <time>2022-02-09T08:08:04Z</time>
      </trkpt>
      <trkpt lat="44.93468" lon="6.58547">
        <ele>1413.75</ele>
        <time>2022-02-09T08:08:14Z</time>
      </trkpt>
      <trkpt lat="44.93465" lon="6.58544">
        <ele>1413.6</ele>
        <time>2022-02-09T08:08:24Z</time>
      </trkpt>
      <trkpt lat="44.93465" lon="6.58547">
        <ele>1414.79</ele>
        <time>2022-02-09T08:08:34Z</time>
      </trkpt>
      <trkpt lat="44.93464" lon="6.58547">
        <ele>1417.95</ele>
        <time>2022-02-09T08:08:54Z</time>
      </trkpt>
      <trkpt lat="44.93463" lon="6.58548">
        <ele>1415.91</ele>
        <time>2022-02-09T08:09:04Z</time>
      </trkpt>
      <trkpt lat="44.93464" lon="6.58546">
        <ele>1416.25</ele>
        <time>2022-02-09T08:09:14Z</time>
      </trkpt>
      <trkpt lat="44.9346" lon="6.58544">
        <ele>1417.37</ele>
        <time>2022-02-09T08:09:24Z</time>
      </trkpt>
      <trkpt lat="44.9346" lon="6.58542">
        <ele>1415.18</ele>
        <time>2022-02-09T08:09:36Z</time>
      </trkpt>
      <trkpt lat="44.93458" lon="6.58539">
        <ele>1417.41</ele>
        <time>2022-02-09T08:09:46Z</time>
      </trkpt>
      <trkpt lat="44.93457" lon="6.58537">
        <ele>1415.26</ele>
        <time>2022-02-09T08:10:07Z</time>
      </trkpt>
      <trkpt lat="44.93452" lon="6.58535">
        <ele>1418.04</ele>
        <time>2022-02-09T08:10:17Z</time>
      </trkpt>
      <trkpt lat="44.93442" lon="6.5854">
        <ele>1414.07</ele>
        <time>2022-02-09T08:10:27Z</time>
      </trkpt>
      <trkpt lat="44.93436" lon="6.58536">
        <ele>1413.6</ele>
        <time>2022-02-09T08:10:37Z</time>
      </trkpt>
      <trkpt lat="44.9344" lon="6.58547">
        <ele>1413.6</ele>
        <time>2022-02-09T08:10:47Z</time>
      </trkpt>
      <trkpt lat="44.93445" lon="6.58538">
        <ele>1418.4</ele>
        <time>2022-02-09T08:10:57Z</time>
      </trkpt>
      <trkpt lat="44.93449" lon="6.58528">
        <ele>1415.64</ele>
        <time>2022-02-09T08:11:07Z</time>
      </trkpt>
      <trkpt lat="44.93438" lon="6.58511">
        <ele>1415.2</ele>
        <time>2022-02-09T08:11:16Z</time>
      </trkpt>
      <trkpt lat="44.93432" lon="6.58521">
        <ele>1414.18</ele>
        <time>2022-02-09T08:11:25Z</time>
      </trkpt>
      <trkpt lat="44.93425" lon="6.58531">
        <ele>1413.6</ele>
        <time>2022-02-09T08:11:35Z</time>
      </trkpt>
      <trkpt lat="44.93418" lon="6.58542">
        <ele>1413.6</ele>
        <time>2022-02-09T08:11:44Z</time>
      </trkpt>
      <trkpt lat="44.9341" lon="6.58549">
        <ele>1413.6</ele>
        <time>2022-02-09T08:11:54Z</time>
      </trkpt>
      <trkpt lat="44.93405" lon="6.58554">
        <ele>1413.6</ele>
        <time>2022-02-09T08:12:03Z</time>
      </trkpt>
      <trkpt lat="44.93403" lon="6.58557">
        <ele>1413.6</ele>
        <time>2022-02-09T08:12:13Z</time>
      </trkpt>
      <trkpt lat="44.93392" lon="6.58557">
        <ele>1413.6</ele>
        <time>2022-02-09T08:12:23Z</time>
      </trkpt>
      <trkpt lat="44.93384" lon="6.58561">
        <ele>1415.28</ele>
        <time>2022-02-09T08:12:33Z</time>
      </trkpt>
      <trkpt lat="44.93377" lon="6.58568">
        <ele>1418.37</ele>
        <time>2022-02-09T08:12:43Z</time>
      </trkpt>
      <trkpt lat="44.9337" lon="6.58576">
        <ele>1419.62</ele>
        <time>2022-02-09T08:12:52Z</time>
      </trkpt>
      <trkpt lat="44.93363" lon="6.58584">
        <ele>1416.37</ele>
        <time>2022-02-09T08:13:01Z</time>
      </trkpt>
      <trkpt lat="44.93355" lon="6.58591">
        <ele>1417.68</ele>
        <time>2022-02-09T08:13:11Z</time>
      </trkpt>
      <trkpt lat="44.9335" lon="6.58604">
        <ele>1417.8</ele>
        <time>2022-02-09T08:13:20Z</time>
      </trkpt>
      <trkpt lat="44.93343" lon="6.58614">
        <ele>1416.32</ele>
        <time>2022-02-09T08:13:29Z</time>
      </trkpt>
      <trkpt lat="44.93334" lon="6.58624">
        <ele>1417.5</ele>
        <time>2022-02-09T08:13:39Z</time>
      </trkpt>
      <trkpt lat="44.93326" lon="6.58627">
        <ele>1416.44</ele>
        <time>2022-02-09T08:13:48Z</time>
      </trkpt>
      <trkpt lat="44.93316" lon="6.58627">
        <ele>1415.58</ele>
        <time>2022-02-09T08:13:58Z</time>
      </trkpt>
      <trkpt lat="44.9331" lon="6.58632">
        <ele>1413.9</ele>
        <time>2022-02-09T08:14:07Z</time>
      </trkpt>
      <trkpt lat="44.93307" lon="6.58644">
        <ele>1413.82</ele>
        <time>2022-02-09T08:14:16Z</time>
      </trkpt>
      <trkpt lat="44.93304" lon="6.58653">
        <ele>1413.7</ele>
        <time>2022-02-09T08:14:25Z</time>
      </trkpt>
      <trkpt lat="44.933" lon="6.58662">
        <ele>1412.86</ele>
        <time>2022-02-09T08:14:35Z</time>
      </trkpt>
      <trkpt lat="44.93301" lon="6.58671">
        <ele>1412</ele>
        <time>2022-02-09T08:14:45Z</time>
      </trkpt>
      <trkpt lat="44.93307" lon="6.58677">
        <ele>1413.72</ele>
        <time>2022-02-09T08:14:54Z</time>
      </trkpt>
      <trkpt lat="44.93308" lon="6.58685">
        <ele>1413.8</ele>
        <time>2022-02-09T08:15:03Z</time>
      </trkpt>
      <trkpt lat="44.93303" lon="6.58695">
        <ele>1413.8</ele>
        <time>2022-02-09T08:15:12Z</time>
      </trkpt>
      <trkpt lat="44.93295" lon="6.58698">
        <ele>1413.8</ele>
        <time>2022-02-09T08:15:21Z</time>
      </trkpt>
      <trkpt lat="44.93288" lon="6.58702">
        <ele>1413</ele>
        <time>2022-02-09T08:15:30Z</time>
      </trkpt>
      <trkpt lat="44.93279" lon="6.58703">
        <ele>1413.55</ele>
        <time>2022-02-09T08:15:40Z</time>
      </trkpt>
      <trkpt lat="44.93271" lon="6.58707">
        <ele>1413.18</ele>
        <time>2022-02-09T08:15:49Z</time>
      </trkpt>
      <trkpt lat="44.93263" lon="6.58702">
        <ele>1413.16</ele>
        <time>2022-02-09T08:15:59Z</time>
      </trkpt>
      <trkpt lat="44.93254" lon="6.587">
        <ele>1413.2</ele>
        <time>2022-02-09T08:16:08Z</time>
      </trkpt>
      <trkpt lat="44.93246" lon="6.587">
        <ele>1412.94</ele>
        <time>2022-02-09T08:16:18Z</time>
      </trkpt>
      <trkpt lat="44.9324" lon="6.58687">
        <ele>1413.67</ele>
        <time>2022-02-09T08:16:27Z</time>
      </trkpt>
      <trkpt lat="44.93239" lon="6.58677">
        <ele>1413.09</ele>
        <time>2022-02-09T08:16:37Z</time>
      </trkpt>
      <trkpt lat="44.93231" lon="6.58672">
        <ele>1415.2</ele>
        <time>2022-02-09T08:16:46Z</time>
      </trkpt>
      <trkpt lat="44.93222" lon="6.58675">
        <ele>1413.2</ele>
        <time>2022-02-09T08:16:56Z</time>
      </trkpt>
      <trkpt lat="44.93218" lon="6.58676">
        <ele>1413.57</ele>
        <time>2022-02-09T08:17:06Z</time>
      </trkpt>
      <trkpt lat="44.93218" lon="6.58674">
        <ele>1413.38</ele>
        <time>2022-02-09T08:17:32Z</time>
      </trkpt>
      <trkpt lat="44.93218" lon="6.58673">
        <ele>1413.79</ele>
        <time>2022-02-09T08:17:43Z</time>
      </trkpt>
      <trkpt lat="44.93219" lon="6.58672">
        <ele>1413.41</ele>
        <time>2022-02-09T08:17:53Z</time>
      </trkpt>
      <trkpt lat="44.93218" lon="6.58673">
        <ele>1414.51</ele>
        <time>2022-02-09T08:18:53Z</time>
      </trkpt>
      <trkpt lat="44.93217" lon="6.58674">
        <ele>1413.87</ele>
        <time>2022-02-09T08:19:24Z</time>
      </trkpt>
      <trkpt lat="44.93218" lon="6.58672">
        <ele>1413.66</ele>
        <time>2022-02-09T08:19:34Z</time>
      </trkpt>
      <trkpt lat="44.93219" lon="6.58674">
        <ele>1413.6</ele>
        <time>2022-02-09T08:19:44Z</time>
      </trkpt>
      <trkpt lat="44.93218" lon="6.58674">
        <ele>1413.73</ele>
        <time>2022-02-09T08:20:26Z</time>
      </trkpt>
      <trkpt lat="44.93219" lon="6.58674">
        <ele>1413.21</ele>
        <time>2022-02-09T08:21:01Z</time>
      </trkpt>
      <trkpt lat="44.93218" lon="6.58673">
        <ele>1413.75</ele>
        <time>2022-02-09T08:21:15Z</time>
      </trkpt>
      <trkpt lat="44.93215" lon="6.58674">
        <ele>1413.73</ele>
        <time>2022-02-09T08:21:25Z</time>
      </trkpt>
      <trkpt lat="44.93213" lon="6.58674">
        <ele>1413.33</ele>
        <time>2022-02-09T08:21:36Z</time>
      </trkpt>
      <trkpt lat="44.93211" lon="6.58675">
        <ele>1413.66</ele>
        <time>2022-02-09T08:21:45Z</time>
      </trkpt>
      <trkpt lat="44.93204" lon="6.58678">
        <ele>1415.28</ele>
        <time>2022-02-09T08:21:55Z</time>
      </trkpt>
      <trkpt lat="44.93197" lon="6.58683">
        <ele>1414.78</ele>
        <time>2022-02-09T08:22:04Z</time>
      </trkpt>
      <trkpt lat="44.93191" lon="6.58683">
        <ele>1415.24</ele>
        <time>2022-02-09T08:22:13Z</time>
      </trkpt>
      <trkpt lat="44.93192" lon="6.58677">
        <ele>1415.19</ele>
        <time>2022-02-09T08:22:23Z</time>
      </trkpt>
      <trkpt lat="44.93192" lon="6.58679">
        <ele>1413.8</ele>
        <time>2022-02-09T08:22:34Z</time>
      </trkpt>
      <trkpt lat="44.93188" lon="6.58682">
        <ele>1414.34</ele>
        <time>2022-02-09T08:22:44Z</time>
      </trkpt>
      <trkpt lat="44.93185" lon="6.58685">
        <ele>1415.13</ele>
        <time>2022-02-09T08:22:53Z</time>
      </trkpt>
      <trkpt lat="44.93177" lon="6.58693">
        <ele>1413.62</ele>
        <time>2022-02-09T08:23:02Z</time>
      </trkpt>
      <trkpt lat="44.93169" lon="6.58698">
        <ele>1413.28</ele>
        <time>2022-02-09T08:23:12Z</time>
      </trkpt>
      <trkpt lat="44.93161" lon="6.58705">
        <ele>1413.67</ele>
        <time>2022-02-09T08:23:22Z</time>
      </trkpt>
      <trkpt lat="44.93155" lon="6.58713">
        <ele>1413.73</ele>
        <time>2022-02-09T08:23:31Z</time>
      </trkpt>
      <trkpt lat="44.93148" lon="6.5872">
        <ele>1413.8</ele>
        <time>2022-02-09T08:23:41Z</time>
      </trkpt>
      <trkpt lat="44.93141" lon="6.58723">
        <ele>1412.97</ele>
        <time>2022-02-09T08:23:51Z</time>
      </trkpt>
      <trkpt lat="44.93135" lon="6.58721">
        <ele>1414.56</ele>
        <time>2022-02-09T08:24:01Z</time>
      </trkpt>
      <trkpt lat="44.93134" lon="6.58714">
        <ele>1414.43</ele>
        <time>2022-02-09T08:24:11Z</time>
      </trkpt>
      <trkpt lat="44.93132" lon="6.58724">
        <ele>1412.93</ele>
        <time>2022-02-09T08:24:20Z</time>
      </trkpt>
      <trkpt lat="44.93131" lon="6.58734">
        <ele>1413.04</ele>
        <time>2022-02-09T08:24:30Z</time>
      </trkpt>
      <trkpt lat="44.93126" lon="6.5874">
        <ele>1415.05</ele>
        <time>2022-02-09T08:24:39Z</time>
      </trkpt>
      <trkpt lat="44.93122" lon="6.58746">
        <ele>1413.21</ele>
        <time>2022-02-09T08:24:49Z</time>
      </trkpt>
      <trkpt lat="44.93116" lon="6.5875">
        <ele>1413.8</ele>
        <time>2022-02-09T08:24:59Z</time>
      </trkpt>
      <trkpt lat="44.93111" lon="6.58753">
        <ele>1413.36</ele>
        <time>2022-02-09T08:25:09Z</time>
      </trkpt>
      <trkpt lat="44.93108" lon="6.58755">
        <ele>1413.39</ele>
        <time>2022-02-09T08:25:19Z</time>
      </trkpt>
      <trkpt lat="44.93103" lon="6.58759">
        <ele>1412.92</ele>
        <time>2022-02-09T08:25:28Z</time>
      </trkpt>
      <trkpt lat="44.93097" lon="6.58764">
        <ele>1415.11</ele>
        <time>2022-02-09T08:25:38Z</time>
      </trkpt>
      <trkpt lat="44.93087" lon="6.58767">
        <ele>1415.1</ele>
        <time>2022-02-09T08:25:48Z</time>
      </trkpt>
      <trkpt lat="44.93082" lon="6.58773">
        <ele>1415.04</ele>
        <time>2022-02-09T08:25:58Z</time>
      </trkpt>
      <trkpt lat="44.93079" lon="6.58777">
        <ele>1414.93</ele>
        <time>2022-02-09T08:26:08Z</time>
      </trkpt>
      <trkpt lat="44.93077" lon="6.58779">
        <ele>1414.96</ele>
        <time>2022-02-09T08:26:17Z</time>
      </trkpt>
      <trkpt lat="44.93073" lon="6.58782">
        <ele>1415</ele>
        <time>2022-02-09T08:26:26Z</time>
      </trkpt>
      <trkpt lat="44.93068" lon="6.58784">
        <ele>1417.46</ele>
        <time>2022-02-09T08:26:36Z</time>
      </trkpt>
      <trkpt lat="44.93064" lon="6.58787">
        <ele>1415.22</ele>
        <time>2022-02-09T08:26:45Z</time>
      </trkpt>
      <trkpt lat="44.93066" lon="6.58794">
        <ele>1415.08</ele>
        <time>2022-02-09T08:26:54Z</time>
      </trkpt>
      <trkpt lat="44.93063" lon="6.58801">
        <ele>1415</ele>
        <time>2022-02-09T08:27:04Z</time>
      </trkpt>
      <trkpt lat="44.93064" lon="6.58804">
        <ele>1415</ele>
        <time>2022-02-09T08:27:13Z</time>
      </trkpt>
      <trkpt lat="44.93069" lon="6.58802">
        <ele>1425.5</ele>
        <time>2022-02-09T08:27:23Z</time>
      </trkpt>
      <trkpt lat="44.93069" lon="6.588">
        <ele>1425.62</ele>
        <time>2022-02-09T08:27:33Z</time>
      </trkpt>
      <trkpt lat="44.93069" lon="6.58798">
        <ele>1415.1</ele>
        <time>2022-02-09T08:27:45Z</time>
      </trkpt>
      <trkpt lat="44.93068" lon="6.58799">
        <ele>1418.63</ele>
        <time>2022-02-09T08:27:55Z</time>
      </trkpt>
      <trkpt lat="44.93067" lon="6.588">
        <ele>1415</ele>
        <time>2022-02-09T08:28:05Z</time>
      </trkpt>
      <trkpt lat="44.93068" lon="6.588">
        <ele>1414.97</ele>
        <time>2022-02-09T08:28:18Z</time>
      </trkpt>
      <trkpt lat="44.93068" lon="6.58801">
        <ele>1427.36</ele>
        <time>2022-02-09T08:28:30Z</time>
      </trkpt>
      <trkpt lat="44.93068" lon="6.58802">
        <ele>1414.94</ele>
        <time>2022-02-09T08:29:26Z</time>
      </trkpt>
      <trkpt lat="44.93067" lon="6.58803">
        <ele>1415.02</ele>
        <time>2022-02-09T08:29:39Z</time>
      </trkpt>
      <trkpt lat="44.93067" lon="6.58804">
        <ele>1415.08</ele>
        <time>2022-02-09T08:30:10Z</time>
      </trkpt>
      <trkpt lat="44.93068" lon="6.58803">
        <ele>1414.57</ele>
        <time>2022-02-09T08:30:31Z</time>
      </trkpt>
      <trkpt lat="44.93055" lon="6.58802">
        <ele>1414.91</ele>
        <time>2022-02-09T08:30:40Z</time>
      </trkpt>
      <trkpt lat="44.93052" lon="6.58798">
        <ele>1414.9</ele>
        <time>2022-02-09T08:30:49Z</time>
      </trkpt>
      <trkpt lat="44.93048" lon="6.58793">
        <ele>1414.93</ele>
        <time>2022-02-09T08:30:59Z</time>
      </trkpt>
      <trkpt lat="44.93049" lon="6.58782">
        <ele>1412.02</ele>
        <time>2022-02-09T08:31:09Z</time>
      </trkpt>
      <trkpt lat="44.93049" lon="6.58781">
        <ele>1414.19</ele>
        <time>2022-02-09T08:31:19Z</time>
      </trkpt>
      <trkpt lat="44.93049" lon="6.58782">
        <ele>1414.04</ele>
        <time>2022-02-09T08:31:30Z</time>
      </trkpt>
      <trkpt lat="44.93051" lon="6.58784">
        <ele>1414.88</ele>
        <time>2022-02-09T08:31:40Z</time>
      </trkpt>
      <trkpt lat="44.9305" lon="6.58785">
        <ele>1414.94</ele>
        <time>2022-02-09T08:31:58Z</time>
      </trkpt>
      <trkpt lat="44.93049" lon="6.58785">
        <ele>1414.99</ele>
        <time>2022-02-09T08:32:11Z</time>
      </trkpt>
      <trkpt lat="44.93048" lon="6.58777">
        <ele>1414.9</ele>
        <time>2022-02-09T08:32:21Z</time>
      </trkpt>
      <trkpt lat="44.93043" lon="6.58771">
        <ele>1414.7</ele>
        <time>2022-02-09T08:32:31Z</time>
      </trkpt>
      <trkpt lat="44.93036" lon="6.58766">
        <ele>1413.06</ele>
        <time>2022-02-09T08:32:41Z</time>
      </trkpt>
      <trkpt lat="44.93033" lon="6.58761">
        <ele>1414.68</ele>
        <time>2022-02-09T08:32:51Z</time>
      </trkpt>
      <trkpt lat="44.93029" lon="6.58749">
        <ele>1413.25</ele>
        <time>2022-02-09T08:33:00Z</time>
      </trkpt>
      <trkpt lat="44.93026" lon="6.58744">
        <ele>1441.62</ele>
        <time>2022-02-09T08:33:09Z</time>
      </trkpt>
      <trkpt lat="44.93022" lon="6.58742">
        <ele>1423.43</ele>
        <time>2022-02-09T08:33:19Z</time>
      </trkpt>
      <trkpt lat="44.93018" lon="6.58741">
        <ele>1435.31</ele>
        <time>2022-02-09T08:33:28Z</time>
      </trkpt>
      <trkpt lat="44.93013" lon="6.58739">
        <ele>1424.12</ele>
        <time>2022-02-09T08:33:38Z</time>
      </trkpt>
      <trkpt lat="44.93008" lon="6.58736">
        <ele>1413.12</ele>
        <time>2022-02-09T08:33:48Z</time>
      </trkpt>
      <trkpt lat="44.93006" lon="6.58732">
        <ele>1414.82</ele>
        <time>2022-02-09T08:33:57Z</time>
      </trkpt>
      <trkpt lat="44.93004" lon="6.58726">
        <ele>1419.88</ele>
        <time>2022-02-09T08:34:07Z</time>
      </trkpt>
      <trkpt lat="44.92999" lon="6.58724">
        <ele>1424.45</ele>
        <time>2022-02-09T08:34:17Z</time>
      </trkpt>
      <trkpt lat="44.92991" lon="6.58726">
        <ele>1424.9</ele>
        <time>2022-02-09T08:34:27Z</time>
      </trkpt>
      <trkpt lat="44.92985" lon="6.58726">
        <ele>1415.19</ele>
        <time>2022-02-09T08:34:37Z</time>
      </trkpt>
      <trkpt lat="44.9298" lon="6.58725">
        <ele>1427.23</ele>
        <time>2022-02-09T08:34:46Z</time>
      </trkpt>
      <trkpt lat="44.92975" lon="6.58721">
        <ele>1416.83</ele>
        <time>2022-02-09T08:34:56Z</time>
      </trkpt>
      <trkpt lat="44.92972" lon="6.58719">
        <ele>1413.42</ele>
        <time>2022-02-09T08:35:05Z</time>
      </trkpt>
      <trkpt lat="44.92969" lon="6.58716">
        <ele>1414.99</ele>
        <time>2022-02-09T08:35:15Z</time>
      </trkpt>
      <trkpt lat="44.92967" lon="6.58713">
        <ele>1424.62</ele>
        <time>2022-02-09T08:35:24Z</time>
      </trkpt>
      <trkpt lat="44.92966" lon="6.58712">
        <ele>1415.02</ele>
        <time>2022-02-09T08:35:33Z</time>
      </trkpt>
      <trkpt lat="44.92964" lon="6.58707">
        <ele>1417.09</ele>
        <time>2022-02-09T08:35:43Z</time>
      </trkpt>
      <trkpt lat="44.92964" lon="6.587">
        <ele>1415.52</ele>
        <time>2022-02-09T08:35:52Z</time>
      </trkpt>
      <trkpt lat="44.92963" lon="6.58694">
        <ele>1442.39</ele>
        <time>2022-02-09T08:36:02Z</time>
      </trkpt>
      <trkpt lat="44.9296" lon="6.58688">
        <ele>1429.07</ele>
        <time>2022-02-09T08:36:12Z</time>
      </trkpt>
      <trkpt lat="44.92958" lon="6.58682">
        <ele>1426.84</ele>
        <time>2022-02-09T08:36:21Z</time>
      </trkpt>
      <trkpt lat="44.9296" lon="6.58672">
        <ele>1420.79</ele>
        <time>2022-02-09T08:36:31Z</time>
      </trkpt>
      <trkpt lat="44.92959" lon="6.58666">
        <ele>1415.14</ele>
        <time>2022-02-09T08:36:41Z</time>
      </trkpt>
      <trkpt lat="44.92956" lon="6.5866">
        <ele>1446.77</ele>
        <time>2022-02-09T08:36:51Z</time>
      </trkpt>
      <trkpt lat="44.9295" lon="6.58658">
        <ele>1437.01</ele>
        <time>2022-02-09T08:37:01Z</time>
      </trkpt>
      <trkpt lat="44.92942" lon="6.58662">
        <ele>1464.5</ele>
        <time>2022-02-09T08:37:11Z</time>
      </trkpt>
      <trkpt lat="44.92939" lon="6.58663">
        <ele>1464.7</ele>
        <time>2022-02-09T08:37:21Z</time>
      </trkpt>
      <trkpt lat="44.92939" lon="6.58664">
        <ele>1414.91</ele>
        <time>2022-02-09T08:37:39Z</time>
      </trkpt>
      <trkpt lat="44.92935" lon="6.58662">
        <ele>1458.25</ele>
        <time>2022-02-09T08:37:48Z</time>
      </trkpt>
      <trkpt lat="44.92932" lon="6.58663">
        <ele>1464.69</ele>
        <time>2022-02-09T08:37:58Z</time>
      </trkpt>
      <trkpt lat="44.92929" lon="6.58662">
        <ele>1464.7</ele>
        <time>2022-02-09T08:38:08Z</time>
      </trkpt>
      <trkpt lat="44.92928" lon="6.58665">
        <ele>1416.29</ele>
        <time>2022-02-09T08:38:17Z</time>
      </trkpt>
      <trkpt lat="44.92927" lon="6.58667">
        <ele>1414.91</ele>
        <time>2022-02-09T08:38:27Z</time>
      </trkpt>
      <trkpt lat="44.92926" lon="6.58669">
        <ele>1414.9</ele>
        <time>2022-02-09T08:38:36Z</time>
      </trkpt>
      <trkpt lat="44.92924" lon="6.58676">
        <ele>1414.9</ele>
        <time>2022-02-09T08:38:46Z</time>
      </trkpt>
      <trkpt lat="44.92926" lon="6.58681">
        <ele>1414.9</ele>
        <time>2022-02-09T08:38:55Z</time>
      </trkpt>
      <trkpt lat="44.92931" lon="6.58688">
        <ele>1414.9</ele>
        <time>2022-02-09T08:39:04Z</time>
      </trkpt>
      <trkpt lat="44.92931" lon="6.58694">
        <ele>1414.9</ele>
        <time>2022-02-09T08:39:14Z</time>
      </trkpt>
      <trkpt lat="44.92929" lon="6.58696">
        <ele>1414.99</ele>
        <time>2022-02-09T08:39:24Z</time>
      </trkpt>
      <trkpt lat="44.92929" lon="6.58698">
        <ele>1414.9</ele>
        <time>2022-02-09T08:39:33Z</time>
      </trkpt>
      <trkpt lat="44.92929" lon="6.58705">
        <ele>1415.1</ele>
        <time>2022-02-09T08:39:43Z</time>
      </trkpt>
      <trkpt lat="44.92925" lon="6.58707">
        <ele>1444.36</ele>
        <time>2022-02-09T08:39:52Z</time>
      </trkpt>
      <trkpt lat="44.92921" lon="6.58709">
        <ele>1415.11</ele>
        <time>2022-02-09T08:40:01Z</time>
      </trkpt>
      <trkpt lat="44.92917" lon="6.58711">
        <ele>1415</ele>
        <time>2022-02-09T08:40:11Z</time>
      </trkpt>
      <trkpt lat="44.92912" lon="6.58711">
        <ele>1421.25</ele>
        <time>2022-02-09T08:40:20Z</time>
      </trkpt>
      <trkpt lat="44.92905" lon="6.58712">
        <ele>1416.97</ele>
        <time>2022-02-09T08:40:30Z</time>
      </trkpt>
      <trkpt lat="44.929" lon="6.58712">
        <ele>1413.34</ele>
        <time>2022-02-09T08:40:39Z</time>
      </trkpt>
      <trkpt lat="44.92898" lon="6.5871">
        <ele>1414.91</ele>
        <time>2022-02-09T08:40:49Z</time>
      </trkpt>
      <trkpt lat="44.92896" lon="6.58706">
        <ele>1413.35</ele>
        <time>2022-02-09T08:40:59Z</time>
      </trkpt>
      <trkpt lat="44.92893" lon="6.58704">
        <ele>1412.9</ele>
        <time>2022-02-09T08:41:09Z</time>
      </trkpt>
      <trkpt lat="44.9289" lon="6.58703">
        <ele>1414.47</ele>
        <time>2022-02-09T08:41:19Z</time>
      </trkpt>
      <trkpt lat="44.92889" lon="6.58704">
        <ele>1414.9</ele>
        <time>2022-02-09T08:41:29Z</time>
      </trkpt>
      <trkpt lat="44.92888" lon="6.58704">
        <ele>1415</ele>
        <time>2022-02-09T08:41:40Z</time>
      </trkpt>
      <trkpt lat="44.92887" lon="6.58706">
        <ele>1415</ele>
        <time>2022-02-09T08:41:49Z</time>
      </trkpt>
      <trkpt lat="44.92883" lon="6.58707">
        <ele>1412.92</ele>
        <time>2022-02-09T08:41:59Z</time>
      </trkpt>
      <trkpt lat="44.92881" lon="6.58709">
        <ele>1412.9</ele>
        <time>2022-02-09T08:42:09Z</time>
      </trkpt>
      <trkpt lat="44.92879" lon="6.58711">
        <ele>1412.9</ele>
        <time>2022-02-09T08:42:19Z</time>
      </trkpt>
      <trkpt lat="44.92877" lon="6.58709">
        <ele>1453.51</ele>
        <time>2022-02-09T08:42:29Z</time>
      </trkpt>
      <trkpt lat="44.92876" lon="6.5871">
        <ele>1415.75</ele>
        <time>2022-02-09T08:42:39Z</time>
      </trkpt>
      <trkpt lat="44.92877" lon="6.5871">
        <ele>1413.36</ele>
        <time>2022-02-09T08:42:49Z</time>
      </trkpt>
      <trkpt lat="44.92876" lon="6.58708">
        <ele>1412.9</ele>
        <time>2022-02-09T08:42:58Z</time>
      </trkpt>
      <trkpt lat="44.92876" lon="6.58703">
        <ele>1462.28</ele>
        <time>2022-02-09T08:43:08Z</time>
      </trkpt>
      <trkpt lat="44.92875" lon="6.58699">
        <ele>1443.97</ele>
        <time>2022-02-09T08:43:18Z</time>
      </trkpt>
      <trkpt lat="44.92873" lon="6.58695">
        <ele>1413.67</ele>
        <time>2022-02-09T08:43:27Z</time>
      </trkpt>
      <trkpt lat="44.9287" lon="6.58689">
        <ele>1463.25</ele>
        <time>2022-02-09T08:43:37Z</time>
      </trkpt>
      <trkpt lat="44.92867" lon="6.58684">
        <ele>1413</ele>
        <time>2022-02-09T08:43:47Z</time>
      </trkpt>
      <trkpt lat="44.92866" lon="6.58679">
        <ele>1414.95</ele>
        <time>2022-02-09T08:43:57Z</time>
      </trkpt>
      <trkpt lat="44.92864" lon="6.58675">
        <ele>1414.99</ele>
        <time>2022-02-09T08:44:06Z</time>
      </trkpt>
      <trkpt lat="44.92861" lon="6.58673">
        <ele>1423.62</ele>
        <time>2022-02-09T08:44:16Z</time>
      </trkpt>
      <trkpt lat="44.92859" lon="6.58671">
        <ele>1432.82</ele>
        <time>2022-02-09T08:44:25Z</time>
      </trkpt>
      <trkpt lat="44.92859" lon="6.58666">
        <ele>1417.19</ele>
        <time>2022-02-09T08:44:35Z</time>
      </trkpt>
      <trkpt lat="44.92857" lon="6.58662">
        <ele>1415.01</ele>
        <time>2022-02-09T08:44:44Z</time>
      </trkpt>
      <trkpt lat="44.92856" lon="6.58661">
        <ele>1418.52</ele>
        <time>2022-02-09T08:44:53Z</time>
      </trkpt>
      <trkpt lat="44.92855" lon="6.58659">
        <ele>1415.23</ele>
        <time>2022-02-09T08:45:03Z</time>
      </trkpt>
      <trkpt lat="44.92858" lon="6.58655">
        <ele>1460.84</ele>
        <time>2022-02-09T08:45:12Z</time>
      </trkpt>
      <trkpt lat="44.92857" lon="6.58652">
        <ele>1462.92</ele>
        <time>2022-02-09T08:45:21Z</time>
      </trkpt>
      <trkpt lat="44.92855" lon="6.58648">
        <ele>1417.79</ele>
        <time>2022-02-09T08:45:30Z</time>
      </trkpt>
      <trkpt lat="44.92851" lon="6.58647">
        <ele>1453.97</ele>
        <time>2022-02-09T08:45:40Z</time>
      </trkpt>
      <trkpt lat="44.92848" lon="6.58649">
        <ele>1416.35</ele>
        <time>2022-02-09T08:45:49Z</time>
      </trkpt>
      <trkpt lat="44.92846" lon="6.5865">
        <ele>1463.32</ele>
        <time>2022-02-09T08:45:59Z</time>
      </trkpt>
      <trkpt lat="44.92846" lon="6.58653">
        <ele>1418.85</ele>
        <time>2022-02-09T08:46:08Z</time>
      </trkpt>
      <trkpt lat="44.92846" lon="6.58655">
        <ele>1414.91</ele>
        <time>2022-02-09T08:46:18Z</time>
      </trkpt>
      <trkpt lat="44.92845" lon="6.58658">
        <ele>1414.9</ele>
        <time>2022-02-09T08:46:27Z</time>
      </trkpt>
      <trkpt lat="44.92845" lon="6.58664">
        <ele>1415</ele>
        <time>2022-02-09T08:46:37Z</time>
      </trkpt>
      <trkpt lat="44.92844" lon="6.5867">
        <ele>1416.94</ele>
        <time>2022-02-09T08:46:47Z</time>
      </trkpt>
      <trkpt lat="44.92842" lon="6.58673">
        <ele>1417.1</ele>
        <time>2022-02-09T08:46:57Z</time>
      </trkpt>
      <trkpt lat="44.9284" lon="6.58674">
        <ele>1412.91</ele>
        <time>2022-02-09T08:47:06Z</time>
      </trkpt>
      <trkpt lat="44.92836" lon="6.58675">
        <ele>1412.9</ele>
        <time>2022-02-09T08:47:15Z</time>
      </trkpt>
      <trkpt lat="44.92832" lon="6.58675">
        <ele>1412.9</ele>
        <time>2022-02-09T08:47:25Z</time>
      </trkpt>
      <trkpt lat="44.92831" lon="6.58672">
        <ele>1430.68</ele>
        <time>2022-02-09T08:47:35Z</time>
      </trkpt>
      <trkpt lat="44.92829" lon="6.58667">
        <ele>1413.08</ele>
        <time>2022-02-09T08:47:44Z</time>
      </trkpt>
      <trkpt lat="44.92824" lon="6.58664">
        <ele>1412.9</ele>
        <time>2022-02-09T08:47:54Z</time>
      </trkpt>
      <trkpt lat="44.9282" lon="6.58661">
        <ele>1412.9</ele>
        <time>2022-02-09T08:48:03Z</time>
      </trkpt>
      <trkpt lat="44.92819" lon="6.58661">
        <ele>1412.9</ele>
        <time>2022-02-09T08:48:13Z</time>
      </trkpt>
      <trkpt lat="44.92814" lon="6.58662">
        <ele>1412.9</ele>
        <time>2022-02-09T08:48:23Z</time>
      </trkpt>
      <trkpt lat="44.92813" lon="6.58661">
        <ele>1412.9</ele>
        <time>2022-02-09T08:48:33Z</time>
      </trkpt>
      <trkpt lat="44.9281" lon="6.5866">
        <ele>1412.9</ele>
        <time>2022-02-09T08:48:42Z</time>
      </trkpt>
      <trkpt lat="44.92809" lon="6.58653">
        <ele>1412.9</ele>
        <time>2022-02-09T08:48:52Z</time>
      </trkpt>
      <trkpt lat="44.92812" lon="6.58648">
        <ele>1414.89</ele>
        <time>2022-02-09T08:49:01Z</time>
      </trkpt>
      <trkpt lat="44.92813" lon="6.58646">
        <ele>1414.9</ele>
        <time>2022-02-09T08:49:10Z</time>
      </trkpt>
      <trkpt lat="44.9281" lon="6.58642">
        <ele>1414.9</ele>
        <time>2022-02-09T08:49:20Z</time>
      </trkpt>
      <trkpt lat="44.92803" lon="6.58636">
        <ele>1414.9</ele>
        <time>2022-02-09T08:49:30Z</time>
      </trkpt>
      <trkpt lat="44.92799" lon="6.58632">
        <ele>1414.9</ele>
        <time>2022-02-09T08:49:40Z</time>
      </trkpt>
      <trkpt lat="44.92799" lon="6.5863">
        <ele>1433.34</ele>
        <time>2022-02-09T08:49:49Z</time>
      </trkpt>
      <trkpt lat="44.92798" lon="6.58628">
        <ele>1460.96</ele>
        <time>2022-02-09T08:49:59Z</time>
      </trkpt>
      <trkpt lat="44.92797" lon="6.58626">
        <ele>1424.07</ele>
        <time>2022-02-09T08:50:08Z</time>
      </trkpt>
      <trkpt lat="44.92796" lon="6.58625">
        <ele>1461.6</ele>
        <time>2022-02-09T08:50:19Z</time>
      </trkpt>
      <trkpt lat="44.92794" lon="6.58624">
        <ele>1464.7</ele>
        <time>2022-02-09T08:50:29Z</time>
      </trkpt>
      <trkpt lat="44.92789" lon="6.58622">
        <ele>1464.7</ele>
        <time>2022-02-09T08:50:39Z</time>
      </trkpt>
      <trkpt lat="44.92785" lon="6.5862">
        <ele>1464.7</ele>
        <time>2022-02-09T08:50:48Z</time>
      </trkpt>
      <trkpt lat="44.9278" lon="6.58619">
        <ele>1464.7</ele>
        <time>2022-02-09T08:50:58Z</time>
      </trkpt>
      <trkpt lat="44.9278" lon="6.58618">
        <ele>1464.7</ele>
        <time>2022-02-09T08:51:08Z</time>
      </trkpt>
      <trkpt lat="44.92778" lon="6.58615">
        <ele>1419.28</ele>
        <time>2022-02-09T08:51:18Z</time>
      </trkpt>
      <trkpt lat="44.92773" lon="6.58608">
        <ele>1416.38</ele>
        <time>2022-02-09T08:51:27Z</time>
      </trkpt>
      <trkpt lat="44.92766" lon="6.58603">
        <ele>1414.91</ele>
        <time>2022-02-09T08:51:37Z</time>
      </trkpt>
      <trkpt lat="44.92762" lon="6.58598">
        <ele>1418.89</ele>
        <time>2022-02-09T08:51:47Z</time>
      </trkpt>
      <trkpt lat="44.9276" lon="6.58591">
        <ele>1419</ele>
        <time>2022-02-09T08:51:57Z</time>
      </trkpt>
      <trkpt lat="44.92757" lon="6.5859">
        <ele>1419</ele>
        <time>2022-02-09T08:52:07Z</time>
      </trkpt>
      <trkpt lat="44.92752" lon="6.58588">
        <ele>1419</ele>
        <time>2022-02-09T08:52:16Z</time>
      </trkpt>
      <trkpt lat="44.92749" lon="6.58584">
        <ele>1419</ele>
        <time>2022-02-09T08:52:25Z</time>
      </trkpt>
      <trkpt lat="44.92749" lon="6.58576">
        <ele>1419</ele>
        <time>2022-02-09T08:52:35Z</time>
      </trkpt>
      <trkpt lat="44.92747" lon="6.5857">
        <ele>1419</ele>
        <time>2022-02-09T08:52:45Z</time>
      </trkpt>
      <trkpt lat="44.92743" lon="6.58564">
        <ele>1419</ele>
        <time>2022-02-09T08:52:54Z</time>
      </trkpt>
      <trkpt lat="44.92744" lon="6.58561">
        <ele>1419</ele>
        <time>2022-02-09T08:53:04Z</time>
      </trkpt>
      <trkpt lat="44.92744" lon="6.5856">
        <ele>1505.21</ele>
        <time>2022-02-09T08:53:14Z</time>
      </trkpt>
      <trkpt lat="44.92744" lon="6.58558">
        <ele>1513.44</ele>
        <time>2022-02-09T08:53:36Z</time>
      </trkpt>
      <trkpt lat="44.92744" lon="6.5856">
        <ele>1510.8</ele>
        <time>2022-02-09T08:53:46Z</time>
      </trkpt>
      <trkpt lat="44.92744" lon="6.58561">
        <ele>1515.52</ele>
        <time>2022-02-09T08:53:59Z</time>
      </trkpt>
      <trkpt lat="44.92747" lon="6.58557">
        <ele>1498.11</ele>
        <time>2022-02-09T08:54:09Z</time>
      </trkpt>
      <trkpt lat="44.92747" lon="6.58557">
        <ele>1499.58</ele>
        <time>2022-02-09T08:54:19Z</time>
      </trkpt>
      <trkpt lat="44.92747" lon="6.58559">
        <ele>1505.88</ele>
        <time>2022-02-09T08:54:29Z</time>
      </trkpt>
      <trkpt lat="44.92746" lon="6.58557">
        <ele>1510.24</ele>
        <time>2022-02-09T08:54:43Z</time>
      </trkpt>
      <trkpt lat="44.92746" lon="6.58556">
        <ele>1518.04</ele>
        <time>2022-02-09T08:54:53Z</time>
      </trkpt>
      <trkpt lat="44.92746" lon="6.58555">
        <ele>1510.7</ele>
        <time>2022-02-09T08:55:06Z</time>
      </trkpt>
      <trkpt lat="44.92746" lon="6.58554">
        <ele>1514.79</ele>
        <time>2022-02-09T08:55:16Z</time>
      </trkpt>
      <trkpt lat="44.92745" lon="6.58553">
        <ele>1520.67</ele>
        <time>2022-02-09T08:55:26Z</time>
      </trkpt>
      <trkpt lat="44.92745" lon="6.58551">
        <ele>1520.57</ele>
        <time>2022-02-09T08:55:36Z</time>
      </trkpt>
      <trkpt lat="44.92746" lon="6.58552">
        <ele>1515.1</ele>
        <time>2022-02-09T08:55:49Z</time>
      </trkpt>
      <trkpt lat="44.92748" lon="6.58556">
        <ele>1505.38</ele>
        <time>2022-02-09T08:55:59Z</time>
      </trkpt>
      <trkpt lat="44.92742" lon="6.58554">
        <ele>1508.44</ele>
        <time>2022-02-09T08:56:09Z</time>
      </trkpt>
      <trkpt lat="44.92742" lon="6.58553">
        <ele>1517.93</ele>
        <time>2022-02-09T08:56:20Z</time>
      </trkpt>
      <trkpt lat="44.92741" lon="6.58552">
        <ele>1515.15</ele>
        <time>2022-02-09T08:56:36Z</time>
      </trkpt>
      <trkpt lat="44.9274" lon="6.58552">
        <ele>1516.07</ele>
        <time>2022-02-09T08:57:02Z</time>
      </trkpt>
      <trkpt lat="44.92741" lon="6.58553">
        <ele>1464.29</ele>
        <time>2022-02-09T08:57:38Z</time>
      </trkpt>
      <trkpt lat="44.92742" lon="6.58555">
        <ele>1472.35</ele>
        <time>2022-02-09T08:57:48Z</time>
      </trkpt>
      <trkpt lat="44.92744" lon="6.58556">
        <ele>1466.8</ele>
        <time>2022-02-09T08:57:58Z</time>
      </trkpt>
      <trkpt lat="44.92744" lon="6.58553">
        <ele>1466</ele>
        <time>2022-02-09T08:58:08Z</time>
      </trkpt>
      <trkpt lat="44.92744" lon="6.58552">
        <ele>1462.01</ele>
        <time>2022-02-09T08:58:19Z</time>
      </trkpt>
      <trkpt lat="44.92745" lon="6.58553">
        <ele>1519.82</ele>
        <time>2022-02-09T08:58:35Z</time>
      </trkpt>
      <trkpt lat="44.92746" lon="6.58554">
        <ele>1507.3</ele>
        <time>2022-02-09T08:58:45Z</time>
      </trkpt>
      <trkpt lat="44.92745" lon="6.58554">
        <ele>1506.2</ele>
        <time>2022-02-09T08:58:57Z</time>
      </trkpt>
      <trkpt lat="44.92745" lon="6.58555">
        <ele>1508.72</ele>
        <time>2022-02-09T08:59:08Z</time>
      </trkpt>
      <trkpt lat="44.92744" lon="6.58556">
        <ele>1516.55</ele>
        <time>2022-02-09T08:59:19Z</time>
      </trkpt>
      <trkpt lat="44.92744" lon="6.58559">
        <ele>1517.93</ele>
        <time>2022-02-09T08:59:29Z</time>
      </trkpt>
      <trkpt lat="44.92743" lon="6.5856">
        <ele>1507.96</ele>
        <time>2022-02-09T08:59:54Z</time>
      </trkpt>
      <trkpt lat="44.92743" lon="6.58558">
        <ele>1513.57</ele>
        <time>2022-02-09T09:00:11Z</time>
      </trkpt>
      <trkpt lat="44.92739" lon="6.58557">
        <ele>1513.9</ele>
        <time>2022-02-09T09:00:21Z</time>
      </trkpt>
      <trkpt lat="44.92739" lon="6.58558">
        <ele>1516.09</ele>
        <time>2022-02-09T09:00:45Z</time>
      </trkpt>
      <trkpt lat="44.92735" lon="6.58561">
        <ele>1517.43</ele>
        <time>2022-02-09T09:00:55Z</time>
      </trkpt>
      <trkpt lat="44.92734" lon="6.58562">
        <ele>1517.19</ele>
        <time>2022-02-09T09:01:04Z</time>
      </trkpt>
      <trkpt lat="44.92726" lon="6.5856">
        <ele>1513.97</ele>
        <time>2022-02-09T09:01:14Z</time>
      </trkpt>
      <trkpt lat="44.92726" lon="6.58558">
        <ele>1508.2</ele>
        <time>2022-02-09T09:01:24Z</time>
      </trkpt>
      <trkpt lat="44.92725" lon="6.58556">
        <ele>1505.34</ele>
        <time>2022-02-09T09:01:38Z</time>
      </trkpt>
      <trkpt lat="44.92718" lon="6.58547">
        <ele>1516.58</ele>
        <time>2022-02-09T09:01:48Z</time>
      </trkpt>
      <trkpt lat="44.92717" lon="6.58542">
        <ele>1511.16</ele>
        <time>2022-02-09T09:01:57Z</time>
      </trkpt>
      <trkpt lat="44.92716" lon="6.58539">
        <ele>1514.78</ele>
        <time>2022-02-09T09:02:07Z</time>
      </trkpt>
      <trkpt lat="44.92713" lon="6.58534">
        <ele>1517.02</ele>
        <time>2022-02-09T09:02:17Z</time>
      </trkpt>
      <trkpt lat="44.92708" lon="6.5853">
        <ele>1744.56</ele>
        <time>2022-02-09T09:02:26Z</time>
      </trkpt>
      <trkpt lat="44.92707" lon="6.58526">
        <ele>1821.62</ele>
        <time>2022-02-09T09:02:35Z</time>
      </trkpt>
      <trkpt lat="44.92707" lon="6.5852">
        <ele>1827.04</ele>
        <time>2022-02-09T09:02:46Z</time>
      </trkpt>
      <trkpt lat="44.92703" lon="6.58517">
        <ele>1805.31</ele>
        <time>2022-02-09T09:02:56Z</time>
      </trkpt>
      <trkpt lat="44.92709" lon="6.58513">
        <ele>1807.99</ele>
        <time>2022-02-09T09:03:05Z</time>
      </trkpt>
      <trkpt lat="44.92708" lon="6.58511">
        <ele>1809.32</ele>
        <time>2022-02-09T09:03:14Z</time>
      </trkpt>
      <trkpt lat="44.92703" lon="6.58549">
        <ele>1805.61</ele>
        <time>2022-02-09T09:04:16Z</time>
      </trkpt>
      <trkpt lat="44.92704" lon="6.58554">
        <ele>1813.09</ele>
        <time>2022-02-09T09:04:25Z</time>
      </trkpt>
      <trkpt lat="44.92707" lon="6.58555">
        <ele>1813.21</ele>
        <time>2022-02-09T09:04:35Z</time>
      </trkpt>
      <trkpt lat="44.92707" lon="6.58559">
        <ele>1813.21</ele>
        <time>2022-02-09T09:04:44Z</time>
      </trkpt>
      <trkpt lat="44.92708" lon="6.58565">
        <ele>1813.21</ele>
        <time>2022-02-09T09:04:54Z</time>
      </trkpt>
      <trkpt lat="44.9271" lon="6.58569">
        <ele>1813.21</ele>
        <time>2022-02-09T09:05:04Z</time>
      </trkpt>
      <trkpt lat="44.92708" lon="6.58573">
        <ele>1813.21</ele>
        <time>2022-02-09T09:05:13Z</time>
      </trkpt>
      <trkpt lat="44.92704" lon="6.58582">
        <ele>1525.18</ele>
        <time>2022-02-09T09:05:23Z</time>
      </trkpt>
      <trkpt lat="44.92704" lon="6.58584">
        <ele>1513.4</ele>
        <time>2022-02-09T09:05:38Z</time>
      </trkpt>
      <trkpt lat="44.92701" lon="6.58589">
        <ele>1520.16</ele>
        <time>2022-02-09T09:05:48Z</time>
      </trkpt>
      <trkpt lat="44.92698" lon="6.58592">
        <ele>1529.35</ele>
        <time>2022-02-09T09:05:57Z</time>
      </trkpt>
      <trkpt lat="44.92694" lon="6.58593">
        <ele>1532.4</ele>
        <time>2022-02-09T09:06:06Z</time>
      </trkpt>
      <trkpt lat="44.92688" lon="6.58593">
        <ele>1529.19</ele>
        <time>2022-02-09T09:06:16Z</time>
      </trkpt>
      <trkpt lat="44.92683" lon="6.58593">
        <ele>1527.26</ele>
        <time>2022-02-09T09:06:26Z</time>
      </trkpt>
      <trkpt lat="44.9268" lon="6.58592">
        <ele>1525.98</ele>
        <time>2022-02-09T09:06:35Z</time>
      </trkpt>
      <trkpt lat="44.92675" lon="6.58587">
        <ele>1535.05</ele>
        <time>2022-02-09T09:06:45Z</time>
      </trkpt>
      <trkpt lat="44.92673" lon="6.58578">
        <ele>1529.03</ele>
        <time>2022-02-09T09:06:54Z</time>
      </trkpt>
      <trkpt lat="44.92674" lon="6.58573">
        <ele>1535.43</ele>
        <time>2022-02-09T09:07:04Z</time>
      </trkpt>
      <trkpt lat="44.92673" lon="6.58565">
        <ele>1531.38</ele>
        <time>2022-02-09T09:07:14Z</time>
      </trkpt>
      <trkpt lat="44.92674" lon="6.58565">
        <ele>1532.96</ele>
        <time>2022-02-09T09:07:28Z</time>
      </trkpt>
      <trkpt lat="44.92675" lon="6.58562">
        <ele>1533.28</ele>
        <time>2022-02-09T09:07:38Z</time>
      </trkpt>
      <trkpt lat="44.92675" lon="6.58557">
        <ele>1539.54</ele>
        <time>2022-02-09T09:07:48Z</time>
      </trkpt>
      <trkpt lat="44.9267" lon="6.58559">
        <ele>1424.38</ele>
        <time>2022-02-09T09:07:57Z</time>
      </trkpt>
      <trkpt lat="44.92668" lon="6.58562">
        <ele>1419.02</ele>
        <time>2022-02-09T09:08:06Z</time>
      </trkpt>
      <trkpt lat="44.92667" lon="6.58564">
        <ele>1419</ele>
        <time>2022-02-09T09:08:16Z</time>
      </trkpt>
      <trkpt lat="44.92665" lon="6.58564">
        <ele>1419</ele>
        <time>2022-02-09T09:08:26Z</time>
      </trkpt>
      <trkpt lat="44.92667" lon="6.5856">
        <ele>1419</ele>
        <time>2022-02-09T09:08:36Z</time>
      </trkpt>
      <trkpt lat="44.92669" lon="6.58557">
        <ele>1419</ele>
        <time>2022-02-09T09:08:45Z</time>
      </trkpt>
      <trkpt lat="44.9267" lon="6.58554">
        <ele>1419</ele>
        <time>2022-02-09T09:08:54Z</time>
      </trkpt>
      <trkpt lat="44.92669" lon="6.5855">
        <ele>1419</ele>
        <time>2022-02-09T09:09:04Z</time>
      </trkpt>
      <trkpt lat="44.92663" lon="6.5855">
        <ele>1419</ele>
        <time>2022-02-09T09:09:14Z</time>
      </trkpt>
      <trkpt lat="44.92661" lon="6.58551">
        <ele>1520.62</ele>
        <time>2022-02-09T09:09:23Z</time>
      </trkpt>
      <trkpt lat="44.92658" lon="6.58553">
        <ele>1544.84</ele>
        <time>2022-02-09T09:09:33Z</time>
      </trkpt>
      <trkpt lat="44.92657" lon="6.58555">
        <ele>1539.38</ele>
        <time>2022-02-09T09:09:44Z</time>
      </trkpt>
      <trkpt lat="44.92656" lon="6.58556">
        <ele>1546.84</ele>
        <time>2022-02-09T09:09:54Z</time>
      </trkpt>
      <trkpt lat="44.92655" lon="6.58554">
        <ele>1548.3</ele>
        <time>2022-02-09T09:10:04Z</time>
      </trkpt>
      <trkpt lat="44.92657" lon="6.58549">
        <ele>1540.04</ele>
        <time>2022-02-09T09:10:13Z</time>
      </trkpt>
      <trkpt lat="44.92659" lon="6.58545">
        <ele>1547.73</ele>
        <time>2022-02-09T09:10:23Z</time>
      </trkpt>
      <trkpt lat="44.92663" lon="6.58542">
        <ele>1541.76</ele>
        <time>2022-02-09T09:10:33Z</time>
      </trkpt>
      <trkpt lat="44.92664" lon="6.58542">
        <ele>1550.9</ele>
        <time>2022-02-09T09:10:43Z</time>
      </trkpt>
      <trkpt lat="44.92664" lon="6.58537">
        <ele>1547.84</ele>
        <time>2022-02-09T09:10:52Z</time>
      </trkpt>
      <trkpt lat="44.92663" lon="6.58526">
        <ele>1550.7</ele>
        <time>2022-02-09T09:11:01Z</time>
      </trkpt>
      <trkpt lat="44.92663" lon="6.58517">
        <ele>1550.39</ele>
        <time>2022-02-09T09:11:11Z</time>
      </trkpt>
      <trkpt lat="44.92659" lon="6.58511">
        <ele>1514.48</ele>
        <time>2022-02-09T09:11:21Z</time>
      </trkpt>
      <trkpt lat="44.92657" lon="6.58506">
        <ele>1533.48</ele>
        <time>2022-02-09T09:11:31Z</time>
      </trkpt>
      <trkpt lat="44.92655" lon="6.58503">
        <ele>1537.05</ele>
        <time>2022-02-09T09:11:40Z</time>
      </trkpt>
      <trkpt lat="44.92653" lon="6.58499">
        <ele>1537.02</ele>
        <time>2022-02-09T09:11:50Z</time>
      </trkpt>
      <trkpt lat="44.92651" lon="6.58497">
        <ele>1516.16</ele>
        <time>2022-02-09T09:12:00Z</time>
      </trkpt>
      <trkpt lat="44.9265" lon="6.58494">
        <ele>1537.92</ele>
        <time>2022-02-09T09:12:10Z</time>
      </trkpt>
      <trkpt lat="44.9265" lon="6.58492">
        <ele>1520.39</ele>
        <time>2022-02-09T09:12:19Z</time>
      </trkpt>
      <trkpt lat="44.92645" lon="6.58487">
        <ele>1545.84</ele>
        <time>2022-02-09T09:12:30Z</time>
      </trkpt>
      <trkpt lat="44.92641" lon="6.58483">
        <ele>1545.78</ele>
        <time>2022-02-09T09:12:40Z</time>
      </trkpt>
      <trkpt lat="44.9264" lon="6.5848">
        <ele>1537.42</ele>
        <time>2022-02-09T09:12:50Z</time>
      </trkpt>
      <trkpt lat="44.92639" lon="6.58476">
        <ele>1559.31</ele>
        <time>2022-02-09T09:13:00Z</time>
      </trkpt>
      <trkpt lat="44.92639" lon="6.58471">
        <ele>1553.6</ele>
        <time>2022-02-09T09:13:09Z</time>
      </trkpt>
      <trkpt lat="44.92639" lon="6.58468">
        <ele>1549.94</ele>
        <time>2022-02-09T09:13:19Z</time>
      </trkpt>
      <trkpt lat="44.92638" lon="6.58462">
        <ele>1549.44</ele>
        <time>2022-02-09T09:13:28Z</time>
      </trkpt>
      <trkpt lat="44.92635" lon="6.58455">
        <ele>1550.55</ele>
        <time>2022-02-09T09:13:38Z</time>
      </trkpt>
      <trkpt lat="44.92634" lon="6.58451">
        <ele>1558.34</ele>
        <time>2022-02-09T09:13:47Z</time>
      </trkpt>
      <trkpt lat="44.92634" lon="6.58445">
        <ele>1421.34</ele>
        <time>2022-02-09T09:13:57Z</time>
      </trkpt>
      <trkpt lat="44.92633" lon="6.58438">
        <ele>1419.01</ele>
        <time>2022-02-09T09:14:07Z</time>
      </trkpt>
      <trkpt lat="44.92631" lon="6.58437">
        <ele>1419</ele>
        <time>2022-02-09T09:14:17Z</time>
      </trkpt>
      <trkpt lat="44.92629" lon="6.58439">
        <ele>1419</ele>
        <time>2022-02-09T09:14:27Z</time>
      </trkpt>
      <trkpt lat="44.92628" lon="6.58441">
        <ele>1419</ele>
        <time>2022-02-09T09:14:37Z</time>
      </trkpt>
      <trkpt lat="44.92629" lon="6.58442">
        <ele>1419</ele>
        <time>2022-02-09T09:14:46Z</time>
      </trkpt>
      <trkpt lat="44.92627" lon="6.58443">
        <ele>1463.42</ele>
        <time>2022-02-09T09:14:55Z</time>
      </trkpt>
      <trkpt lat="44.92628" lon="6.58439">
        <ele>1464.7</ele>
        <time>2022-02-09T09:15:05Z</time>
      </trkpt>
      <trkpt lat="44.92628" lon="6.58437">
        <ele>1464.7</ele>
        <time>2022-02-09T09:15:32Z</time>
      </trkpt>
      <trkpt lat="44.92626" lon="6.58437">
        <ele>1464.7</ele>
        <time>2022-02-09T09:15:42Z</time>
      </trkpt>
      <trkpt lat="44.92625" lon="6.58439">
        <ele>1464.7</ele>
        <time>2022-02-09T09:15:51Z</time>
      </trkpt>
      <trkpt lat="44.92626" lon="6.58439">
        <ele>1464.7</ele>
        <time>2022-02-09T09:16:01Z</time>
      </trkpt>
      <trkpt lat="44.9263" lon="6.58438">
        <ele>1464.7</ele>
        <time>2022-02-09T09:16:10Z</time>
      </trkpt>
      <trkpt lat="44.92631" lon="6.58434">
        <ele>1468.08</ele>
        <time>2022-02-09T09:16:20Z</time>
      </trkpt>
      <trkpt lat="44.92628" lon="6.58427">
        <ele>1466.2</ele>
        <time>2022-02-09T09:16:31Z</time>
      </trkpt>
      <trkpt lat="44.92628" lon="6.58424">
        <ele>1466.2</ele>
        <time>2022-02-09T09:16:40Z</time>
      </trkpt>
      <trkpt lat="44.92627" lon="6.58421">
        <ele>1466.2</ele>
        <time>2022-02-09T09:16:51Z</time>
      </trkpt>
      <trkpt lat="44.92626" lon="6.58414">
        <ele>1466.2</ele>
        <time>2022-02-09T09:17:00Z</time>
      </trkpt>
      <trkpt lat="44.92626" lon="6.58406">
        <ele>1466.2</ele>
        <time>2022-02-09T09:17:10Z</time>
      </trkpt>
      <trkpt lat="44.92626" lon="6.58398">
        <ele>1415.21</ele>
        <time>2022-02-09T09:17:20Z</time>
      </trkpt>
      <trkpt lat="44.92627" lon="6.58392">
        <ele>1414.9</ele>
        <time>2022-02-09T09:17:29Z</time>
      </trkpt>
      <trkpt lat="44.92629" lon="6.58385">
        <ele>1414.9</ele>
        <time>2022-02-09T09:17:39Z</time>
      </trkpt>
      <trkpt lat="44.92628" lon="6.58379">
        <ele>1414.9</ele>
        <time>2022-02-09T09:17:49Z</time>
      </trkpt>
      <trkpt lat="44.92626" lon="6.58375">
        <ele>1414.9</ele>
        <time>2022-02-09T09:17:59Z</time>
      </trkpt>
      <trkpt lat="44.92623" lon="6.58377">
        <ele>1414.9</ele>
        <time>2022-02-09T09:18:08Z</time>
      </trkpt>
      <trkpt lat="44.92621" lon="6.58382">
        <ele>1414.9</ele>
        <time>2022-02-09T09:18:18Z</time>
      </trkpt>
      <trkpt lat="44.9262" lon="6.58385">
        <ele>1418.47</ele>
        <time>2022-02-09T09:18:28Z</time>
      </trkpt>
      <trkpt lat="44.92619" lon="6.58385">
        <ele>1419</ele>
        <time>2022-02-09T09:18:37Z</time>
      </trkpt>
      <trkpt lat="44.92614" lon="6.58378">
        <ele>1419</ele>
        <time>2022-02-09T09:18:54Z</time>
      </trkpt>
      <trkpt lat="44.92611" lon="6.58376">
        <ele>1419</ele>
        <time>2022-02-09T09:19:03Z</time>
      </trkpt>
      <trkpt lat="44.92615" lon="6.58377">
        <ele>1419</ele>
        <time>2022-02-09T09:19:13Z</time>
      </trkpt>
      <trkpt lat="44.92606" lon="6.58369">
        <ele>1419</ele>
        <time>2022-02-09T09:19:22Z</time>
      </trkpt>
      <trkpt lat="44.92603" lon="6.58364">
        <ele>1419</ele>
        <time>2022-02-09T09:19:32Z</time>
      </trkpt>
      <trkpt lat="44.92602" lon="6.58363">
        <ele>1419</ele>
        <time>2022-02-09T09:19:43Z</time>
      </trkpt>
      <trkpt lat="44.92601" lon="6.58362">
        <ele>1419</ele>
        <time>2022-02-09T09:19:56Z</time>
      </trkpt>
      <trkpt lat="44.92599" lon="6.58362">
        <ele>1855.61</ele>
        <time>2022-02-09T09:20:06Z</time>
      </trkpt>
      <trkpt lat="44.92599" lon="6.58363">
        <ele>1859.74</ele>
        <time>2022-02-09T09:20:16Z</time>
      </trkpt>
      <trkpt lat="44.92597" lon="6.58363">
        <ele>1861.53</ele>
        <time>2022-02-09T09:20:25Z</time>
      </trkpt>
      <trkpt lat="44.92594" lon="6.58361">
        <ele>1860.17</ele>
        <time>2022-02-09T09:20:35Z</time>
      </trkpt>
      <trkpt lat="44.9259" lon="6.58358">
        <ele>1861.76</ele>
        <time>2022-02-09T09:20:45Z</time>
      </trkpt>
      <trkpt lat="44.92585" lon="6.58357">
        <ele>1860.76</ele>
        <time>2022-02-09T09:20:55Z</time>
      </trkpt>
      <trkpt lat="44.92585" lon="6.58354">
        <ele>1858.7</ele>
        <time>2022-02-09T09:21:05Z</time>
      </trkpt>
      <trkpt lat="44.92582" lon="6.5835">
        <ele>1860.18</ele>
        <time>2022-02-09T09:21:15Z</time>
      </trkpt>
      <trkpt lat="44.9258" lon="6.58346">
        <ele>1859.16</ele>
        <time>2022-02-09T09:21:26Z</time>
      </trkpt>
      <trkpt lat="44.9258" lon="6.58343">
        <ele>1648.76</ele>
        <time>2022-02-09T09:21:36Z</time>
      </trkpt>
      <trkpt lat="44.92582" lon="6.58343">
        <ele>1550.04</ele>
        <time>2022-02-09T09:21:46Z</time>
      </trkpt>
      <trkpt lat="44.92582" lon="6.58338">
        <ele>1549.26</ele>
        <time>2022-02-09T09:21:56Z</time>
      </trkpt>
      <trkpt lat="44.9258" lon="6.58333">
        <ele>1576.63</ele>
        <time>2022-02-09T09:22:06Z</time>
      </trkpt>
      <trkpt lat="44.9258" lon="6.58331">
        <ele>1596.39</ele>
        <time>2022-02-09T09:22:16Z</time>
      </trkpt>
      <trkpt lat="44.92581" lon="6.58328">
        <ele>1600.84</ele>
        <time>2022-02-09T09:22:26Z</time>
      </trkpt>
      <trkpt lat="44.92581" lon="6.58326">
        <ele>1601.34</ele>
        <time>2022-02-09T09:22:36Z</time>
      </trkpt>
      <trkpt lat="44.92577" lon="6.58323">
        <ele>1607.9</ele>
        <time>2022-02-09T09:22:46Z</time>
      </trkpt>
      <trkpt lat="44.92579" lon="6.58318">
        <ele>1603.07</ele>
        <time>2022-02-09T09:22:56Z</time>
      </trkpt>
      <trkpt lat="44.92579" lon="6.58312">
        <ele>1610.3</ele>
        <time>2022-02-09T09:23:06Z</time>
      </trkpt>
      <trkpt lat="44.92579" lon="6.58308">
        <ele>1612.57</ele>
        <time>2022-02-09T09:23:16Z</time>
      </trkpt>
      <trkpt lat="44.92581" lon="6.58305">
        <ele>1443.75</ele>
        <time>2022-02-09T09:23:26Z</time>
      </trkpt>
      <trkpt lat="44.92578" lon="6.58297">
        <ele>1460.23</ele>
        <time>2022-02-09T09:23:36Z</time>
      </trkpt>
      <trkpt lat="44.92574" lon="6.5829">
        <ele>1466.16</ele>
        <time>2022-02-09T09:23:46Z</time>
      </trkpt>
      <trkpt lat="44.9257" lon="6.58286">
        <ele>1466.2</ele>
        <time>2022-02-09T09:23:56Z</time>
      </trkpt>
      <trkpt lat="44.92567" lon="6.58282">
        <ele>1466.2</ele>
        <time>2022-02-09T09:24:06Z</time>
      </trkpt>
      <trkpt lat="44.9256" lon="6.58275">
        <ele>1466.2</ele>
        <time>2022-02-09T09:24:16Z</time>
      </trkpt>
      <trkpt lat="44.92554" lon="6.5827">
        <ele>1466.2</ele>
        <time>2022-02-09T09:24:26Z</time>
      </trkpt>
      <trkpt lat="44.92549" lon="6.58266">
        <ele>1466.2</ele>
        <time>2022-02-09T09:24:36Z</time>
      </trkpt>
      <trkpt lat="44.92547" lon="6.58263">
        <ele>1466.2</ele>
        <time>2022-02-09T09:24:46Z</time>
      </trkpt>
      <trkpt lat="44.92543" lon="6.58261">
        <ele>1466.2</ele>
        <time>2022-02-09T09:24:56Z</time>
      </trkpt>
      <trkpt lat="44.9254" lon="6.58261">
        <ele>1618.61</ele>
        <time>2022-02-09T09:25:06Z</time>
      </trkpt>
      <trkpt lat="44.92539" lon="6.5826">
        <ele>1558.41</ele>
        <time>2022-02-09T09:25:16Z</time>
      </trkpt>
      <trkpt lat="44.92535" lon="6.58259">
        <ele>1561.65</ele>
        <time>2022-02-09T09:25:26Z</time>
      </trkpt>
      <trkpt lat="44.92532" lon="6.58256">
        <ele>1591.06</ele>
        <time>2022-02-09T09:25:36Z</time>
      </trkpt>
      <trkpt lat="44.92531" lon="6.58252">
        <ele>1556.21</ele>
        <time>2022-02-09T09:25:46Z</time>
      </trkpt>
      <trkpt lat="44.9253" lon="6.58252">
        <ele>1612.24</ele>
        <time>2022-02-09T09:25:57Z</time>
      </trkpt>
      <trkpt lat="44.9253" lon="6.58247">
        <ele>1614.44</ele>
        <time>2022-02-09T09:26:06Z</time>
      </trkpt>
      <trkpt lat="44.92527" lon="6.58245">
        <ele>1625.61</ele>
        <time>2022-02-09T09:26:16Z</time>
      </trkpt>
      <trkpt lat="44.92526" lon="6.58245">
        <ele>1614.91</ele>
        <time>2022-02-09T09:26:25Z</time>
      </trkpt>
      <trkpt lat="44.92523" lon="6.58243">
        <ele>1567.31</ele>
        <time>2022-02-09T09:26:35Z</time>
      </trkpt>
      <trkpt lat="44.92519" lon="6.58241">
        <ele>1586.04</ele>
        <time>2022-02-09T09:26:45Z</time>
      </trkpt>
      <trkpt lat="44.92516" lon="6.58242">
        <ele>1628.01</ele>
        <time>2022-02-09T09:26:54Z</time>
      </trkpt>
      <trkpt lat="44.92513" lon="6.58242">
        <ele>1621.54</ele>
        <time>2022-02-09T09:27:04Z</time>
      </trkpt>
      <trkpt lat="44.92508" lon="6.58244">
        <ele>1539.32</ele>
        <time>2022-02-09T09:27:15Z</time>
      </trkpt>
      <trkpt lat="44.92504" lon="6.58245">
        <ele>1419.26</ele>
        <time>2022-02-09T09:27:24Z</time>
      </trkpt>
      <trkpt lat="44.92501" lon="6.58247">
        <ele>1419</ele>
        <time>2022-02-09T09:27:34Z</time>
      </trkpt>
      <trkpt lat="44.92498" lon="6.58249">
        <ele>1419</ele>
        <time>2022-02-09T09:27:45Z</time>
      </trkpt>
      <trkpt lat="44.92496" lon="6.58248">
        <ele>1419</ele>
        <time>2022-02-09T09:27:54Z</time>
      </trkpt>
      <trkpt lat="44.92495" lon="6.58243">
        <ele>1419</ele>
        <time>2022-02-09T09:28:04Z</time>
      </trkpt>
      <trkpt lat="44.92494" lon="6.5824">
        <ele>1419</ele>
        <time>2022-02-09T09:28:14Z</time>
      </trkpt>
      <trkpt lat="44.92494" lon="6.58239">
        <ele>1419</ele>
        <time>2022-02-09T09:28:24Z</time>
      </trkpt>
      <trkpt lat="44.92493" lon="6.58238">
        <ele>1419</ele>
        <time>2022-02-09T09:28:36Z</time>
      </trkpt>
      <trkpt lat="44.9249" lon="6.58241">
        <ele>1419</ele>
        <time>2022-02-09T09:28:47Z</time>
      </trkpt>
      <trkpt lat="44.92488" lon="6.58243">
        <ele>1419</ele>
        <time>2022-02-09T09:28:56Z</time>
      </trkpt>
      <trkpt lat="44.92489" lon="6.5824">
        <ele>1419</ele>
        <time>2022-02-09T09:29:06Z</time>
      </trkpt>
      <trkpt lat="44.92487" lon="6.58239">
        <ele>1419</ele>
        <time>2022-02-09T09:29:16Z</time>
      </trkpt>
      <trkpt lat="44.92484" lon="6.58242">
        <ele>1419</ele>
        <time>2022-02-09T09:29:26Z</time>
      </trkpt>
      <trkpt lat="44.92483" lon="6.58246">
        <ele>1889.92</ele>
        <time>2022-02-09T09:29:36Z</time>
      </trkpt>
      <trkpt lat="44.92481" lon="6.58248">
        <ele>1900.66</ele>
        <time>2022-02-09T09:29:45Z</time>
      </trkpt>
      <trkpt lat="44.9248" lon="6.5825">
        <ele>1901.97</ele>
        <time>2022-02-09T09:29:55Z</time>
      </trkpt>
      <trkpt lat="44.92478" lon="6.58252">
        <ele>1904.11</ele>
        <time>2022-02-09T09:30:05Z</time>
      </trkpt>
      <trkpt lat="44.92476" lon="6.58253">
        <ele>1904.85</ele>
        <time>2022-02-09T09:30:15Z</time>
      </trkpt>
      <trkpt lat="44.92474" lon="6.58253">
        <ele>1905.13</ele>
        <time>2022-02-09T09:30:24Z</time>
      </trkpt>
      <trkpt lat="44.92471" lon="6.5825">
        <ele>1906.65</ele>
        <time>2022-02-09T09:30:33Z</time>
      </trkpt>
      <trkpt lat="44.92468" lon="6.58245">
        <ele>1906.09</ele>
        <time>2022-02-09T09:30:43Z</time>
      </trkpt>
      <trkpt lat="44.92466" lon="6.58242">
        <ele>1905.08</ele>
        <time>2022-02-09T09:30:52Z</time>
      </trkpt>
      <trkpt lat="44.92463" lon="6.58235">
        <ele>1904.78</ele>
        <time>2022-02-09T09:31:02Z</time>
      </trkpt>
      <trkpt lat="44.92462" lon="6.58235">
        <ele>1905.28</ele>
        <time>2022-02-09T09:31:13Z</time>
      </trkpt>
      <trkpt lat="44.92459" lon="6.58234">
        <ele>1906.19</ele>
        <time>2022-02-09T09:31:22Z</time>
      </trkpt>
      <trkpt lat="44.92454" lon="6.58236">
        <ele>1906.74</ele>
        <time>2022-02-09T09:31:32Z</time>
      </trkpt>
      <trkpt lat="44.9245" lon="6.5824">
        <ele>1907.04</ele>
        <time>2022-02-09T09:31:42Z</time>
      </trkpt>
      <trkpt lat="44.92448" lon="6.58246">
        <ele>1908.08</ele>
        <time>2022-02-09T09:31:52Z</time>
      </trkpt>
      <trkpt lat="44.92445" lon="6.58247">
        <ele>1908.44</ele>
        <time>2022-02-09T09:32:02Z</time>
      </trkpt>
      <trkpt lat="44.9244" lon="6.58242">
        <ele>1909.41</ele>
        <time>2022-02-09T09:32:12Z</time>
      </trkpt>
      <trkpt lat="44.92438" lon="6.58236">
        <ele>1907.14</ele>
        <time>2022-02-09T09:32:22Z</time>
      </trkpt>
      <trkpt lat="44.92436" lon="6.58232">
        <ele>1908.02</ele>
        <time>2022-02-09T09:32:32Z</time>
      </trkpt>
      <trkpt lat="44.92434" lon="6.58229">
        <ele>1905.91</ele>
        <time>2022-02-09T09:32:42Z</time>
      </trkpt>
      <trkpt lat="44.92433" lon="6.58223">
        <ele>1906.99</ele>
        <time>2022-02-09T09:32:51Z</time>
      </trkpt>
      <trkpt lat="44.92433" lon="6.58215">
        <ele>1907.4</ele>
        <time>2022-02-09T09:33:00Z</time>
      </trkpt>
      <trkpt lat="44.92434" lon="6.58211">
        <ele>1907.91</ele>
        <time>2022-02-09T09:33:10Z</time>
      </trkpt>
      <trkpt lat="44.9243" lon="6.58208">
        <ele>1908.18</ele>
        <time>2022-02-09T09:33:19Z</time>
      </trkpt>
      <trkpt lat="44.92428" lon="6.58199">
        <ele>1908.1</ele>
        <time>2022-02-09T09:33:29Z</time>
      </trkpt>
      <trkpt lat="44.92427" lon="6.58195">
        <ele>1934.11</ele>
        <time>2022-02-09T09:34:16Z</time>
      </trkpt>
      <trkpt lat="44.92431" lon="6.58178">
        <ele>1913.85</ele>
        <time>2022-02-09T09:34:25Z</time>
      </trkpt>
      <trkpt lat="44.92431" lon="6.58168">
        <ele>1969.51</ele>
        <time>2022-02-09T09:34:34Z</time>
      </trkpt>
      <trkpt lat="44.92431" lon="6.58162">
        <ele>1920.45</ele>
        <time>2022-02-09T09:34:44Z</time>
      </trkpt>
      <trkpt lat="44.92431" lon="6.58155">
        <ele>1913.99</ele>
        <time>2022-02-09T09:34:53Z</time>
      </trkpt>
      <trkpt lat="44.92429" lon="6.58151">
        <ele>1913.98</ele>
        <time>2022-02-09T09:35:02Z</time>
      </trkpt>
      <trkpt lat="44.92429" lon="6.5815">
        <ele>1914.45</ele>
        <time>2022-02-09T09:35:14Z</time>
      </trkpt>
      <trkpt lat="44.92427" lon="6.5814">
        <ele>1643.89</ele>
        <time>2022-02-09T09:35:24Z</time>
      </trkpt>
      <trkpt lat="44.92427" lon="6.58137">
        <ele>1652.18</ele>
        <time>2022-02-09T09:35:34Z</time>
      </trkpt>
      <trkpt lat="44.92422" lon="6.58132">
        <ele>1619.61</ele>
        <time>2022-02-09T09:35:43Z</time>
      </trkpt>
      <trkpt lat="44.92417" lon="6.58129">
        <ele>1653.44</ele>
        <time>2022-02-09T09:35:53Z</time>
      </trkpt>
      <trkpt lat="44.92413" lon="6.58126">
        <ele>1652.52</ele>
        <time>2022-02-09T09:36:03Z</time>
      </trkpt>
      <trkpt lat="44.92412" lon="6.58119">
        <ele>1633.45</ele>
        <time>2022-02-09T09:36:13Z</time>
      </trkpt>
      <trkpt lat="44.9241" lon="6.58114">
        <ele>1633.21</ele>
        <time>2022-02-09T09:36:22Z</time>
      </trkpt>
      <trkpt lat="44.92407" lon="6.58109">
        <ele>1659.81</ele>
        <time>2022-02-09T09:36:31Z</time>
      </trkpt>
      <trkpt lat="44.92403" lon="6.58102">
        <ele>1650.13</ele>
        <time>2022-02-09T09:36:41Z</time>
      </trkpt>
      <trkpt lat="44.92398" lon="6.58098">
        <ele>1662.61</ele>
        <time>2022-02-09T09:36:50Z</time>
      </trkpt>
      <trkpt lat="44.92394" lon="6.58096">
        <ele>1644.26</ele>
        <time>2022-02-09T09:37:00Z</time>
      </trkpt>
      <trkpt lat="44.92391" lon="6.58093">
        <ele>1649.05</ele>
        <time>2022-02-09T09:37:10Z</time>
      </trkpt>
      <trkpt lat="44.92389" lon="6.58089">
        <ele>1641.23</ele>
        <time>2022-02-09T09:37:20Z</time>
      </trkpt>
      <trkpt lat="44.92391" lon="6.58083">
        <ele>1635.51</ele>
        <time>2022-02-09T09:37:29Z</time>
      </trkpt>
      <trkpt lat="44.92391" lon="6.58073">
        <ele>1651.46</ele>
        <time>2022-02-09T09:37:39Z</time>
      </trkpt>
      <trkpt lat="44.92389" lon="6.5807">
        <ele>1638.22</ele>
        <time>2022-02-09T09:37:48Z</time>
      </trkpt>
      <trkpt lat="44.92387" lon="6.58065">
        <ele>1680.2</ele>
        <time>2022-02-09T09:37:58Z</time>
      </trkpt>
      <trkpt lat="44.92386" lon="6.5806">
        <ele>1683.33</ele>
        <time>2022-02-09T09:38:08Z</time>
      </trkpt>
      <trkpt lat="44.92384" lon="6.58064">
        <ele>1683.95</ele>
        <time>2022-02-09T09:38:18Z</time>
      </trkpt>
      <trkpt lat="44.92384" lon="6.58073">
        <ele>1679.2</ele>
        <time>2022-02-09T09:38:27Z</time>
      </trkpt>
      <trkpt lat="44.92383" lon="6.58078">
        <ele>1692.11</ele>
        <time>2022-02-09T09:38:37Z</time>
      </trkpt>
      <trkpt lat="44.92379" lon="6.58078">
        <ele>1693.31</ele>
        <time>2022-02-09T09:38:47Z</time>
      </trkpt>
      <trkpt lat="44.92375" lon="6.58079">
        <ele>1696.97</ele>
        <time>2022-02-09T09:38:56Z</time>
      </trkpt>
      <trkpt lat="44.92372" lon="6.58079">
        <ele>1653.8</ele>
        <time>2022-02-09T09:39:05Z</time>
      </trkpt>
      <trkpt lat="44.9237" lon="6.58077">
        <ele>1666.58</ele>
        <time>2022-02-09T09:39:15Z</time>
      </trkpt>
      <trkpt lat="44.92367" lon="6.58073">
        <ele>1892.45</ele>
        <time>2022-02-09T09:39:25Z</time>
      </trkpt>
      <trkpt lat="44.92366" lon="6.58071">
        <ele>1675.82</ele>
        <time>2022-02-09T09:39:34Z</time>
      </trkpt>
      <trkpt lat="44.9237" lon="6.58068">
        <ele>1670.04</ele>
        <time>2022-02-09T09:39:44Z</time>
      </trkpt>
      <trkpt lat="44.92374" lon="6.58064">
        <ele>1655.51</ele>
        <time>2022-02-09T09:39:54Z</time>
      </trkpt>
      <trkpt lat="44.92376" lon="6.58061">
        <ele>1675.69</ele>
        <time>2022-02-09T09:40:03Z</time>
      </trkpt>
      <trkpt lat="44.92378" lon="6.58057">
        <ele>1914.15</ele>
        <time>2022-02-09T09:40:12Z</time>
      </trkpt>
      <trkpt lat="44.92376" lon="6.58055">
        <ele>1721.09</ele>
        <time>2022-02-09T09:40:22Z</time>
      </trkpt>
      <trkpt lat="44.92375" lon="6.58056">
        <ele>1707.75</ele>
        <time>2022-02-09T09:40:32Z</time>
      </trkpt>
      <trkpt lat="44.92375" lon="6.58055">
        <ele>1691.4</ele>
        <time>2022-02-09T09:40:44Z</time>
      </trkpt>
      <trkpt lat="44.92373" lon="6.58052">
        <ele>1692.01</ele>
        <time>2022-02-09T09:40:54Z</time>
      </trkpt>
      <trkpt lat="44.92372" lon="6.58047">
        <ele>1695.39</ele>
        <time>2022-02-09T09:41:03Z</time>
      </trkpt>
      <trkpt lat="44.92372" lon="6.58045">
        <ele>1694.66</ele>
        <time>2022-02-09T09:41:13Z</time>
      </trkpt>
      <trkpt lat="44.92372" lon="6.58043">
        <ele>1700.62</ele>
        <time>2022-02-09T09:41:24Z</time>
      </trkpt>
      <trkpt lat="44.92371" lon="6.58041">
        <ele>1703.09</ele>
        <time>2022-02-09T09:41:33Z</time>
      </trkpt>
      <trkpt lat="44.92365" lon="6.58035">
        <ele>1702.37</ele>
        <time>2022-02-09T09:41:42Z</time>
      </trkpt>
      <trkpt lat="44.92358" lon="6.58034">
        <ele>1661.24</ele>
        <time>2022-02-09T09:41:52Z</time>
      </trkpt>
      <trkpt lat="44.9235" lon="6.58031">
        <ele>1678.01</ele>
        <time>2022-02-09T09:42:01Z</time>
      </trkpt>
      <trkpt lat="44.92342" lon="6.58028">
        <ele>1656.17</ele>
        <time>2022-02-09T09:42:10Z</time>
      </trkpt>
      <trkpt lat="44.92338" lon="6.58024">
        <ele>1655.48</ele>
        <time>2022-02-09T09:42:20Z</time>
      </trkpt>
      <trkpt lat="44.92335" lon="6.58016">
        <ele>1691.15</ele>
        <time>2022-02-09T09:42:29Z</time>
      </trkpt>
      <trkpt lat="44.92336" lon="6.58012">
        <ele>1691.47</ele>
        <time>2022-02-09T09:42:38Z</time>
      </trkpt>
      <trkpt lat="44.92335" lon="6.58006">
        <ele>1697.27</ele>
        <time>2022-02-09T09:42:48Z</time>
      </trkpt>
      <trkpt lat="44.92337" lon="6.57999">
        <ele>1710.19</ele>
        <time>2022-02-09T09:42:58Z</time>
      </trkpt>
      <trkpt lat="44.92338" lon="6.57995">
        <ele>1706.4</ele>
        <time>2022-02-09T09:43:07Z</time>
      </trkpt>
      <trkpt lat="44.92337" lon="6.57991">
        <ele>1707.45</ele>
        <time>2022-02-09T09:43:17Z</time>
      </trkpt>
      <trkpt lat="44.92336" lon="6.5799">
        <ele>1707.44</ele>
        <time>2022-02-09T09:43:26Z</time>
      </trkpt>
      <trkpt lat="44.92336" lon="6.57989">
        <ele>1713.41</ele>
        <time>2022-02-09T09:43:44Z</time>
      </trkpt>
      <trkpt lat="44.92337" lon="6.57988">
        <ele>1708.4</ele>
        <time>2022-02-09T09:43:54Z</time>
      </trkpt>
      <trkpt lat="44.92337" lon="6.57986">
        <ele>1707.35</ele>
        <time>2022-02-09T09:44:04Z</time>
      </trkpt>
      <trkpt lat="44.92338" lon="6.57987">
        <ele>1706.91</ele>
        <time>2022-02-09T09:44:42Z</time>
      </trkpt>
      <trkpt lat="44.92338" lon="6.57988">
        <ele>1698.95</ele>
        <time>2022-02-09T09:45:06Z</time>
      </trkpt>
      <trkpt lat="44.92338" lon="6.57987">
        <ele>1708.71</ele>
        <time>2022-02-09T09:45:16Z</time>
      </trkpt>
      <trkpt lat="44.92338" lon="6.57989">
        <ele>1709.56</ele>
        <time>2022-02-09T09:45:26Z</time>
      </trkpt>
      <trkpt lat="44.92337" lon="6.57989">
        <ele>1701.71</ele>
        <time>2022-02-09T09:47:04Z</time>
      </trkpt>
      <trkpt lat="44.92336" lon="6.57989">
        <ele>1709.5</ele>
        <time>2022-02-09T09:47:19Z</time>
      </trkpt>
      <trkpt lat="44.92335" lon="6.5799">
        <ele>1700.16</ele>
        <time>2022-02-09T09:47:49Z</time>
      </trkpt>
      <trkpt lat="44.92335" lon="6.57991">
        <ele>1703.09</ele>
        <time>2022-02-09T09:48:19Z</time>
      </trkpt>
      <trkpt lat="44.92336" lon="6.57992">
        <ele>1702.49</ele>
        <time>2022-02-09T09:49:06Z</time>
      </trkpt>
      <trkpt lat="44.92337" lon="6.57993">
        <ele>1695.65</ele>
        <time>2022-02-09T09:49:16Z</time>
      </trkpt>
      <trkpt lat="44.92338" lon="6.57991">
        <ele>1691.27</ele>
        <time>2022-02-09T09:49:26Z</time>
      </trkpt>
      <trkpt lat="44.92337" lon="6.5799">
        <ele>1702.44</ele>
        <time>2022-02-09T09:49:39Z</time>
      </trkpt>
      <trkpt lat="44.92338" lon="6.57989">
        <ele>1713.26</ele>
        <time>2022-02-09T09:49:49Z</time>
      </trkpt>
      <trkpt lat="44.92339" lon="6.57989">
        <ele>1714.71</ele>
        <time>2022-02-09T09:50:06Z</time>
      </trkpt>
      <trkpt lat="44.9234" lon="6.5799">
        <ele>1709.21</ele>
        <time>2022-02-09T09:50:26Z</time>
      </trkpt>
      <trkpt lat="44.92341" lon="6.5799">
        <ele>1695.64</ele>
        <time>2022-02-09T09:50:47Z</time>
      </trkpt>
      <trkpt lat="44.92342" lon="6.57989">
        <ele>1710.59</ele>
        <time>2022-02-09T09:50:57Z</time>
      </trkpt>
      <trkpt lat="44.92342" lon="6.5799">
        <ele>1708.24</ele>
        <time>2022-02-09T09:51:07Z</time>
      </trkpt>
      <trkpt lat="44.9234" lon="6.5799">
        <ele>1693.39</ele>
        <time>2022-02-09T09:51:17Z</time>
      </trkpt>
      <trkpt lat="44.92339" lon="6.57988">
        <ele>1695.83</ele>
        <time>2022-02-09T09:51:27Z</time>
      </trkpt>
      <trkpt lat="44.9234" lon="6.57987">
        <ele>1695.51</ele>
        <time>2022-02-09T09:51:42Z</time>
      </trkpt>
      <trkpt lat="44.92339" lon="6.57986">
        <ele>1718.97</ele>
        <time>2022-02-09T09:52:20Z</time>
      </trkpt>
      <trkpt lat="44.92338" lon="6.57985">
        <ele>1719.1</ele>
        <time>2022-02-09T09:52:35Z</time>
      </trkpt>
      <trkpt lat="44.92338" lon="6.57984">
        <ele>1718.98</ele>
        <time>2022-02-09T09:53:49Z</time>
      </trkpt>
      <trkpt lat="44.92338" lon="6.57986">
        <ele>1719.43</ele>
        <time>2022-02-09T09:54:09Z</time>
      </trkpt>
      <trkpt lat="44.92336" lon="6.57987">
        <ele>1718.98</ele>
        <time>2022-02-09T09:54:20Z</time>
      </trkpt>
      <trkpt lat="44.9233" lon="6.57989">
        <ele>1717.43</ele>
        <time>2022-02-09T09:54:29Z</time>
      </trkpt>
      <trkpt lat="44.92324" lon="6.57991">
        <ele>1718.17</ele>
        <time>2022-02-09T09:54:39Z</time>
      </trkpt>
      <trkpt lat="44.92322" lon="6.57997">
        <ele>1719.76</ele>
        <time>2022-02-09T09:54:49Z</time>
      </trkpt>
      <trkpt lat="44.92318" lon="6.58">
        <ele>1720.31</ele>
        <time>2022-02-09T09:54:59Z</time>
      </trkpt>
      <trkpt lat="44.92315" lon="6.58003">
        <ele>1719.74</ele>
        <time>2022-02-09T09:55:08Z</time>
      </trkpt>
      <trkpt lat="44.92311" lon="6.58008">
        <ele>1720.66</ele>
        <time>2022-02-09T09:55:18Z</time>
      </trkpt>
      <trkpt lat="44.92308" lon="6.58015">
        <ele>1720.82</ele>
        <time>2022-02-09T09:55:27Z</time>
      </trkpt>
      <trkpt lat="44.92308" lon="6.58022">
        <ele>1724.64</ele>
        <time>2022-02-09T09:55:37Z</time>
      </trkpt>
      <trkpt lat="44.9231" lon="6.58029">
        <ele>1725.04</ele>
        <time>2022-02-09T09:55:47Z</time>
      </trkpt>
      <trkpt lat="44.92308" lon="6.58032">
        <ele>1725.44</ele>
        <time>2022-02-09T09:55:56Z</time>
      </trkpt>
      <trkpt lat="44.92303" lon="6.58033">
        <ele>1728.41</ele>
        <time>2022-02-09T09:56:06Z</time>
      </trkpt>
      <trkpt lat="44.92305" lon="6.58028">
        <ele>1730.28</ele>
        <time>2022-02-09T09:56:16Z</time>
      </trkpt>
      <trkpt lat="44.92306" lon="6.5802">
        <ele>1728.19</ele>
        <time>2022-02-09T09:56:25Z</time>
      </trkpt>
      <trkpt lat="44.92307" lon="6.58015">
        <ele>1731.54</ele>
        <time>2022-02-09T09:56:35Z</time>
      </trkpt>
      <trkpt lat="44.92308" lon="6.58012">
        <ele>1731.76</ele>
        <time>2022-02-09T09:56:44Z</time>
      </trkpt>
      <trkpt lat="44.92308" lon="6.58008">
        <ele>1732.7</ele>
        <time>2022-02-09T09:56:54Z</time>
      </trkpt>
      <trkpt lat="44.92307" lon="6.58004">
        <ele>1734.95</ele>
        <time>2022-02-09T09:57:04Z</time>
      </trkpt>
      <trkpt lat="44.92305" lon="6.57997">
        <ele>1735.53</ele>
        <time>2022-02-09T09:57:14Z</time>
      </trkpt>
      <trkpt lat="44.92302" lon="6.5799">
        <ele>1734.18</ele>
        <time>2022-02-09T09:57:23Z</time>
      </trkpt>
      <trkpt lat="44.92299" lon="6.57986">
        <ele>1736.99</ele>
        <time>2022-02-09T09:57:33Z</time>
      </trkpt>
      <trkpt lat="44.923" lon="6.57984">
        <ele>1712.87</ele>
        <time>2022-02-09T09:57:42Z</time>
      </trkpt>
      <trkpt lat="44.92298" lon="6.57982">
        <ele>1637.01</ele>
        <time>2022-02-09T09:57:51Z</time>
      </trkpt>
      <trkpt lat="44.92297" lon="6.57981">
        <ele>1678.46</ele>
        <time>2022-02-09T09:58:01Z</time>
      </trkpt>
      <trkpt lat="44.92296" lon="6.57979">
        <ele>1679.29</ele>
        <time>2022-02-09T09:58:11Z</time>
      </trkpt>
      <trkpt lat="44.92291" lon="6.57973">
        <ele>1733.82</ele>
        <time>2022-02-09T09:58:20Z</time>
      </trkpt>
      <trkpt lat="44.92288" lon="6.57969">
        <ele>1636.55</ele>
        <time>2022-02-09T09:58:30Z</time>
      </trkpt>
      <trkpt lat="44.92286" lon="6.57965">
        <ele>1632.1</ele>
        <time>2022-02-09T09:58:40Z</time>
      </trkpt>
      <trkpt lat="44.92284" lon="6.57959">
        <ele>1632.88</ele>
        <time>2022-02-09T09:58:49Z</time>
      </trkpt>
      <trkpt lat="44.92282" lon="6.57954">
        <ele>1690.15</ele>
        <time>2022-02-09T09:58:59Z</time>
      </trkpt>
      <trkpt lat="44.9228" lon="6.5795">
        <ele>1710.18</ele>
        <time>2022-02-09T09:59:08Z</time>
      </trkpt>
      <trkpt lat="44.92278" lon="6.57945">
        <ele>1683.68</ele>
        <time>2022-02-09T09:59:18Z</time>
      </trkpt>
      <trkpt lat="44.92274" lon="6.57944">
        <ele>1674.49</ele>
        <time>2022-02-09T09:59:28Z</time>
      </trkpt>
      <trkpt lat="44.92274" lon="6.57949">
        <ele>1659.04</ele>
        <time>2022-02-09T09:59:38Z</time>
      </trkpt>
      <trkpt lat="44.92274" lon="6.5795">
        <ele>1605.2</ele>
        <time>2022-02-09T09:59:54Z</time>
      </trkpt>
      <trkpt lat="44.92273" lon="6.57957">
        <ele>1606.84</ele>
        <time>2022-02-09T10:00:04Z</time>
      </trkpt>
      <trkpt lat="44.92272" lon="6.57959">
        <ele>1667.88</ele>
        <time>2022-02-09T10:00:13Z</time>
      </trkpt>
      <trkpt lat="44.92273" lon="6.57962">
        <ele>1636.98</ele>
        <time>2022-02-09T10:00:23Z</time>
      </trkpt>
      <trkpt lat="44.9227" lon="6.57962">
        <ele>1623.08</ele>
        <time>2022-02-09T10:00:33Z</time>
      </trkpt>
      <trkpt lat="44.92269" lon="6.57967">
        <ele>1683.54</ele>
        <time>2022-02-09T10:00:43Z</time>
      </trkpt>
      <trkpt lat="44.9227" lon="6.57974">
        <ele>1685.4</ele>
        <time>2022-02-09T10:00:52Z</time>
      </trkpt>
      <trkpt lat="44.92272" lon="6.57981">
        <ele>1674.62</ele>
        <time>2022-02-09T10:01:02Z</time>
      </trkpt>
      <trkpt lat="44.92271" lon="6.57988">
        <ele>1996.07</ele>
        <time>2022-02-09T10:01:11Z</time>
      </trkpt>
      <trkpt lat="44.92269" lon="6.57995">
        <ele>2023.45</ele>
        <time>2022-02-09T10:01:21Z</time>
      </trkpt>
      <trkpt lat="44.92264" lon="6.57995">
        <ele>1990.01</ele>
        <time>2022-02-09T10:01:31Z</time>
      </trkpt>
      <trkpt lat="44.92262" lon="6.57995">
        <ele>1974.57</ele>
        <time>2022-02-09T10:01:40Z</time>
      </trkpt>
      <trkpt lat="44.92259" lon="6.57993">
        <ele>1974.64</ele>
        <time>2022-02-09T10:01:50Z</time>
      </trkpt>
      <trkpt lat="44.92258" lon="6.57989">
        <ele>1434.55</ele>
        <time>2022-02-09T10:02:00Z</time>
      </trkpt>
      <trkpt lat="44.92256" lon="6.57985">
        <ele>1419.03</ele>
        <time>2022-02-09T10:02:10Z</time>
      </trkpt>
      <trkpt lat="44.92253" lon="6.57983">
        <ele>1419</ele>
        <time>2022-02-09T10:02:20Z</time>
      </trkpt>
      <trkpt lat="44.9225" lon="6.57983">
        <ele>1419</ele>
        <time>2022-02-09T10:02:29Z</time>
      </trkpt>
      <trkpt lat="44.92249" lon="6.57984">
        <ele>1419</ele>
        <time>2022-02-09T10:02:43Z</time>
      </trkpt>
      <trkpt lat="44.92248" lon="6.5798">
        <ele>1419</ele>
        <time>2022-02-09T10:02:53Z</time>
      </trkpt>
      <trkpt lat="44.92246" lon="6.57975">
        <ele>1419</ele>
        <time>2022-02-09T10:03:03Z</time>
      </trkpt>
      <trkpt lat="44.92244" lon="6.57974">
        <ele>1419</ele>
        <time>2022-02-09T10:03:16Z</time>
      </trkpt>
      <trkpt lat="44.92243" lon="6.5797">
        <ele>1419</ele>
        <time>2022-02-09T10:03:25Z</time>
      </trkpt>
      <trkpt lat="44.9224" lon="6.57968">
        <ele>1419</ele>
        <time>2022-02-09T10:03:35Z</time>
      </trkpt>
      <trkpt lat="44.92238" lon="6.57961">
        <ele>1419</ele>
        <time>2022-02-09T10:03:44Z</time>
      </trkpt>
      <trkpt lat="44.92235" lon="6.57955">
        <ele>1419</ele>
        <time>2022-02-09T10:03:54Z</time>
      </trkpt>
      <trkpt lat="44.92234" lon="6.57947">
        <ele>1419</ele>
        <time>2022-02-09T10:04:04Z</time>
      </trkpt>
      <trkpt lat="44.92234" lon="6.57945">
        <ele>1419</ele>
        <time>2022-02-09T10:04:13Z</time>
      </trkpt>
      <trkpt lat="44.92234" lon="6.57939">
        <ele>1419</ele>
        <time>2022-02-09T10:04:22Z</time>
      </trkpt>
      <trkpt lat="44.92229" lon="6.57934">
        <ele>1419</ele>
        <time>2022-02-09T10:04:32Z</time>
      </trkpt>
      <trkpt lat="44.92228" lon="6.57927">
        <ele>1419</ele>
        <time>2022-02-09T10:04:42Z</time>
      </trkpt>
      <trkpt lat="44.9223" lon="6.57923">
        <ele>1419</ele>
        <time>2022-02-09T10:04:52Z</time>
      </trkpt>
      <trkpt lat="44.92225" lon="6.57912">
        <ele>1419</ele>
        <time>2022-02-09T10:05:02Z</time>
      </trkpt>
      <trkpt lat="44.92221" lon="6.57904">
        <ele>1419</ele>
        <time>2022-02-09T10:05:12Z</time>
      </trkpt>
      <trkpt lat="44.92221" lon="6.57896">
        <ele>1668.92</ele>
        <time>2022-02-09T10:05:22Z</time>
      </trkpt>
      <trkpt lat="44.92219" lon="6.57889">
        <ele>1655.06</ele>
        <time>2022-02-09T10:05:32Z</time>
      </trkpt>
      <trkpt lat="44.92217" lon="6.57882">
        <ele>1663.64</ele>
        <time>2022-02-09T10:05:41Z</time>
      </trkpt>
      <trkpt lat="44.92214" lon="6.57875">
        <ele>1655.2</ele>
        <time>2022-02-09T10:05:50Z</time>
      </trkpt>
      <trkpt lat="44.92209" lon="6.57868">
        <ele>1700.37</ele>
        <time>2022-02-09T10:05:59Z</time>
      </trkpt>
      <trkpt lat="44.92207" lon="6.57858">
        <ele>1706.13</ele>
        <time>2022-02-09T10:06:09Z</time>
      </trkpt>
      <trkpt lat="44.92202" lon="6.57855">
        <ele>1696.32</ele>
        <time>2022-02-09T10:06:18Z</time>
      </trkpt>
      <trkpt lat="44.92202" lon="6.57863">
        <ele>1689.64</ele>
        <time>2022-02-09T10:06:28Z</time>
      </trkpt>
      <trkpt lat="44.92203" lon="6.57874">
        <ele>1741.85</ele>
        <time>2022-02-09T10:06:37Z</time>
      </trkpt>
      <trkpt lat="44.92206" lon="6.57879">
        <ele>1756.56</ele>
        <time>2022-02-09T10:06:47Z</time>
      </trkpt>
      <trkpt lat="44.9221" lon="6.57883">
        <ele>1765.11</ele>
        <time>2022-02-09T10:06:57Z</time>
      </trkpt>
      <trkpt lat="44.92213" lon="6.57891">
        <ele>1782.66</ele>
        <time>2022-02-09T10:07:06Z</time>
      </trkpt>
      <trkpt lat="44.92213" lon="6.57898">
        <ele>1785.52</ele>
        <time>2022-02-09T10:07:16Z</time>
      </trkpt>
      <trkpt lat="44.92216" lon="6.57902">
        <ele>1789.54</ele>
        <time>2022-02-09T10:07:25Z</time>
      </trkpt>
      <trkpt lat="44.9222" lon="6.57904">
        <ele>1793.09</ele>
        <time>2022-02-09T10:07:35Z</time>
      </trkpt>
      <trkpt lat="44.92221" lon="6.57908">
        <ele>1794.13</ele>
        <time>2022-02-09T10:07:45Z</time>
      </trkpt>
      <trkpt lat="44.92219" lon="6.5791">
        <ele>1654.24</ele>
        <time>2022-02-09T10:07:55Z</time>
      </trkpt>
      <trkpt lat="44.92217" lon="6.57913">
        <ele>1694.87</ele>
        <time>2022-02-09T10:08:05Z</time>
      </trkpt>
      <trkpt lat="44.92211" lon="6.57914">
        <ele>1609.48</ele>
        <time>2022-02-09T10:08:15Z</time>
      </trkpt>
      <trkpt lat="44.92204" lon="6.57914">
        <ele>1653.97</ele>
        <time>2022-02-09T10:08:25Z</time>
      </trkpt>
      <trkpt lat="44.92199" lon="6.57909">
        <ele>1695.7</ele>
        <time>2022-02-09T10:08:35Z</time>
      </trkpt>
      <trkpt lat="44.92197" lon="6.57906">
        <ele>1710.71</ele>
        <time>2022-02-09T10:08:44Z</time>
      </trkpt>
      <trkpt lat="44.92192" lon="6.57901">
        <ele>1711.6</ele>
        <time>2022-02-09T10:08:54Z</time>
      </trkpt>
      <trkpt lat="44.92188" lon="6.57898">
        <ele>1663.88</ele>
        <time>2022-02-09T10:09:03Z</time>
      </trkpt>
      <trkpt lat="44.92188" lon="6.57895">
        <ele>2036.5</ele>
        <time>2022-02-09T10:09:13Z</time>
      </trkpt>
      <trkpt lat="44.92187" lon="6.57894">
        <ele>1706.19</ele>
        <time>2022-02-09T10:09:22Z</time>
      </trkpt>
      <trkpt lat="44.92186" lon="6.57893">
        <ele>1715.12</ele>
        <time>2022-02-09T10:09:31Z</time>
      </trkpt>
      <trkpt lat="44.92183" lon="6.5789">
        <ele>1718.27</ele>
        <time>2022-02-09T10:09:41Z</time>
      </trkpt>
      <trkpt lat="44.92181" lon="6.57889">
        <ele>1693.95</ele>
        <time>2022-02-09T10:09:50Z</time>
      </trkpt>
      <trkpt lat="44.92176" lon="6.5789">
        <ele>1672.18</ele>
        <time>2022-02-09T10:10:00Z</time>
      </trkpt>
      <trkpt lat="44.92175" lon="6.57897">
        <ele>1607.42</ele>
        <time>2022-02-09T10:10:10Z</time>
      </trkpt>
      <trkpt lat="44.92179" lon="6.57899">
        <ele>1860.78</ele>
        <time>2022-02-09T10:10:19Z</time>
      </trkpt>
      <trkpt lat="44.92179" lon="6.57902">
        <ele>1766.79</ele>
        <time>2022-02-09T10:10:29Z</time>
      </trkpt>
      <trkpt lat="44.92178" lon="6.57907">
        <ele>1727.34</ele>
        <time>2022-02-09T10:10:38Z</time>
      </trkpt>
      <trkpt lat="44.92181" lon="6.5791">
        <ele>1722.49</ele>
        <time>2022-02-09T10:10:48Z</time>
      </trkpt>
      <trkpt lat="44.92184" lon="6.57913">
        <ele>1766.09</ele>
        <time>2022-02-09T10:10:57Z</time>
      </trkpt>
      <trkpt lat="44.92186" lon="6.57917">
        <ele>1733.99</ele>
        <time>2022-02-09T10:11:07Z</time>
      </trkpt>
      <trkpt lat="44.92184" lon="6.57921">
        <ele>1951.54</ele>
        <time>2022-02-09T10:11:17Z</time>
      </trkpt>
      <trkpt lat="44.92178" lon="6.57923">
        <ele>1738.15</ele>
        <time>2022-02-09T10:11:26Z</time>
      </trkpt>
      <trkpt lat="44.92176" lon="6.57925">
        <ele>1443.61</ele>
        <time>2022-02-09T10:11:36Z</time>
      </trkpt>
      <trkpt lat="44.92173" lon="6.57923">
        <ele>1419.15</ele>
        <time>2022-02-09T10:11:45Z</time>
      </trkpt>
      <trkpt lat="44.92172" lon="6.57921">
        <ele>1419</ele>
        <time>2022-02-09T10:11:55Z</time>
      </trkpt>
      <trkpt lat="44.92171" lon="6.5792">
        <ele>2001.5</ele>
        <time>2022-02-09T10:12:04Z</time>
      </trkpt>
      <trkpt lat="44.9217" lon="6.57919">
        <ele>2020.12</ele>
        <time>2022-02-09T10:12:13Z</time>
      </trkpt>
      <trkpt lat="44.92171" lon="6.57917">
        <ele>2019.97</ele>
        <time>2022-02-09T10:12:26Z</time>
      </trkpt>
      <trkpt lat="44.92169" lon="6.57916">
        <ele>2018.78</ele>
        <time>2022-02-09T10:12:36Z</time>
      </trkpt>
      <trkpt lat="44.92168" lon="6.57916">
        <ele>1738.01</ele>
        <time>2022-02-09T10:12:45Z</time>
      </trkpt>
      <trkpt lat="44.92166" lon="6.57918">
        <ele>1865.05</ele>
        <time>2022-02-09T10:12:58Z</time>
      </trkpt>
      <trkpt lat="44.92167" lon="6.57917">
        <ele>1781.9</ele>
        <time>2022-02-09T10:13:08Z</time>
      </trkpt>
      <trkpt lat="44.92166" lon="6.57917">
        <ele>2074.86</ele>
        <time>2022-02-09T10:13:17Z</time>
      </trkpt>
      <trkpt lat="44.92167" lon="6.57916">
        <ele>2097.19</ele>
        <time>2022-02-09T10:13:27Z</time>
      </trkpt>
      <trkpt lat="44.92165" lon="6.57917">
        <ele>2095.34</ele>
        <time>2022-02-09T10:13:37Z</time>
      </trkpt>
      <trkpt lat="44.92164" lon="6.57918">
        <ele>2066.39</ele>
        <time>2022-02-09T10:13:47Z</time>
      </trkpt>
      <trkpt lat="44.92165" lon="6.57919">
        <ele>2071.28</ele>
        <time>2022-02-09T10:13:57Z</time>
      </trkpt>
      <trkpt lat="44.92165" lon="6.57918">
        <ele>2111.35</ele>
        <time>2022-02-09T10:14:06Z</time>
      </trkpt>
      <trkpt lat="44.92164" lon="6.57917">
        <ele>2072.33</ele>
        <time>2022-02-09T10:14:15Z</time>
      </trkpt>
      <trkpt lat="44.92162" lon="6.57914">
        <ele>2035.56</ele>
        <time>2022-02-09T10:14:25Z</time>
      </trkpt>
      <trkpt lat="44.92161" lon="6.57911">
        <ele>2044.12</ele>
        <time>2022-02-09T10:14:35Z</time>
      </trkpt>
      <trkpt lat="44.92161" lon="6.57909">
        <ele>2033.2</ele>
        <time>2022-02-09T10:14:44Z</time>
      </trkpt>
      <trkpt lat="44.9216" lon="6.57907">
        <ele>2192.75</ele>
        <time>2022-02-09T10:14:59Z</time>
      </trkpt>
      <trkpt lat="44.92161" lon="6.57906">
        <ele>2214.2</ele>
        <time>2022-02-09T10:15:09Z</time>
      </trkpt>
      <trkpt lat="44.92159" lon="6.57906">
        <ele>2165.48</ele>
        <time>2022-02-09T10:15:18Z</time>
      </trkpt>
      <trkpt lat="44.92158" lon="6.57908">
        <ele>2238.77</ele>
        <time>2022-02-09T10:15:28Z</time>
      </trkpt>
      <trkpt lat="44.92157" lon="6.57911">
        <ele>2126.72</ele>
        <time>2022-02-09T10:15:37Z</time>
      </trkpt>
      <trkpt lat="44.92153" lon="6.57913">
        <ele>2116.12</ele>
        <time>2022-02-09T10:15:46Z</time>
      </trkpt>
      <trkpt lat="44.92149" lon="6.57916">
        <ele>2093.66</ele>
        <time>2022-02-09T10:15:56Z</time>
      </trkpt>
      <trkpt lat="44.92147" lon="6.57917">
        <ele>2091.69</ele>
        <time>2022-02-09T10:16:05Z</time>
      </trkpt>
      <trkpt lat="44.92148" lon="6.57924">
        <ele>2052.4</ele>
        <time>2022-02-09T10:16:14Z</time>
      </trkpt>
      <trkpt lat="44.92146" lon="6.57928">
        <ele>2035.37</ele>
        <time>2022-02-09T10:16:24Z</time>
      </trkpt>
      <trkpt lat="44.92143" lon="6.57933">
        <ele>2073.62</ele>
        <time>2022-02-09T10:16:34Z</time>
      </trkpt>
      <trkpt lat="44.92141" lon="6.57938">
        <ele>2058.65</ele>
        <time>2022-02-09T10:16:43Z</time>
      </trkpt>
      <trkpt lat="44.92135" lon="6.57942">
        <ele>2096.7</ele>
        <time>2022-02-09T10:16:52Z</time>
      </trkpt>
      <trkpt lat="44.92132" lon="6.57944">
        <ele>2097.09</ele>
        <time>2022-02-09T10:17:01Z</time>
      </trkpt>
      <trkpt lat="44.92127" lon="6.57952">
        <ele>2096.43</ele>
        <time>2022-02-09T10:17:11Z</time>
      </trkpt>
      <trkpt lat="44.92126" lon="6.5795">
        <ele>2035.98</ele>
        <time>2022-02-09T10:17:21Z</time>
      </trkpt>
      <trkpt lat="44.92123" lon="6.57952">
        <ele>2035.81</ele>
        <time>2022-02-09T10:17:35Z</time>
      </trkpt>
      <trkpt lat="44.92122" lon="6.5795">
        <ele>2034.25</ele>
        <time>2022-02-09T10:17:45Z</time>
      </trkpt>
      <trkpt lat="44.92123" lon="6.57943">
        <ele>2034.25</ele>
        <time>2022-02-09T10:17:54Z</time>
      </trkpt>
      <trkpt lat="44.92125" lon="6.57936">
        <ele>2117.29</ele>
        <time>2022-02-09T10:18:03Z</time>
      </trkpt>
      <trkpt lat="44.92126" lon="6.57929">
        <ele>2045.33</ele>
        <time>2022-02-09T10:18:13Z</time>
      </trkpt>
      <trkpt lat="44.92127" lon="6.57924">
        <ele>2036.96</ele>
        <time>2022-02-09T10:18:23Z</time>
      </trkpt>
      <trkpt lat="44.92128" lon="6.5792">
        <ele>1952.2</ele>
        <time>2022-02-09T10:18:33Z</time>
      </trkpt>
      <trkpt lat="44.92128" lon="6.57916">
        <ele>1815.45</ele>
        <time>2022-02-09T10:18:42Z</time>
      </trkpt>
      <trkpt lat="44.92126" lon="6.57913">
        <ele>1764.35</ele>
        <time>2022-02-09T10:18:52Z</time>
      </trkpt>
      <trkpt lat="44.92127" lon="6.5791">
        <ele>2036.73</ele>
        <time>2022-02-09T10:19:01Z</time>
      </trkpt>
      <trkpt lat="44.92127" lon="6.57906">
        <ele>2042.7</ele>
        <time>2022-02-09T10:19:11Z</time>
      </trkpt>
      <trkpt lat="44.92127" lon="6.57901">
        <ele>2043.92</ele>
        <time>2022-02-09T10:19:21Z</time>
      </trkpt>
      <trkpt lat="44.92126" lon="6.57893">
        <ele>1436.51</ele>
        <time>2022-02-09T10:19:31Z</time>
      </trkpt>
      <trkpt lat="44.92122" lon="6.57888">
        <ele>1419.01</ele>
        <time>2022-02-09T10:19:40Z</time>
      </trkpt>
      <trkpt lat="44.92118" lon="6.57885">
        <ele>1419</ele>
        <time>2022-02-09T10:19:50Z</time>
      </trkpt>
      <trkpt lat="44.92116" lon="6.57886">
        <ele>1419</ele>
        <time>2022-02-09T10:19:59Z</time>
      </trkpt>
      <trkpt lat="44.92117" lon="6.57894">
        <ele>1419</ele>
        <time>2022-02-09T10:20:08Z</time>
      </trkpt>
      <trkpt lat="44.9212" lon="6.57899">
        <ele>1419</ele>
        <time>2022-02-09T10:20:17Z</time>
      </trkpt>
      <trkpt lat="44.92119" lon="6.57904">
        <ele>1419</ele>
        <time>2022-02-09T10:20:27Z</time>
      </trkpt>
      <trkpt lat="44.92115" lon="6.57903">
        <ele>1419</ele>
        <time>2022-02-09T10:20:36Z</time>
      </trkpt>
      <trkpt lat="44.92113" lon="6.57906">
        <ele>1419</ele>
        <time>2022-02-09T10:20:46Z</time>
      </trkpt>
      <trkpt lat="44.92111" lon="6.57907">
        <ele>1419</ele>
        <time>2022-02-09T10:20:56Z</time>
      </trkpt>
      <trkpt lat="44.92111" lon="6.57902">
        <ele>1419</ele>
        <time>2022-02-09T10:21:06Z</time>
      </trkpt>
      <trkpt lat="44.92109" lon="6.57899">
        <ele>1419</ele>
        <time>2022-02-09T10:21:16Z</time>
      </trkpt>
      <trkpt lat="44.92107" lon="6.57892">
        <ele>1419</ele>
        <time>2022-02-09T10:21:26Z</time>
      </trkpt>
      <trkpt lat="44.92105" lon="6.57885">
        <ele>1419</ele>
        <time>2022-02-09T10:21:35Z</time>
      </trkpt>
      <trkpt lat="44.92097" lon="6.57883">
        <ele>2020.89</ele>
        <time>2022-02-09T10:21:45Z</time>
      </trkpt>
      <trkpt lat="44.92093" lon="6.57877">
        <ele>2052.45</ele>
        <time>2022-02-09T10:21:54Z</time>
      </trkpt>
      <trkpt lat="44.92092" lon="6.57874">
        <ele>2059.48</ele>
        <time>2022-02-09T10:22:04Z</time>
      </trkpt>
      <trkpt lat="44.92091" lon="6.57873">
        <ele>2092.01</ele>
        <time>2022-02-09T10:22:13Z</time>
      </trkpt>
      <trkpt lat="44.92089" lon="6.57867">
        <ele>1983.35</ele>
        <time>2022-02-09T10:22:23Z</time>
      </trkpt>
      <trkpt lat="44.92084" lon="6.57865">
        <ele>1831.56</ele>
        <time>2022-02-09T10:22:32Z</time>
      </trkpt>
      <trkpt lat="44.92082" lon="6.57868">
        <ele>2056.47</ele>
        <time>2022-02-09T10:22:42Z</time>
      </trkpt>
      <trkpt lat="44.92084" lon="6.57872">
        <ele>2127.82</ele>
        <time>2022-02-09T10:22:51Z</time>
      </trkpt>
      <trkpt lat="44.92085" lon="6.57878">
        <ele>2061.06</ele>
        <time>2022-02-09T10:23:01Z</time>
      </trkpt>
      <trkpt lat="44.92086" lon="6.57884">
        <ele>2059.27</ele>
        <time>2022-02-09T10:23:10Z</time>
      </trkpt>
      <trkpt lat="44.92083" lon="6.57887">
        <ele>2065.16</ele>
        <time>2022-02-09T10:23:19Z</time>
      </trkpt>
      <trkpt lat="44.9208" lon="6.57892">
        <ele>2059</ele>
        <time>2022-02-09T10:23:29Z</time>
      </trkpt>
      <trkpt lat="44.92077" lon="6.57899">
        <ele>2059.2</ele>
        <time>2022-02-09T10:23:39Z</time>
      </trkpt>
      <trkpt lat="44.92073" lon="6.57905">
        <ele>2126.6</ele>
        <time>2022-02-09T10:23:49Z</time>
      </trkpt>
      <trkpt lat="44.92069" lon="6.57911">
        <ele>2132.45</ele>
        <time>2022-02-09T10:23:59Z</time>
      </trkpt>
      <trkpt lat="44.92065" lon="6.57915">
        <ele>2132.49</ele>
        <time>2022-02-09T10:24:09Z</time>
      </trkpt>
      <trkpt lat="44.92069" lon="6.57923">
        <ele>2071.31</ele>
        <time>2022-02-09T10:24:19Z</time>
      </trkpt>
      <trkpt lat="44.92073" lon="6.57931">
        <ele>1763.68</ele>
        <time>2022-02-09T10:24:29Z</time>
      </trkpt>
      <trkpt lat="44.92077" lon="6.57939">
        <ele>2070.28</ele>
        <time>2022-02-09T10:24:40Z</time>
      </trkpt>
      <trkpt lat="44.92073" lon="6.57945">
        <ele>1778.7</ele>
        <time>2022-02-09T10:24:50Z</time>
      </trkpt>
      <trkpt lat="44.92069" lon="6.57949">
        <ele>1897.71</ele>
        <time>2022-02-09T10:24:59Z</time>
      </trkpt>
      <trkpt lat="44.92065" lon="6.57952">
        <ele>2079.36</ele>
        <time>2022-02-09T10:25:09Z</time>
      </trkpt>
      <trkpt lat="44.92065" lon="6.5795">
        <ele>2230.89</ele>
        <time>2022-02-09T10:25:34Z</time>
      </trkpt>
      <trkpt lat="44.92063" lon="6.5795">
        <ele>1441.77</ele>
        <time>2022-02-09T10:25:43Z</time>
      </trkpt>
      <trkpt lat="44.92058" lon="6.57952">
        <ele>1419.08</ele>
        <time>2022-02-09T10:25:53Z</time>
      </trkpt>
      <trkpt lat="44.92051" lon="6.57955">
        <ele>1419</ele>
        <time>2022-02-09T10:26:03Z</time>
      </trkpt>
      <trkpt lat="44.92047" lon="6.57957">
        <ele>1419</ele>
        <time>2022-02-09T10:26:12Z</time>
      </trkpt>
      <trkpt lat="44.92043" lon="6.57959">
        <ele>1419</ele>
        <time>2022-02-09T10:26:21Z</time>
      </trkpt>
      <trkpt lat="44.92038" lon="6.57962">
        <ele>1419</ele>
        <time>2022-02-09T10:26:30Z</time>
      </trkpt>
      <trkpt lat="44.92035" lon="6.57964">
        <ele>1419</ele>
        <time>2022-02-09T10:26:40Z</time>
      </trkpt>
      <trkpt lat="44.92029" lon="6.57965">
        <ele>1419</ele>
        <time>2022-02-09T10:26:50Z</time>
      </trkpt>
      <trkpt lat="44.92022" lon="6.57963">
        <ele>1419</ele>
        <time>2022-02-09T10:26:59Z</time>
      </trkpt>
      <trkpt lat="44.92016" lon="6.57961">
        <ele>1419</ele>
        <time>2022-02-09T10:27:08Z</time>
      </trkpt>
      <trkpt lat="44.92014" lon="6.5796">
        <ele>1419</ele>
        <time>2022-02-09T10:27:18Z</time>
      </trkpt>
      <trkpt lat="44.92011" lon="6.57955">
        <ele>1419</ele>
        <time>2022-02-09T10:27:27Z</time>
      </trkpt>
      <trkpt lat="44.92008" lon="6.57953">
        <ele>1419</ele>
        <time>2022-02-09T10:27:37Z</time>
      </trkpt>
      <trkpt lat="44.92003" lon="6.57954">
        <ele>1419</ele>
        <time>2022-02-09T10:27:46Z</time>
      </trkpt>
      <trkpt lat="44.92001" lon="6.57958">
        <ele>1419</ele>
        <time>2022-02-09T10:27:56Z</time>
      </trkpt>
      <trkpt lat="44.91998" lon="6.57961">
        <ele>2072.13</ele>
        <time>2022-02-09T10:28:06Z</time>
      </trkpt>
      <trkpt lat="44.91994" lon="6.57961">
        <ele>2074.67</ele>
        <time>2022-02-09T10:28:15Z</time>
      </trkpt>
      <trkpt lat="44.91992" lon="6.57958">
        <ele>2076.46</ele>
        <time>2022-02-09T10:28:24Z</time>
      </trkpt>
      <trkpt lat="44.91988" lon="6.57957">
        <ele>2076.93</ele>
        <time>2022-02-09T10:28:34Z</time>
      </trkpt>
      <trkpt lat="44.91985" lon="6.57959">
        <ele>2079.68</ele>
        <time>2022-02-09T10:28:43Z</time>
      </trkpt>
      <trkpt lat="44.91983" lon="6.57961">
        <ele>2080.08</ele>
        <time>2022-02-09T10:28:52Z</time>
      </trkpt>
      <trkpt lat="44.91983" lon="6.57966">
        <ele>1833.99</ele>
        <time>2022-02-09T10:29:02Z</time>
      </trkpt>
      <trkpt lat="44.91978" lon="6.57965">
        <ele>2033.49</ele>
        <time>2022-02-09T10:29:12Z</time>
      </trkpt>
      <trkpt lat="44.91973" lon="6.57964">
        <ele>2080.14</ele>
        <time>2022-02-09T10:29:21Z</time>
      </trkpt>
      <trkpt lat="44.91969" lon="6.57959">
        <ele>2080.65</ele>
        <time>2022-02-09T10:29:31Z</time>
      </trkpt>
      <trkpt lat="44.91968" lon="6.57953">
        <ele>2081.44</ele>
        <time>2022-02-09T10:29:40Z</time>
      </trkpt>
      <trkpt lat="44.91966" lon="6.57948">
        <ele>2081.97</ele>
        <time>2022-02-09T10:29:50Z</time>
      </trkpt>
      <trkpt lat="44.91963" lon="6.57942">
        <ele>2084.18</ele>
        <time>2022-02-09T10:29:59Z</time>
      </trkpt>
      <trkpt lat="44.9196" lon="6.57938">
        <ele>1910.42</ele>
        <time>2022-02-09T10:30:08Z</time>
      </trkpt>
      <trkpt lat="44.91959" lon="6.5793">
        <ele>1902.16</ele>
        <time>2022-02-09T10:30:17Z</time>
      </trkpt>
      <trkpt lat="44.91956" lon="6.57926">
        <ele>1851.24</ele>
        <time>2022-02-09T10:30:27Z</time>
      </trkpt>
      <trkpt lat="44.91953" lon="6.57918">
        <ele>1863.62</ele>
        <time>2022-02-09T10:30:37Z</time>
      </trkpt>
      <trkpt lat="44.9195" lon="6.57912">
        <ele>1865.55</ele>
        <time>2022-02-09T10:30:46Z</time>
      </trkpt>
      <trkpt lat="44.91945" lon="6.57906">
        <ele>1904.43</ele>
        <time>2022-02-09T10:30:57Z</time>
      </trkpt>
      <trkpt lat="44.91942" lon="6.57901">
        <ele>1904.6</ele>
        <time>2022-02-09T10:31:06Z</time>
      </trkpt>
      <trkpt lat="44.91939" lon="6.57894">
        <ele>1903.69</ele>
        <time>2022-02-09T10:31:15Z</time>
      </trkpt>
      <trkpt lat="44.91935" lon="6.57887">
        <ele>1903.54</ele>
        <time>2022-02-09T10:31:25Z</time>
      </trkpt>
      <trkpt lat="44.91933" lon="6.5788">
        <ele>1904.13</ele>
        <time>2022-02-09T10:31:34Z</time>
      </trkpt>
      <trkpt lat="44.9193" lon="6.57871">
        <ele>1903.92</ele>
        <time>2022-02-09T10:31:43Z</time>
      </trkpt>
      <trkpt lat="44.91929" lon="6.57863">
        <ele>1905.5</ele>
        <time>2022-02-09T10:31:52Z</time>
      </trkpt>
      <trkpt lat="44.91927" lon="6.57856">
        <ele>1907.06</ele>
        <time>2022-02-09T10:32:02Z</time>
      </trkpt>
      <trkpt lat="44.91923" lon="6.57847">
        <ele>1906.26</ele>
        <time>2022-02-09T10:32:12Z</time>
      </trkpt>
      <trkpt lat="44.91921" lon="6.57839">
        <ele>1906.99</ele>
        <time>2022-02-09T10:32:22Z</time>
      </trkpt>
      <trkpt lat="44.91918" lon="6.57834">
        <ele>1907.46</ele>
        <time>2022-02-09T10:32:31Z</time>
      </trkpt>
      <trkpt lat="44.91913" lon="6.57827">
        <ele>1905.88</ele>
        <time>2022-02-09T10:32:41Z</time>
      </trkpt>
      <trkpt lat="44.91909" lon="6.57818">
        <ele>1905.63</ele>
        <time>2022-02-09T10:32:51Z</time>
      </trkpt>
      <trkpt lat="44.91909" lon="6.5781">
        <ele>1904.6</ele>
        <time>2022-02-09T10:33:01Z</time>
      </trkpt>
      <trkpt lat="44.91906" lon="6.57804">
        <ele>1904.86</ele>
        <time>2022-02-09T10:33:10Z</time>
      </trkpt>
      <trkpt lat="44.91905" lon="6.57798">
        <ele>1904.26</ele>
        <time>2022-02-09T10:33:20Z</time>
      </trkpt>
      <trkpt lat="44.91902" lon="6.57787">
        <ele>1904.16</ele>
        <time>2022-02-09T10:33:29Z</time>
      </trkpt>
      <trkpt lat="44.91901" lon="6.5778">
        <ele>1905.65</ele>
        <time>2022-02-09T10:33:39Z</time>
      </trkpt>
      <trkpt lat="44.91897" lon="6.57775">
        <ele>1843.61</ele>
        <time>2022-02-09T10:33:48Z</time>
      </trkpt>
      <trkpt lat="44.91894" lon="6.57767">
        <ele>1842.22</ele>
        <time>2022-02-09T10:33:58Z</time>
      </trkpt>
      <trkpt lat="44.91892" lon="6.57758">
        <ele>1842.21</ele>
        <time>2022-02-09T10:34:07Z</time>
      </trkpt>
      <trkpt lat="44.91892" lon="6.5776">
        <ele>2087.14</ele>
        <time>2022-02-09T10:34:17Z</time>
      </trkpt>
      <trkpt lat="44.91887" lon="6.57757">
        <ele>1848.95</ele>
        <time>2022-02-09T10:34:27Z</time>
      </trkpt>
      <trkpt lat="44.91882" lon="6.57763">
        <ele>1841.22</ele>
        <time>2022-02-09T10:34:37Z</time>
      </trkpt>
      <trkpt lat="44.91881" lon="6.57767">
        <ele>1820.99</ele>
        <time>2022-02-09T10:34:46Z</time>
      </trkpt>
      <trkpt lat="44.91875" lon="6.57768">
        <ele>1830.56</ele>
        <time>2022-02-09T10:34:56Z</time>
      </trkpt>
      <trkpt lat="44.91871" lon="6.57768">
        <ele>1871.13</ele>
        <time>2022-02-09T10:35:06Z</time>
      </trkpt>
      <trkpt lat="44.91866" lon="6.57773">
        <ele>1863.11</ele>
        <time>2022-02-09T10:35:16Z</time>
      </trkpt>
      <trkpt lat="44.91869" lon="6.57765">
        <ele>1846.59</ele>
        <time>2022-02-09T10:35:26Z</time>
      </trkpt>
      <trkpt lat="44.9187" lon="6.5776">
        <ele>1872.14</ele>
        <time>2022-02-09T10:35:36Z</time>
      </trkpt>
      <trkpt lat="44.91871" lon="6.57751">
        <ele>1869.79</ele>
        <time>2022-02-09T10:35:46Z</time>
      </trkpt>
      <trkpt lat="44.91869" lon="6.57746">
        <ele>1858.26</ele>
        <time>2022-02-09T10:35:56Z</time>
      </trkpt>
      <trkpt lat="44.91867" lon="6.57741">
        <ele>1874.73</ele>
        <time>2022-02-09T10:36:05Z</time>
      </trkpt>
      <trkpt lat="44.91865" lon="6.57739">
        <ele>1877.33</ele>
        <time>2022-02-09T10:36:15Z</time>
      </trkpt>
      <trkpt lat="44.91863" lon="6.57737">
        <ele>1863.06</ele>
        <time>2022-02-09T10:36:25Z</time>
      </trkpt>
      <trkpt lat="44.91863" lon="6.57733">
        <ele>1854.81</ele>
        <time>2022-02-09T10:36:35Z</time>
      </trkpt>
      <trkpt lat="44.91862" lon="6.57728">
        <ele>1819.63</ele>
        <time>2022-02-09T10:36:44Z</time>
      </trkpt>
      <trkpt lat="44.9186" lon="6.57727">
        <ele>1849.25</ele>
        <time>2022-02-09T10:36:54Z</time>
      </trkpt>
      <trkpt lat="44.91859" lon="6.57722">
        <ele>1875.25</ele>
        <time>2022-02-09T10:37:04Z</time>
      </trkpt>
      <trkpt lat="44.91857" lon="6.57719">
        <ele>1864</ele>
        <time>2022-02-09T10:37:14Z</time>
      </trkpt>
      <trkpt lat="44.91855" lon="6.57716">
        <ele>1878.7</ele>
        <time>2022-02-09T10:37:23Z</time>
      </trkpt>
      <trkpt lat="44.91851" lon="6.57716">
        <ele>1856.86</ele>
        <time>2022-02-09T10:37:33Z</time>
      </trkpt>
      <trkpt lat="44.91848" lon="6.57715">
        <ele>1860.86</ele>
        <time>2022-02-09T10:37:43Z</time>
      </trkpt>
      <trkpt lat="44.91846" lon="6.57714">
        <ele>1855.32</ele>
        <time>2022-02-09T10:37:53Z</time>
      </trkpt>
      <trkpt lat="44.91844" lon="6.57712">
        <ele>1886.63</ele>
        <time>2022-02-09T10:38:03Z</time>
      </trkpt>
      <trkpt lat="44.91841" lon="6.57711">
        <ele>1887.41</ele>
        <time>2022-02-09T10:38:13Z</time>
      </trkpt>
      <trkpt lat="44.91839" lon="6.57712">
        <ele>1865.27</ele>
        <time>2022-02-09T10:38:22Z</time>
      </trkpt>
      <trkpt lat="44.91839" lon="6.57718">
        <ele>1929.78</ele>
        <time>2022-02-09T10:38:32Z</time>
      </trkpt>
      <trkpt lat="44.91838" lon="6.57722">
        <ele>1934.3</ele>
        <time>2022-02-09T10:38:42Z</time>
      </trkpt>
      <trkpt lat="44.9184" lon="6.57723">
        <ele>1930</ele>
        <time>2022-02-09T10:38:52Z</time>
      </trkpt>
      <trkpt lat="44.9184" lon="6.57723">
        <ele>1936.42</ele>
        <time>2022-02-09T10:39:13Z</time>
      </trkpt>
      <trkpt lat="44.91839" lon="6.57725">
        <ele>1937.48</ele>
        <time>2022-02-09T10:39:22Z</time>
      </trkpt>
      <trkpt lat="44.91828" lon="6.5775">
        <ele>1927.57</ele>
        <time>2022-02-09T10:39:31Z</time>
      </trkpt>
      <trkpt lat="44.91829" lon="6.57735">
        <ele>1932.61</ele>
        <time>2022-02-09T10:39:41Z</time>
      </trkpt>
      <trkpt lat="44.91827" lon="6.57725">
        <ele>1931.64</ele>
        <time>2022-02-09T10:39:51Z</time>
      </trkpt>
      <trkpt lat="44.91826" lon="6.57724">
        <ele>1931.34</ele>
        <time>2022-02-09T10:40:01Z</time>
      </trkpt>
      <trkpt lat="44.91827" lon="6.57725">
        <ele>1927.57</ele>
        <time>2022-02-09T10:40:11Z</time>
      </trkpt>
      <trkpt lat="44.91827" lon="6.57727">
        <ele>1935.9</ele>
        <time>2022-02-09T10:40:22Z</time>
      </trkpt>
      <trkpt lat="44.91828" lon="6.57727">
        <ele>1936.48</ele>
        <time>2022-02-09T10:40:32Z</time>
      </trkpt>
      <trkpt lat="44.91829" lon="6.57728">
        <ele>1937.52</ele>
        <time>2022-02-09T10:40:42Z</time>
      </trkpt>
      <trkpt lat="44.91829" lon="6.57726">
        <ele>1937.51</ele>
        <time>2022-02-09T10:40:57Z</time>
      </trkpt>
      <trkpt lat="44.9183" lon="6.57722">
        <ele>1941.14</ele>
        <time>2022-02-09T10:41:07Z</time>
      </trkpt>
      <trkpt lat="44.91826" lon="6.57715">
        <ele>1942.03</ele>
        <time>2022-02-09T10:41:17Z</time>
      </trkpt>
      <trkpt lat="44.9182" lon="6.57709">
        <ele>1939.89</ele>
        <time>2022-02-09T10:41:27Z</time>
      </trkpt>
      <trkpt lat="44.91815" lon="6.57707">
        <ele>1940.31</ele>
        <time>2022-02-09T10:41:36Z</time>
      </trkpt>
      <trkpt lat="44.91813" lon="6.57704">
        <ele>1944.26</ele>
        <time>2022-02-09T10:41:45Z</time>
      </trkpt>
      <trkpt lat="44.9181" lon="6.57703">
        <ele>1942.7</ele>
        <time>2022-02-09T10:41:55Z</time>
      </trkpt>
      <trkpt lat="44.91805" lon="6.57703">
        <ele>1941.95</ele>
        <time>2022-02-09T10:42:05Z</time>
      </trkpt>
      <trkpt lat="44.91801" lon="6.57703">
        <ele>1944.09</ele>
        <time>2022-02-09T10:42:15Z</time>
      </trkpt>
      <trkpt lat="44.91798" lon="6.57704">
        <ele>1946.87</ele>
        <time>2022-02-09T10:42:25Z</time>
      </trkpt>
      <trkpt lat="44.91797" lon="6.57705">
        <ele>1949.44</ele>
        <time>2022-02-09T10:42:34Z</time>
      </trkpt>
      <trkpt lat="44.91795" lon="6.5771">
        <ele>1947.63</ele>
        <time>2022-02-09T10:42:44Z</time>
      </trkpt>
      <trkpt lat="44.91795" lon="6.57717">
        <ele>1949.35</ele>
        <time>2022-02-09T10:42:54Z</time>
      </trkpt>
      <trkpt lat="44.91794" lon="6.57719">
        <ele>1951.83</ele>
        <time>2022-02-09T10:43:04Z</time>
      </trkpt>
      <trkpt lat="44.91794" lon="6.57722">
        <ele>1951.12</ele>
        <time>2022-02-09T10:43:14Z</time>
      </trkpt>
      <trkpt lat="44.91793" lon="6.57727">
        <ele>1953.9</ele>
        <time>2022-02-09T10:43:24Z</time>
      </trkpt>
      <trkpt lat="44.91792" lon="6.57732">
        <ele>1958.09</ele>
        <time>2022-02-09T10:43:34Z</time>
      </trkpt>
      <trkpt lat="44.91791" lon="6.57736">
        <ele>1954.73</ele>
        <time>2022-02-09T10:43:44Z</time>
      </trkpt>
      <trkpt lat="44.91789" lon="6.57738">
        <ele>1956.37</ele>
        <time>2022-02-09T10:43:53Z</time>
      </trkpt>
      <trkpt lat="44.91785" lon="6.57742">
        <ele>1958.31</ele>
        <time>2022-02-09T10:44:03Z</time>
      </trkpt>
      <trkpt lat="44.91782" lon="6.57744">
        <ele>1959.31</ele>
        <time>2022-02-09T10:44:12Z</time>
      </trkpt>
      <trkpt lat="44.91777" lon="6.57745">
        <ele>1958.62</ele>
        <time>2022-02-09T10:44:22Z</time>
      </trkpt>
      <trkpt lat="44.91772" lon="6.57745">
        <ele>1958.9</ele>
        <time>2022-02-09T10:44:31Z</time>
      </trkpt>
      <trkpt lat="44.91767" lon="6.57744">
        <ele>1957.62</ele>
        <time>2022-02-09T10:44:41Z</time>
      </trkpt>
      <trkpt lat="44.91763" lon="6.57743">
        <ele>1958.13</ele>
        <time>2022-02-09T10:44:51Z</time>
      </trkpt>
      <trkpt lat="44.91757" lon="6.57738">
        <ele>1954.6</ele>
        <time>2022-02-09T10:45:01Z</time>
      </trkpt>
      <trkpt lat="44.91758" lon="6.57731">
        <ele>1959.34</ele>
        <time>2022-02-09T10:45:10Z</time>
      </trkpt>
      <trkpt lat="44.91759" lon="6.57724">
        <ele>1959</ele>
        <time>2022-02-09T10:45:20Z</time>
      </trkpt>
      <trkpt lat="44.91758" lon="6.57717">
        <ele>1960.36</ele>
        <time>2022-02-09T10:45:30Z</time>
      </trkpt>
      <trkpt lat="44.91757" lon="6.57712">
        <ele>1955.86</ele>
        <time>2022-02-09T10:45:39Z</time>
      </trkpt>
      <trkpt lat="44.91755" lon="6.57708">
        <ele>1957.12</ele>
        <time>2022-02-09T10:45:49Z</time>
      </trkpt>
      <trkpt lat="44.91753" lon="6.57702">
        <ele>1960.78</ele>
        <time>2022-02-09T10:45:59Z</time>
      </trkpt>
      <trkpt lat="44.91751" lon="6.57697">
        <ele>1956.07</ele>
        <time>2022-02-09T10:46:08Z</time>
      </trkpt>
      <trkpt lat="44.9175" lon="6.57691">
        <ele>1961.12</ele>
        <time>2022-02-09T10:46:18Z</time>
      </trkpt>
      <trkpt lat="44.91751" lon="6.57689">
        <ele>1958.55</ele>
        <time>2022-02-09T10:46:28Z</time>
      </trkpt>
      <trkpt lat="44.9175" lon="6.57687">
        <ele>1954.37</ele>
        <time>2022-02-09T10:46:45Z</time>
      </trkpt>
      <trkpt lat="44.91747" lon="6.57681">
        <ele>1960.25</ele>
        <time>2022-02-09T10:46:54Z</time>
      </trkpt>
      <trkpt lat="44.91745" lon="6.57677">
        <ele>1957.49</ele>
        <time>2022-02-09T10:47:03Z</time>
      </trkpt>
      <trkpt lat="44.91745" lon="6.57672">
        <ele>1964.6</ele>
        <time>2022-02-09T10:47:13Z</time>
      </trkpt>
      <trkpt lat="44.91745" lon="6.57667">
        <ele>1966.18</ele>
        <time>2022-02-09T10:47:22Z</time>
      </trkpt>
      <trkpt lat="44.91741" lon="6.57659">
        <ele>1961.71</ele>
        <time>2022-02-09T10:47:32Z</time>
      </trkpt>
      <trkpt lat="44.91739" lon="6.57653">
        <ele>1960.97</ele>
        <time>2022-02-09T10:47:41Z</time>
      </trkpt>
      <trkpt lat="44.91738" lon="6.57648">
        <ele>1967.96</ele>
        <time>2022-02-09T10:47:50Z</time>
      </trkpt>
      <trkpt lat="44.91735" lon="6.57644">
        <ele>1965.12</ele>
        <time>2022-02-09T10:48:00Z</time>
      </trkpt>
      <trkpt lat="44.91733" lon="6.5764">
        <ele>1963.03</ele>
        <time>2022-02-09T10:48:10Z</time>
      </trkpt>
      <trkpt lat="44.9173" lon="6.57633">
        <ele>1964.1</ele>
        <time>2022-02-09T10:48:20Z</time>
      </trkpt>
      <trkpt lat="44.91727" lon="6.57627">
        <ele>1971.74</ele>
        <time>2022-02-09T10:48:29Z</time>
      </trkpt>
      <trkpt lat="44.91725" lon="6.5762">
        <ele>1974.21</ele>
        <time>2022-02-09T10:48:39Z</time>
      </trkpt>
      <trkpt lat="44.91723" lon="6.57614">
        <ele>1971.81</ele>
        <time>2022-02-09T10:48:48Z</time>
      </trkpt>
      <trkpt lat="44.91719" lon="6.57607">
        <ele>1975.08</ele>
        <time>2022-02-09T10:48:58Z</time>
      </trkpt>
      <trkpt lat="44.91719" lon="6.57598">
        <ele>1975.22</ele>
        <time>2022-02-09T10:49:08Z</time>
      </trkpt>
      <trkpt lat="44.91719" lon="6.57591">
        <ele>1968.81</ele>
        <time>2022-02-09T10:49:17Z</time>
      </trkpt>
      <trkpt lat="44.9172" lon="6.57584">
        <ele>1962.5</ele>
        <time>2022-02-09T10:49:27Z</time>
      </trkpt>
      <trkpt lat="44.91721" lon="6.57582">
        <ele>1965.83</ele>
        <time>2022-02-09T10:49:37Z</time>
      </trkpt>
      <trkpt lat="44.91722" lon="6.5758">
        <ele>1970.11</ele>
        <time>2022-02-09T10:49:54Z</time>
      </trkpt>
      <trkpt lat="44.91722" lon="6.57571">
        <ele>1959.75</ele>
        <time>2022-02-09T10:50:04Z</time>
      </trkpt>
      <trkpt lat="44.91722" lon="6.57566">
        <ele>1972.06</ele>
        <time>2022-02-09T10:50:13Z</time>
      </trkpt>
      <trkpt lat="44.91722" lon="6.57557">
        <ele>1972.24</ele>
        <time>2022-02-09T10:50:23Z</time>
      </trkpt>
      <trkpt lat="44.91721" lon="6.57547">
        <ele>1973.92</ele>
        <time>2022-02-09T10:50:33Z</time>
      </trkpt>
      <trkpt lat="44.91722" lon="6.57539">
        <ele>1975.73</ele>
        <time>2022-02-09T10:50:43Z</time>
      </trkpt>
      <trkpt lat="44.9172" lon="6.5753">
        <ele>1971.46</ele>
        <time>2022-02-09T10:50:52Z</time>
      </trkpt>
      <trkpt lat="44.91718" lon="6.57522">
        <ele>1969.54</ele>
        <time>2022-02-09T10:51:02Z</time>
      </trkpt>
      <trkpt lat="44.91716" lon="6.57512">
        <ele>1973.23</ele>
        <time>2022-02-09T10:51:12Z</time>
      </trkpt>
      <trkpt lat="44.91712" lon="6.57507">
        <ele>1975.8</ele>
        <time>2022-02-09T10:51:21Z</time>
      </trkpt>
      <trkpt lat="44.91708" lon="6.57501">
        <ele>1979.5</ele>
        <time>2022-02-09T10:51:31Z</time>
      </trkpt>
      <trkpt lat="44.91704" lon="6.57491">
        <ele>1970.79</ele>
        <time>2022-02-09T10:51:41Z</time>
      </trkpt>
      <trkpt lat="44.91706" lon="6.57482">
        <ele>1981.15</ele>
        <time>2022-02-09T10:51:51Z</time>
      </trkpt>
      <trkpt lat="44.91709" lon="6.57472">
        <ele>1964.32</ele>
        <time>2022-02-09T10:52:00Z</time>
      </trkpt>
      <trkpt lat="44.91711" lon="6.57462">
        <ele>1969.16</ele>
        <time>2022-02-09T10:52:10Z</time>
      </trkpt>
      <trkpt lat="44.91717" lon="6.57456">
        <ele>1981.99</ele>
        <time>2022-02-09T10:52:20Z</time>
      </trkpt>
      <trkpt lat="44.91721" lon="6.5745">
        <ele>1973.34</ele>
        <time>2022-02-09T10:52:30Z</time>
      </trkpt>
      <trkpt lat="44.91722" lon="6.57447">
        <ele>1974.95</ele>
        <time>2022-02-09T10:52:39Z</time>
      </trkpt>
      <trkpt lat="44.91721" lon="6.57437">
        <ele>1980.05</ele>
        <time>2022-02-09T10:52:49Z</time>
      </trkpt>
      <trkpt lat="44.91717" lon="6.57433">
        <ele>1975.45</ele>
        <time>2022-02-09T10:52:59Z</time>
      </trkpt>
      <trkpt lat="44.91716" lon="6.57429">
        <ele>1977.24</ele>
        <time>2022-02-09T10:53:09Z</time>
      </trkpt>
      <trkpt lat="44.91713" lon="6.57426">
        <ele>1974.02</ele>
        <time>2022-02-09T10:53:19Z</time>
      </trkpt>
      <trkpt lat="44.91709" lon="6.57426">
        <ele>1973.36</ele>
        <time>2022-02-09T10:53:28Z</time>
      </trkpt>
      <trkpt lat="44.91706" lon="6.57425">
        <ele>1983.03</ele>
        <time>2022-02-09T10:53:38Z</time>
      </trkpt>
      <trkpt lat="44.91705" lon="6.57422">
        <ele>1985.38</ele>
        <time>2022-02-09T10:53:48Z</time>
      </trkpt>
      <trkpt lat="44.91702" lon="6.57419">
        <ele>1986.4</ele>
        <time>2022-02-09T10:53:58Z</time>
      </trkpt>
      <trkpt lat="44.91701" lon="6.57416">
        <ele>1987.68</ele>
        <time>2022-02-09T10:54:07Z</time>
      </trkpt>
      <trkpt lat="44.91699" lon="6.57411">
        <ele>1979.03</ele>
        <time>2022-02-09T10:54:17Z</time>
      </trkpt>
      <trkpt lat="44.91695" lon="6.57409">
        <ele>1988.73</ele>
        <time>2022-02-09T10:54:26Z</time>
      </trkpt>
      <trkpt lat="44.91691" lon="6.57406">
        <ele>1980.63</ele>
        <time>2022-02-09T10:54:36Z</time>
      </trkpt>
      <trkpt lat="44.91688" lon="6.57404">
        <ele>1979.92</ele>
        <time>2022-02-09T10:54:45Z</time>
      </trkpt>
      <trkpt lat="44.91685" lon="6.57403">
        <ele>1983.01</ele>
        <time>2022-02-09T10:54:54Z</time>
      </trkpt>
      <trkpt lat="44.9168" lon="6.57403">
        <ele>1983.72</ele>
        <time>2022-02-09T10:55:04Z</time>
      </trkpt>
      <trkpt lat="44.91677" lon="6.57401">
        <ele>1980.39</ele>
        <time>2022-02-09T10:55:13Z</time>
      </trkpt>
      <trkpt lat="44.91673" lon="6.57397">
        <ele>1982.15</ele>
        <time>2022-02-09T10:55:23Z</time>
      </trkpt>
      <trkpt lat="44.91671" lon="6.57394">
        <ele>1988.62</ele>
        <time>2022-02-09T10:55:32Z</time>
      </trkpt>
      <trkpt lat="44.91669" lon="6.57389">
        <ele>1990.42</ele>
        <time>2022-02-09T10:55:41Z</time>
      </trkpt>
      <trkpt lat="44.91667" lon="6.57386">
        <ele>1982.38</ele>
        <time>2022-02-09T10:55:51Z</time>
      </trkpt>
      <trkpt lat="44.91666" lon="6.57382">
        <ele>1977.57</ele>
        <time>2022-02-09T10:56:00Z</time>
      </trkpt>
      <trkpt lat="44.91664" lon="6.57378">
        <ele>1982.33</ele>
        <time>2022-02-09T10:56:10Z</time>
      </trkpt>
      <trkpt lat="44.91663" lon="6.57375">
        <ele>1997.63</ele>
        <time>2022-02-09T10:56:19Z</time>
      </trkpt>
      <trkpt lat="44.91659" lon="6.57372">
        <ele>1995.52</ele>
        <time>2022-02-09T10:56:28Z</time>
      </trkpt>
      <trkpt lat="44.91654" lon="6.57371">
        <ele>1987.5</ele>
        <time>2022-02-09T10:56:39Z</time>
      </trkpt>
      <trkpt lat="44.91653" lon="6.57371">
        <ele>1984.89</ele>
        <time>2022-02-09T10:56:48Z</time>
      </trkpt>
      <trkpt lat="44.9165" lon="6.57368">
        <ele>1993.95</ele>
        <time>2022-02-09T10:56:57Z</time>
      </trkpt>
      <trkpt lat="44.91646" lon="6.57365">
        <ele>1998</ele>
        <time>2022-02-09T10:57:07Z</time>
      </trkpt>
      <trkpt lat="44.91643" lon="6.57365">
        <ele>1996.75</ele>
        <time>2022-02-09T10:57:17Z</time>
      </trkpt>
      <trkpt lat="44.91641" lon="6.57363">
        <ele>1992.02</ele>
        <time>2022-02-09T10:57:27Z</time>
      </trkpt>
      <trkpt lat="44.9164" lon="6.57362">
        <ele>1983.54</ele>
        <time>2022-02-09T10:57:37Z</time>
      </trkpt>
      <trkpt lat="44.91639" lon="6.57362">
        <ele>1970.9</ele>
        <time>2022-02-09T10:57:46Z</time>
      </trkpt>
      <trkpt lat="44.91635" lon="6.57364">
        <ele>1998.03</ele>
        <time>2022-02-09T10:57:56Z</time>
      </trkpt>
      <trkpt lat="44.91632" lon="6.57365">
        <ele>1989.62</ele>
        <time>2022-02-09T10:58:06Z</time>
      </trkpt>
      <trkpt lat="44.91627" lon="6.57364">
        <ele>1997.25</ele>
        <time>2022-02-09T10:58:16Z</time>
      </trkpt>
      <trkpt lat="44.91624" lon="6.57362">
        <ele>2003.99</ele>
        <time>2022-02-09T10:58:26Z</time>
      </trkpt>
      <trkpt lat="44.91624" lon="6.57358">
        <ele>2002.73</ele>
        <time>2022-02-09T10:58:36Z</time>
      </trkpt>
      <trkpt lat="44.91621" lon="6.57358">
        <ele>2003.14</ele>
        <time>2022-02-09T10:58:46Z</time>
      </trkpt>
      <trkpt lat="44.9162" lon="6.57356">
        <ele>1992.33</ele>
        <time>2022-02-09T10:58:56Z</time>
      </trkpt>
      <trkpt lat="44.91618" lon="6.57353">
        <ele>1997.51</ele>
        <time>2022-02-09T10:59:05Z</time>
      </trkpt>
      <trkpt lat="44.91616" lon="6.57352">
        <ele>2003.69</ele>
        <time>2022-02-09T10:59:15Z</time>
      </trkpt>
      <trkpt lat="44.91612" lon="6.5735">
        <ele>1988.69</ele>
        <time>2022-02-09T10:59:25Z</time>
      </trkpt>
      <trkpt lat="44.91609" lon="6.57349">
        <ele>2005.7</ele>
        <time>2022-02-09T10:59:34Z</time>
      </trkpt>
      <trkpt lat="44.91607" lon="6.57348">
        <ele>2006.06</ele>
        <time>2022-02-09T10:59:43Z</time>
      </trkpt>
      <trkpt lat="44.91604" lon="6.57345">
        <ele>1992.68</ele>
        <time>2022-02-09T10:59:53Z</time>
      </trkpt>
      <trkpt lat="44.91599" lon="6.57342">
        <ele>2005.87</ele>
        <time>2022-02-09T11:00:03Z</time>
      </trkpt>
      <trkpt lat="44.91597" lon="6.57341">
        <ele>2007.24</ele>
        <time>2022-02-09T11:00:13Z</time>
      </trkpt>
      <trkpt lat="44.91595" lon="6.57339">
        <ele>1997.81</ele>
        <time>2022-02-09T11:00:22Z</time>
      </trkpt>
      <trkpt lat="44.91592" lon="6.57337">
        <ele>1993.68</ele>
        <time>2022-02-09T11:00:32Z</time>
      </trkpt>
      <trkpt lat="44.9159" lon="6.57336">
        <ele>2010.13</ele>
        <time>2022-02-09T11:00:41Z</time>
      </trkpt>
      <trkpt lat="44.91587" lon="6.57333">
        <ele>2012.87</ele>
        <time>2022-02-09T11:00:50Z</time>
      </trkpt>
      <trkpt lat="44.91584" lon="6.57328">
        <ele>2003.18</ele>
        <time>2022-02-09T11:01:00Z</time>
      </trkpt>
      <trkpt lat="44.91581" lon="6.57326">
        <ele>2007.47</ele>
        <time>2022-02-09T11:01:09Z</time>
      </trkpt>
      <trkpt lat="44.91579" lon="6.57323">
        <ele>2003.77</ele>
        <time>2022-02-09T11:01:19Z</time>
      </trkpt>
      <trkpt lat="44.91576" lon="6.57322">
        <ele>2014.07</ele>
        <time>2022-02-09T11:01:29Z</time>
      </trkpt>
      <trkpt lat="44.91572" lon="6.5732">
        <ele>2021.69</ele>
        <time>2022-02-09T11:01:39Z</time>
      </trkpt>
      <trkpt lat="44.91568" lon="6.57321">
        <ele>2014.97</ele>
        <time>2022-02-09T11:01:49Z</time>
      </trkpt>
      <trkpt lat="44.91567" lon="6.57323">
        <ele>2008.44</ele>
        <time>2022-02-09T11:01:58Z</time>
      </trkpt>
      <trkpt lat="44.91567" lon="6.57329">
        <ele>2009.33</ele>
        <time>2022-02-09T11:02:08Z</time>
      </trkpt>
      <trkpt lat="44.91566" lon="6.57334">
        <ele>2014.4</ele>
        <time>2022-02-09T11:02:18Z</time>
      </trkpt>
      <trkpt lat="44.91565" lon="6.57338">
        <ele>2025.15</ele>
        <time>2022-02-09T11:02:28Z</time>
      </trkpt>
      <trkpt lat="44.91562" lon="6.57338">
        <ele>2004.89</ele>
        <time>2022-02-09T11:02:38Z</time>
      </trkpt>
      <trkpt lat="44.9156" lon="6.57335">
        <ele>2011.38</ele>
        <time>2022-02-09T11:02:48Z</time>
      </trkpt>
      <trkpt lat="44.91557" lon="6.57331">
        <ele>2026.47</ele>
        <time>2022-02-09T11:02:58Z</time>
      </trkpt>
      <trkpt lat="44.91555" lon="6.57328">
        <ele>2026.87</ele>
        <time>2022-02-09T11:03:08Z</time>
      </trkpt>
      <trkpt lat="44.91554" lon="6.57327">
        <ele>2010.95</ele>
        <time>2022-02-09T11:03:18Z</time>
      </trkpt>
      <trkpt lat="44.91552" lon="6.57333">
        <ele>2012.21</ele>
        <time>2022-02-09T11:03:28Z</time>
      </trkpt>
      <trkpt lat="44.91551" lon="6.57339">
        <ele>2013.51</ele>
        <time>2022-02-09T11:03:37Z</time>
      </trkpt>
      <trkpt lat="44.91549" lon="6.57342">
        <ele>2014.79</ele>
        <time>2022-02-09T11:03:47Z</time>
      </trkpt>
      <trkpt lat="44.91547" lon="6.57344">
        <ele>2032.91</ele>
        <time>2022-02-09T11:03:56Z</time>
      </trkpt>
      <trkpt lat="44.91542" lon="6.57345">
        <ele>2033.31</ele>
        <time>2022-02-09T11:04:06Z</time>
      </trkpt>
      <trkpt lat="44.91539" lon="6.57349">
        <ele>2034.1</ele>
        <time>2022-02-09T11:04:16Z</time>
      </trkpt>
      <trkpt lat="44.91537" lon="6.57353">
        <ele>2033.49</ele>
        <time>2022-02-09T11:04:25Z</time>
      </trkpt>
      <trkpt lat="44.91533" lon="6.57358">
        <ele>2029.06</ele>
        <time>2022-02-09T11:04:34Z</time>
      </trkpt>
      <trkpt lat="44.91531" lon="6.57363">
        <ele>2034.56</ele>
        <time>2022-02-09T11:04:43Z</time>
      </trkpt>
      <trkpt lat="44.9153" lon="6.57371">
        <ele>2018.27</ele>
        <time>2022-02-09T11:04:52Z</time>
      </trkpt>
      <trkpt lat="44.9153" lon="6.57377">
        <ele>2036.07</ele>
        <time>2022-02-09T11:05:02Z</time>
      </trkpt>
      <trkpt lat="44.91527" lon="6.57384">
        <ele>2040.22</ele>
        <time>2022-02-09T11:05:12Z</time>
      </trkpt>
      <trkpt lat="44.91525" lon="6.57388">
        <ele>2020.74</ele>
        <time>2022-02-09T11:05:22Z</time>
      </trkpt>
      <trkpt lat="44.91523" lon="6.57388">
        <ele>2020.56</ele>
        <time>2022-02-09T11:05:31Z</time>
      </trkpt>
      <trkpt lat="44.9152" lon="6.57389">
        <ele>2037.23</ele>
        <time>2022-02-09T11:05:40Z</time>
      </trkpt>
      <trkpt lat="44.91518" lon="6.57393">
        <ele>2039.21</ele>
        <time>2022-02-09T11:05:50Z</time>
      </trkpt>
      <trkpt lat="44.91515" lon="6.57398">
        <ele>2042.24</ele>
        <time>2022-02-09T11:06:00Z</time>
      </trkpt>
      <trkpt lat="44.91514" lon="6.57404">
        <ele>2044.65</ele>
        <time>2022-02-09T11:06:10Z</time>
      </trkpt>
      <trkpt lat="44.91513" lon="6.5741">
        <ele>2020.99</ele>
        <time>2022-02-09T11:06:20Z</time>
      </trkpt>
      <trkpt lat="44.9151" lon="6.57412">
        <ele>2032.78</ele>
        <time>2022-02-09T11:06:29Z</time>
      </trkpt>
      <trkpt lat="44.91509" lon="6.57414">
        <ele>2044.95</ele>
        <time>2022-02-09T11:06:39Z</time>
      </trkpt>
      <trkpt lat="44.91509" lon="6.57417">
        <ele>2035.09</ele>
        <time>2022-02-09T11:06:48Z</time>
      </trkpt>
      <trkpt lat="44.91505" lon="6.5742">
        <ele>1959.91</ele>
        <time>2022-02-09T11:06:58Z</time>
      </trkpt>
      <trkpt lat="44.91501" lon="6.5742">
        <ele>1950.56</ele>
        <time>2022-02-09T11:07:08Z</time>
      </trkpt>
      <trkpt lat="44.91497" lon="6.57419">
        <ele>1950.5</ele>
        <time>2022-02-09T11:07:17Z</time>
      </trkpt>
      <trkpt lat="44.91497" lon="6.57415">
        <ele>1950.5</ele>
        <time>2022-02-09T11:07:26Z</time>
      </trkpt>
      <trkpt lat="44.91496" lon="6.5741">
        <ele>1950.5</ele>
        <time>2022-02-09T11:07:35Z</time>
      </trkpt>
      <trkpt lat="44.91495" lon="6.57401">
        <ele>1950.5</ele>
        <time>2022-02-09T11:07:45Z</time>
      </trkpt>
      <trkpt lat="44.91493" lon="6.57398">
        <ele>1950.5</ele>
        <time>2022-02-09T11:07:55Z</time>
      </trkpt>
      <trkpt lat="44.91489" lon="6.57396">
        <ele>1950.5</ele>
        <time>2022-02-09T11:08:04Z</time>
      </trkpt>
      <trkpt lat="44.91486" lon="6.57393">
        <ele>1950.5</ele>
        <time>2022-02-09T11:08:14Z</time>
      </trkpt>
      <trkpt lat="44.91484" lon="6.57386">
        <ele>1950.5</ele>
        <time>2022-02-09T11:08:23Z</time>
      </trkpt>
      <trkpt lat="44.91482" lon="6.57381">
        <ele>2047.94</ele>
        <time>2022-02-09T11:08:33Z</time>
      </trkpt>
      <trkpt lat="44.9148" lon="6.57376">
        <ele>2028.94</ele>
        <time>2022-02-09T11:08:42Z</time>
      </trkpt>
      <trkpt lat="44.91477" lon="6.57371">
        <ele>2049.94</ele>
        <time>2022-02-09T11:08:52Z</time>
      </trkpt>
      <trkpt lat="44.91474" lon="6.57366">
        <ele>2041.38</ele>
        <time>2022-02-09T11:09:02Z</time>
      </trkpt>
      <trkpt lat="44.91472" lon="6.57363">
        <ele>2038.42</ele>
        <time>2022-02-09T11:09:11Z</time>
      </trkpt>
      <trkpt lat="44.91468" lon="6.57362">
        <ele>2021.36</ele>
        <time>2022-02-09T11:09:21Z</time>
      </trkpt>
      <trkpt lat="44.91468" lon="6.57359">
        <ele>2024.06</ele>
        <time>2022-02-09T11:09:30Z</time>
      </trkpt>
      <trkpt lat="44.91466" lon="6.57361">
        <ele>2030.71</ele>
        <time>2022-02-09T11:09:40Z</time>
      </trkpt>
      <trkpt lat="44.91464" lon="6.57364">
        <ele>2056.33</ele>
        <time>2022-02-09T11:09:49Z</time>
      </trkpt>
      <trkpt lat="44.91462" lon="6.57366">
        <ele>2050.37</ele>
        <time>2022-02-09T11:09:59Z</time>
      </trkpt>
      <trkpt lat="44.91461" lon="6.57367">
        <ele>2044.89</ele>
        <time>2022-02-09T11:10:20Z</time>
      </trkpt>
      <trkpt lat="44.91455" lon="6.57367">
        <ele>2046.92</ele>
        <time>2022-02-09T11:10:30Z</time>
      </trkpt>
      <trkpt lat="44.91452" lon="6.5737">
        <ele>2048.69</ele>
        <time>2022-02-09T11:10:39Z</time>
      </trkpt>
      <trkpt lat="44.91449" lon="6.57372">
        <ele>2050.59</ele>
        <time>2022-02-09T11:10:49Z</time>
      </trkpt>
      <trkpt lat="44.91444" lon="6.57377">
        <ele>2037.75</ele>
        <time>2022-02-09T11:10:58Z</time>
      </trkpt>
      <trkpt lat="44.91439" lon="6.57384">
        <ele>2053.03</ele>
        <time>2022-02-09T11:11:08Z</time>
      </trkpt>
      <trkpt lat="44.91435" lon="6.57391">
        <ele>2062.01</ele>
        <time>2022-02-09T11:11:17Z</time>
      </trkpt>
      <trkpt lat="44.91431" lon="6.57401">
        <ele>2040.92</ele>
        <time>2022-02-09T11:11:27Z</time>
      </trkpt>
      <trkpt lat="44.91429" lon="6.57404">
        <ele>2065.92</ele>
        <time>2022-02-09T11:11:37Z</time>
      </trkpt>
      <trkpt lat="44.91427" lon="6.57409">
        <ele>2043.92</ele>
        <time>2022-02-09T11:11:47Z</time>
      </trkpt>
      <trkpt lat="44.91426" lon="6.57414">
        <ele>2054.04</ele>
        <time>2022-02-09T11:11:57Z</time>
      </trkpt>
      <trkpt lat="44.91425" lon="6.57417">
        <ele>2054.1</ele>
        <time>2022-02-09T11:12:06Z</time>
      </trkpt>
      <trkpt lat="44.91423" lon="6.57422">
        <ele>2070.35</ele>
        <time>2022-02-09T11:12:16Z</time>
      </trkpt>
      <trkpt lat="44.91421" lon="6.57426">
        <ele>2072.07</ele>
        <time>2022-02-09T11:12:26Z</time>
      </trkpt>
      <trkpt lat="44.91419" lon="6.57429">
        <ele>2047.5</ele>
        <time>2022-02-09T11:12:35Z</time>
      </trkpt>
      <trkpt lat="44.91418" lon="6.57435">
        <ele>2071.82</ele>
        <time>2022-02-09T11:12:45Z</time>
      </trkpt>
      <trkpt lat="44.91418" lon="6.5744">
        <ele>2057.6</ele>
        <time>2022-02-09T11:12:55Z</time>
      </trkpt>
      <trkpt lat="44.91416" lon="6.57444">
        <ele>2071.24</ele>
        <time>2022-02-09T11:13:05Z</time>
      </trkpt>
      <trkpt lat="44.91415" lon="6.57451">
        <ele>2074.66</ele>
        <time>2022-02-09T11:13:15Z</time>
      </trkpt>
      <trkpt lat="44.91414" lon="6.57457">
        <ele>2058.01</ele>
        <time>2022-02-09T11:13:25Z</time>
      </trkpt>
      <trkpt lat="44.91412" lon="6.57462">
        <ele>2075.52</ele>
        <time>2022-02-09T11:13:35Z</time>
      </trkpt>
      <trkpt lat="44.91409" lon="6.57465">
        <ele>2074.22</ele>
        <time>2022-02-09T11:13:45Z</time>
      </trkpt>
      <trkpt lat="44.91406" lon="6.57468">
        <ele>2049.24</ele>
        <time>2022-02-09T11:13:54Z</time>
      </trkpt>
      <trkpt lat="44.91404" lon="6.57468">
        <ele>1956.16</ele>
        <time>2022-02-09T11:14:03Z</time>
      </trkpt>
      <trkpt lat="44.91402" lon="6.57465">
        <ele>1950.52</ele>
        <time>2022-02-09T11:14:13Z</time>
      </trkpt>
      <trkpt lat="44.91401" lon="6.57458">
        <ele>1950.5</ele>
        <time>2022-02-09T11:14:23Z</time>
      </trkpt>
      <trkpt lat="44.91401" lon="6.57451">
        <ele>1950.5</ele>
        <time>2022-02-09T11:14:32Z</time>
      </trkpt>
      <trkpt lat="44.914" lon="6.57444">
        <ele>1950.5</ele>
        <time>2022-02-09T11:14:42Z</time>
      </trkpt>
      <trkpt lat="44.91398" lon="6.57441">
        <ele>1950.5</ele>
        <time>2022-02-09T11:14:51Z</time>
      </trkpt>
      <trkpt lat="44.91396" lon="6.57435">
        <ele>1950.5</ele>
        <time>2022-02-09T11:15:00Z</time>
      </trkpt>
      <trkpt lat="44.91396" lon="6.57434">
        <ele>1950.5</ele>
        <time>2022-02-09T11:15:10Z</time>
      </trkpt>
      <trkpt lat="44.91393" lon="6.57433">
        <ele>1950.5</ele>
        <time>2022-02-09T11:15:20Z</time>
      </trkpt>
      <trkpt lat="44.91391" lon="6.57435">
        <ele>1950.5</ele>
        <time>2022-02-09T11:15:29Z</time>
      </trkpt>
      <trkpt lat="44.91389" lon="6.57439">
        <ele>1950.5</ele>
        <time>2022-02-09T11:15:39Z</time>
      </trkpt>
      <trkpt lat="44.91388" lon="6.57441">
        <ele>1950.5</ele>
        <time>2022-02-09T11:15:48Z</time>
      </trkpt>
      <trkpt lat="44.91386" lon="6.57443">
        <ele>1950.5</ele>
        <time>2022-02-09T11:15:57Z</time>
      </trkpt>
      <trkpt lat="44.91385" lon="6.57447">
        <ele>2063.41</ele>
        <time>2022-02-09T11:16:07Z</time>
      </trkpt>
      <trkpt lat="44.91385" lon="6.57449">
        <ele>2059.27</ele>
        <time>2022-02-09T11:16:16Z</time>
      </trkpt>
      <trkpt lat="44.91384" lon="6.57452">
        <ele>2084.64</ele>
        <time>2022-02-09T11:16:25Z</time>
      </trkpt>
      <trkpt lat="44.91382" lon="6.57456">
        <ele>2070.01</ele>
        <time>2022-02-09T11:16:35Z</time>
      </trkpt>
      <trkpt lat="44.91381" lon="6.57458">
        <ele>2087.18</ele>
        <time>2022-02-09T11:16:45Z</time>
      </trkpt>
      <trkpt lat="44.9138" lon="6.57463">
        <ele>2059.67</ele>
        <time>2022-02-09T11:16:54Z</time>
      </trkpt>
      <trkpt lat="44.91379" lon="6.57467">
        <ele>2088.17</ele>
        <time>2022-02-09T11:17:04Z</time>
      </trkpt>
      <trkpt lat="44.91376" lon="6.57472">
        <ele>1951.33</ele>
        <time>2022-02-09T11:17:14Z</time>
      </trkpt>
      <trkpt lat="44.91375" lon="6.57477">
        <ele>1950.5</ele>
        <time>2022-02-09T11:17:24Z</time>
      </trkpt>
      <trkpt lat="44.91374" lon="6.57481">
        <ele>1950.5</ele>
        <time>2022-02-09T11:17:33Z</time>
      </trkpt>
      <trkpt lat="44.91375" lon="6.57486">
        <ele>1950.5</ele>
        <time>2022-02-09T11:17:42Z</time>
      </trkpt>
      <trkpt lat="44.91376" lon="6.57494">
        <ele>1950.5</ele>
        <time>2022-02-09T11:17:51Z</time>
      </trkpt>
      <trkpt lat="44.91375" lon="6.57496">
        <ele>1950.5</ele>
        <time>2022-02-09T11:18:01Z</time>
      </trkpt>
      <trkpt lat="44.91376" lon="6.575">
        <ele>1950.5</ele>
        <time>2022-02-09T11:18:11Z</time>
      </trkpt>
      <trkpt lat="44.91375" lon="6.57502">
        <ele>1950.5</ele>
        <time>2022-02-09T11:18:20Z</time>
      </trkpt>
      <trkpt lat="44.91373" lon="6.57509">
        <ele>1950.5</ele>
        <time>2022-02-09T11:18:29Z</time>
      </trkpt>
      <trkpt lat="44.91372" lon="6.57515">
        <ele>1950.5</ele>
        <time>2022-02-09T11:18:39Z</time>
      </trkpt>
      <trkpt lat="44.91371" lon="6.57511">
        <ele>1950.5</ele>
        <time>2022-02-09T11:18:49Z</time>
      </trkpt>
      <trkpt lat="44.91366" lon="6.57507">
        <ele>1950.5</ele>
        <time>2022-02-09T11:18:59Z</time>
      </trkpt>
      <trkpt lat="44.91365" lon="6.57502">
        <ele>1950.5</ele>
        <time>2022-02-09T11:19:08Z</time>
      </trkpt>
      <trkpt lat="44.91363" lon="6.57499">
        <ele>1950.24</ele>
        <time>2022-02-09T11:19:18Z</time>
      </trkpt>
      <trkpt lat="44.91361" lon="6.57496">
        <ele>1950.48</ele>
        <time>2022-02-09T11:19:27Z</time>
      </trkpt>
      <trkpt lat="44.91359" lon="6.57494">
        <ele>1950.5</ele>
        <time>2022-02-09T11:19:36Z</time>
      </trkpt>
      <trkpt lat="44.9136" lon="6.5749">
        <ele>1950.5</ele>
        <time>2022-02-09T11:19:46Z</time>
      </trkpt>
      <trkpt lat="44.91359" lon="6.57487">
        <ele>1950.5</ele>
        <time>2022-02-09T11:19:56Z</time>
      </trkpt>
      <trkpt lat="44.91358" lon="6.5748">
        <ele>1950.5</ele>
        <time>2022-02-09T11:20:06Z</time>
      </trkpt>
      <trkpt lat="44.91357" lon="6.57473">
        <ele>1950.5</ele>
        <time>2022-02-09T11:20:16Z</time>
      </trkpt>
      <trkpt lat="44.91354" lon="6.57473">
        <ele>1950.5</ele>
        <time>2022-02-09T11:20:26Z</time>
      </trkpt>
      <trkpt lat="44.91351" lon="6.57469">
        <ele>1950.5</ele>
        <time>2022-02-09T11:20:36Z</time>
      </trkpt>
      <trkpt lat="44.9135" lon="6.57467">
        <ele>1950.5</ele>
        <time>2022-02-09T11:20:46Z</time>
      </trkpt>
      <trkpt lat="44.91348" lon="6.57467">
        <ele>1950.5</ele>
        <time>2022-02-09T11:20:55Z</time>
      </trkpt>
      <trkpt lat="44.91345" lon="6.57467">
        <ele>1950.5</ele>
        <time>2022-02-09T11:21:05Z</time>
      </trkpt>
      <trkpt lat="44.91342" lon="6.57468">
        <ele>1950.5</ele>
        <time>2022-02-09T11:21:14Z</time>
      </trkpt>
      <trkpt lat="44.9134" lon="6.57469">
        <ele>1950.5</ele>
        <time>2022-02-09T11:21:24Z</time>
      </trkpt>
      <trkpt lat="44.91338" lon="6.57468">
        <ele>1950.5</ele>
        <time>2022-02-09T11:21:33Z</time>
      </trkpt>
      <trkpt lat="44.91334" lon="6.57467">
        <ele>1950.5</ele>
        <time>2022-02-09T11:21:43Z</time>
      </trkpt>
      <trkpt lat="44.91329" lon="6.57469">
        <ele>1950.5</ele>
        <time>2022-02-09T11:21:52Z</time>
      </trkpt>
      <trkpt lat="44.91327" lon="6.57472">
        <ele>1950.5</ele>
        <time>2022-02-09T11:22:02Z</time>
      </trkpt>
      <trkpt lat="44.91325" lon="6.57477">
        <ele>1950.5</ele>
        <time>2022-02-09T11:22:12Z</time>
      </trkpt>
      <trkpt lat="44.91326" lon="6.57481">
        <ele>1950.5</ele>
        <time>2022-02-09T11:22:23Z</time>
      </trkpt>
      <trkpt lat="44.91323" lon="6.57488">
        <ele>1950.5</ele>
        <time>2022-02-09T11:22:33Z</time>
      </trkpt>
      <trkpt lat="44.91319" lon="6.57489">
        <ele>1950.5</ele>
        <time>2022-02-09T11:22:42Z</time>
      </trkpt>
      <trkpt lat="44.91316" lon="6.57487">
        <ele>1950.5</ele>
        <time>2022-02-09T11:22:52Z</time>
      </trkpt>
      <trkpt lat="44.91312" lon="6.57486">
        <ele>1950.5</ele>
        <time>2022-02-09T11:23:02Z</time>
      </trkpt>
      <trkpt lat="44.91308" lon="6.5749">
        <ele>1950.5</ele>
        <time>2022-02-09T11:23:11Z</time>
      </trkpt>
      <trkpt lat="44.91312" lon="6.57491">
        <ele>1950.5</ele>
        <time>2022-02-09T11:23:21Z</time>
      </trkpt>
      <trkpt lat="44.91316" lon="6.57495">
        <ele>1950.5</ele>
        <time>2022-02-09T11:23:31Z</time>
      </trkpt>
      <trkpt lat="44.91319" lon="6.57503">
        <ele>1950.5</ele>
        <time>2022-02-09T11:23:41Z</time>
      </trkpt>
      <trkpt lat="44.9132" lon="6.57502">
        <ele>1950.5</ele>
        <time>2022-02-09T11:23:50Z</time>
      </trkpt>
      <trkpt lat="44.91322" lon="6.57503">
        <ele>1950.5</ele>
        <time>2022-02-09T11:24:00Z</time>
      </trkpt>
      <trkpt lat="44.91324" lon="6.57509">
        <ele>2079.31</ele>
        <time>2022-02-09T11:24:10Z</time>
      </trkpt>
      <trkpt lat="44.91323" lon="6.57516">
        <ele>2120.49</ele>
        <time>2022-02-09T11:24:20Z</time>
      </trkpt>
      <trkpt lat="44.91321" lon="6.57521">
        <ele>2120.26</ele>
        <time>2022-02-09T11:24:30Z</time>
      </trkpt>
      <trkpt lat="44.91321" lon="6.57528">
        <ele>2086.5</ele>
        <time>2022-02-09T11:24:40Z</time>
      </trkpt>
      <trkpt lat="44.9132" lon="6.5753">
        <ele>2121.49</ele>
        <time>2022-02-09T11:24:49Z</time>
      </trkpt>
      <trkpt lat="44.91318" lon="6.57531">
        <ele>2123.18</ele>
        <time>2022-02-09T11:24:59Z</time>
      </trkpt>
      <trkpt lat="44.91313" lon="6.57534">
        <ele>2089.04</ele>
        <time>2022-02-09T11:25:09Z</time>
      </trkpt>
      <trkpt lat="44.91309" lon="6.57538">
        <ele>2120.66</ele>
        <time>2022-02-09T11:25:18Z</time>
      </trkpt>
      <trkpt lat="44.91308" lon="6.57544">
        <ele>2121.55</ele>
        <time>2022-02-09T11:25:28Z</time>
      </trkpt>
      <trkpt lat="44.91303" lon="6.57546">
        <ele>2123.6</ele>
        <time>2022-02-09T11:25:37Z</time>
      </trkpt>
      <trkpt lat="44.91301" lon="6.57551">
        <ele>2115.87</ele>
        <time>2022-02-09T11:25:47Z</time>
      </trkpt>
      <trkpt lat="44.91299" lon="6.57554">
        <ele>2122.1</ele>
        <time>2022-02-09T11:25:57Z</time>
      </trkpt>
      <trkpt lat="44.91297" lon="6.57559">
        <ele>2090.84</ele>
        <time>2022-02-09T11:26:07Z</time>
      </trkpt>
      <trkpt lat="44.91296" lon="6.57565">
        <ele>2113.92</ele>
        <time>2022-02-09T11:26:16Z</time>
      </trkpt>
      <trkpt lat="44.91295" lon="6.57569">
        <ele>2093.2</ele>
        <time>2022-02-09T11:26:26Z</time>
      </trkpt>
      <trkpt lat="44.91294" lon="6.57575">
        <ele>2128.95</ele>
        <time>2022-02-09T11:26:36Z</time>
      </trkpt>
      <trkpt lat="44.91294" lon="6.57579">
        <ele>2107.37</ele>
        <time>2022-02-09T11:26:46Z</time>
      </trkpt>
      <trkpt lat="44.91293" lon="6.57582">
        <ele>2123.62</ele>
        <time>2022-02-09T11:26:56Z</time>
      </trkpt>
      <trkpt lat="44.9129" lon="6.57586">
        <ele>2131.8</ele>
        <time>2022-02-09T11:27:06Z</time>
      </trkpt>
      <trkpt lat="44.91287" lon="6.5759">
        <ele>2096.97</ele>
        <time>2022-02-09T11:27:15Z</time>
      </trkpt>
      <trkpt lat="44.91286" lon="6.57595">
        <ele>2094.61</ele>
        <time>2022-02-09T11:27:25Z</time>
      </trkpt>
      <trkpt lat="44.91288" lon="6.57598">
        <ele>2132.17</ele>
        <time>2022-02-09T11:27:35Z</time>
      </trkpt>
      <trkpt lat="44.91289" lon="6.57604">
        <ele>2109.21</ele>
        <time>2022-02-09T11:27:45Z</time>
      </trkpt>
      <trkpt lat="44.91289" lon="6.57609">
        <ele>2096.91</ele>
        <time>2022-02-09T11:27:54Z</time>
      </trkpt>
      <trkpt lat="44.91287" lon="6.57613">
        <ele>2096.42</ele>
        <time>2022-02-09T11:28:04Z</time>
      </trkpt>
      <trkpt lat="44.91283" lon="6.57615">
        <ele>2096.28</ele>
        <time>2022-02-09T11:28:13Z</time>
      </trkpt>
      <trkpt lat="44.91281" lon="6.57616">
        <ele>2132.26</ele>
        <time>2022-02-09T11:28:23Z</time>
      </trkpt>
      <trkpt lat="44.91277" lon="6.57617">
        <ele>2097.26</ele>
        <time>2022-02-09T11:28:33Z</time>
      </trkpt>
      <trkpt lat="44.91274" lon="6.57617">
        <ele>2133.63</ele>
        <time>2022-02-09T11:28:43Z</time>
      </trkpt>
      <trkpt lat="44.91271" lon="6.57617">
        <ele>2134</ele>
        <time>2022-02-09T11:28:53Z</time>
      </trkpt>
      <trkpt lat="44.91269" lon="6.57614">
        <ele>1990.07</ele>
        <time>2022-02-09T11:29:02Z</time>
      </trkpt>
      <trkpt lat="44.91266" lon="6.5761">
        <ele>1950.64</ele>
        <time>2022-02-09T11:29:12Z</time>
      </trkpt>
      <trkpt lat="44.91264" lon="6.57608">
        <ele>1950.5</ele>
        <time>2022-02-09T11:29:21Z</time>
      </trkpt>
      <trkpt lat="44.91262" lon="6.57611">
        <ele>1950.5</ele>
        <time>2022-02-09T11:29:30Z</time>
      </trkpt>
      <trkpt lat="44.9126" lon="6.57615">
        <ele>1950.5</ele>
        <time>2022-02-09T11:29:39Z</time>
      </trkpt>
      <trkpt lat="44.91256" lon="6.57617">
        <ele>1950.5</ele>
        <time>2022-02-09T11:29:49Z</time>
      </trkpt>
      <trkpt lat="44.91251" lon="6.57617">
        <ele>1950.5</ele>
        <time>2022-02-09T11:29:59Z</time>
      </trkpt>
      <trkpt lat="44.91249" lon="6.57617">
        <ele>1950.5</ele>
        <time>2022-02-09T11:30:08Z</time>
      </trkpt>
      <trkpt lat="44.91248" lon="6.57617">
        <ele>1950.5</ele>
        <time>2022-02-09T11:30:18Z</time>
      </trkpt>
      <trkpt lat="44.91249" lon="6.57616">
        <ele>1950.5</ele>
        <time>2022-02-09T11:30:28Z</time>
      </trkpt>
      <trkpt lat="44.9125" lon="6.57616">
        <ele>2082.48</ele>
        <time>2022-02-09T11:30:37Z</time>
      </trkpt>
      <trkpt lat="44.91251" lon="6.57615">
        <ele>2109.86</ele>
        <time>2022-02-09T11:30:47Z</time>
      </trkpt>
      <trkpt lat="44.91251" lon="6.57613">
        <ele>2126.44</ele>
        <time>2022-02-09T11:30:57Z</time>
      </trkpt>
      <trkpt lat="44.91251" lon="6.57614">
        <ele>2139.16</ele>
        <time>2022-02-09T11:31:40Z</time>
      </trkpt>
      <trkpt lat="44.91252" lon="6.57614">
        <ele>2138.38</ele>
        <time>2022-02-09T11:32:02Z</time>
      </trkpt>
      <trkpt lat="44.91253" lon="6.57615">
        <ele>2093.2</ele>
        <time>2022-02-09T11:32:29Z</time>
      </trkpt>
      <trkpt lat="44.91253" lon="6.57614">
        <ele>2140.31</ele>
        <time>2022-02-09T11:32:45Z</time>
      </trkpt>
      <trkpt lat="44.91253" lon="6.57613">
        <ele>2141.36</ele>
        <time>2022-02-09T11:33:06Z</time>
      </trkpt>
      <trkpt lat="44.91252" lon="6.57614">
        <ele>2130.82</ele>
        <time>2022-02-09T11:33:56Z</time>
      </trkpt>
      <trkpt lat="44.91252" lon="6.57613">
        <ele>2122.26</ele>
        <time>2022-02-09T11:34:26Z</time>
      </trkpt>
      <trkpt lat="44.91251" lon="6.57614">
        <ele>2129.94</ele>
        <time>2022-02-09T11:35:41Z</time>
      </trkpt>
      <trkpt lat="44.91251" lon="6.57616">
        <ele>2087.6</ele>
        <time>2022-02-09T11:36:02Z</time>
      </trkpt>
      <trkpt lat="44.9125" lon="6.57618">
        <ele>2117.31</ele>
        <time>2022-02-09T11:36:12Z</time>
      </trkpt>
      <trkpt lat="44.9125" lon="6.57619">
        <ele>2139.6</ele>
        <time>2022-02-09T11:36:40Z</time>
      </trkpt>
      <trkpt lat="44.91251" lon="6.57618">
        <ele>2090.56</ele>
        <time>2022-02-09T11:37:16Z</time>
      </trkpt>
      <trkpt lat="44.91252" lon="6.57617">
        <ele>2108.46</ele>
        <time>2022-02-09T11:39:13Z</time>
      </trkpt>
      <trkpt lat="44.91253" lon="6.57617">
        <ele>2126.76</ele>
        <time>2022-02-09T11:39:23Z</time>
      </trkpt>
      <trkpt lat="44.91252" lon="6.57617">
        <ele>2102.42</ele>
        <time>2022-02-09T11:40:16Z</time>
      </trkpt>
      <trkpt lat="44.91252" lon="6.57618">
        <ele>2138.21</ele>
        <time>2022-02-09T11:40:57Z</time>
      </trkpt>
      <trkpt lat="44.91252" lon="6.57617">
        <ele>2138.5</ele>
        <time>2022-02-09T11:46:56Z</time>
      </trkpt>
      <trkpt lat="44.91252" lon="6.57616">
        <ele>2115.58</ele>
        <time>2022-02-09T11:47:06Z</time>
      </trkpt>
      <trkpt lat="44.91253" lon="6.57615">
        <ele>2140.3</ele>
        <time>2022-02-09T11:47:35Z</time>
      </trkpt>
      <trkpt lat="44.91252" lon="6.57613">
        <ele>1950.53</ele>
        <time>2022-02-09T11:47:56Z</time>
      </trkpt>
      <trkpt lat="44.91252" lon="6.57612">
        <ele>1950.5</ele>
        <time>2022-02-09T11:48:10Z</time>
      </trkpt>
      <trkpt lat="44.91252" lon="6.57613">
        <ele>1950.5</ele>
        <time>2022-02-09T11:48:49Z</time>
      </trkpt>
      <trkpt lat="44.91251" lon="6.57614">
        <ele>1950.5</ele>
        <time>2022-02-09T11:48:59Z</time>
      </trkpt>
      <trkpt lat="44.9125" lon="6.57613">
        <ele>1950.5</ele>
        <time>2022-02-09T11:49:26Z</time>
      </trkpt>
      <trkpt lat="44.91244" lon="6.5761">
        <ele>1950.5</ele>
        <time>2022-02-09T11:49:36Z</time>
      </trkpt>
      <trkpt lat="44.91241" lon="6.57607">
        <ele>1950.5</ele>
        <time>2022-02-09T11:49:46Z</time>
      </trkpt>
      <trkpt lat="44.91239" lon="6.57603">
        <ele>1950.5</ele>
        <time>2022-02-09T11:49:56Z</time>
      </trkpt>
      <trkpt lat="44.91235" lon="6.576">
        <ele>1950.5</ele>
        <time>2022-02-09T11:50:06Z</time>
      </trkpt>
      <trkpt lat="44.91231" lon="6.57598">
        <ele>1950.5</ele>
        <time>2022-02-09T11:50:16Z</time>
      </trkpt>
      <trkpt lat="44.91227" lon="6.57598">
        <ele>1950.5</ele>
        <time>2022-02-09T11:50:26Z</time>
      </trkpt>
      <trkpt lat="44.91221" lon="6.57598">
        <ele>1950.5</ele>
        <time>2022-02-09T11:50:36Z</time>
      </trkpt>
      <trkpt lat="44.91217" lon="6.576">
        <ele>1950.5</ele>
        <time>2022-02-09T11:50:46Z</time>
      </trkpt>
      <trkpt lat="44.91215" lon="6.576">
        <ele>1950.5</ele>
        <time>2022-02-09T11:50:55Z</time>
      </trkpt>
      <trkpt lat="44.91211" lon="6.576">
        <ele>1950.5</ele>
        <time>2022-02-09T11:51:05Z</time>
      </trkpt>
      <trkpt lat="44.91208" lon="6.576">
        <ele>1950.5</ele>
        <time>2022-02-09T11:51:15Z</time>
      </trkpt>
      <trkpt lat="44.91204" lon="6.57599">
        <ele>1950.5</ele>
        <time>2022-02-09T11:51:24Z</time>
      </trkpt>
      <trkpt lat="44.91201" lon="6.57598">
        <ele>1950.5</ele>
        <time>2022-02-09T11:51:34Z</time>
      </trkpt>
      <trkpt lat="44.91198" lon="6.57595">
        <ele>1950.5</ele>
        <time>2022-02-09T11:51:44Z</time>
      </trkpt>
      <trkpt lat="44.91193" lon="6.57591">
        <ele>1950.5</ele>
        <time>2022-02-09T11:51:54Z</time>
      </trkpt>
      <trkpt lat="44.91191" lon="6.57591">
        <ele>1950.5</ele>
        <time>2022-02-09T11:52:03Z</time>
      </trkpt>
      <trkpt lat="44.91189" lon="6.57595">
        <ele>1950.5</ele>
        <time>2022-02-09T11:52:13Z</time>
      </trkpt>
      <trkpt lat="44.91184" lon="6.57598">
        <ele>1950.5</ele>
        <time>2022-02-09T11:52:23Z</time>
      </trkpt>
      <trkpt lat="44.91178" lon="6.57598">
        <ele>1950.5</ele>
        <time>2022-02-09T11:52:32Z</time>
      </trkpt>
      <trkpt lat="44.91174" lon="6.57598">
        <ele>1950.5</ele>
        <time>2022-02-09T11:52:42Z</time>
      </trkpt>
      <trkpt lat="44.91171" lon="6.57598">
        <ele>1950.5</ele>
        <time>2022-02-09T11:52:51Z</time>
      </trkpt>
      <trkpt lat="44.91165" lon="6.57596">
        <ele>2053.44</ele>
        <time>2022-02-09T11:53:01Z</time>
      </trkpt>
      <trkpt lat="44.91162" lon="6.57595">
        <ele>2153.09</ele>
        <time>2022-02-09T11:53:10Z</time>
      </trkpt>
      <trkpt lat="44.91158" lon="6.57598">
        <ele>2153.7</ele>
        <time>2022-02-09T11:53:20Z</time>
      </trkpt>
      <trkpt lat="44.91158" lon="6.57599">
        <ele>2154.23</ele>
        <time>2022-02-09T11:53:30Z</time>
      </trkpt>
      <trkpt lat="44.91153" lon="6.57597">
        <ele>2154.92</ele>
        <time>2022-02-09T11:53:39Z</time>
      </trkpt>
      <trkpt lat="44.91145" lon="6.576">
        <ele>2155.32</ele>
        <time>2022-02-09T11:53:49Z</time>
      </trkpt>
      <trkpt lat="44.91138" lon="6.57597">
        <ele>2156.17</ele>
        <time>2022-02-09T11:53:59Z</time>
      </trkpt>
      <trkpt lat="44.91131" lon="6.57595">
        <ele>2142.63</ele>
        <time>2022-02-09T11:54:09Z</time>
      </trkpt>
      <trkpt lat="44.91124" lon="6.57593">
        <ele>2205.78</ele>
        <time>2022-02-09T11:54:19Z</time>
      </trkpt>
      <trkpt lat="44.91119" lon="6.57589">
        <ele>2206.9</ele>
        <time>2022-02-09T11:54:29Z</time>
      </trkpt>
      <trkpt lat="44.91115" lon="6.57586">
        <ele>2206.67</ele>
        <time>2022-02-09T11:54:38Z</time>
      </trkpt>
      <trkpt lat="44.91103" lon="6.57582">
        <ele>2197.36</ele>
        <time>2022-02-09T11:54:47Z</time>
      </trkpt>
      <trkpt lat="44.91096" lon="6.57574">
        <ele>2197.45</ele>
        <time>2022-02-09T11:54:57Z</time>
      </trkpt>
      <trkpt lat="44.91092" lon="6.57571">
        <ele>2213.25</ele>
        <time>2022-02-09T11:55:06Z</time>
      </trkpt>
      <trkpt lat="44.91084" lon="6.5757">
        <ele>2212.28</ele>
        <time>2022-02-09T11:55:16Z</time>
      </trkpt>
      <trkpt lat="44.91081" lon="6.57571">
        <ele>2220.02</ele>
        <time>2022-02-09T11:55:25Z</time>
      </trkpt>
      <trkpt lat="44.91079" lon="6.57571">
        <ele>2217.78</ele>
        <time>2022-02-09T11:55:35Z</time>
      </trkpt>
      <trkpt lat="44.91076" lon="6.57571">
        <ele>2217.51</ele>
        <time>2022-02-09T11:55:45Z</time>
      </trkpt>
      <trkpt lat="44.91072" lon="6.5757">
        <ele>2218.67</ele>
        <time>2022-02-09T11:55:54Z</time>
      </trkpt>
      <trkpt lat="44.91067" lon="6.57566">
        <ele>2220.03</ele>
        <time>2022-02-09T11:56:04Z</time>
      </trkpt>
      <trkpt lat="44.91061" lon="6.57563">
        <ele>2220.86</ele>
        <time>2022-02-09T11:56:14Z</time>
      </trkpt>
      <trkpt lat="44.91056" lon="6.57559">
        <ele>2219.47</ele>
        <time>2022-02-09T11:56:23Z</time>
      </trkpt>
      <trkpt lat="44.91053" lon="6.57553">
        <ele>2220.4</ele>
        <time>2022-02-09T11:56:32Z</time>
      </trkpt>
      <trkpt lat="44.91052" lon="6.57551">
        <ele>2223.88</ele>
        <time>2022-02-09T11:56:42Z</time>
      </trkpt>
      <trkpt lat="44.91051" lon="6.57549">
        <ele>2225.67</ele>
        <time>2022-02-09T11:56:51Z</time>
      </trkpt>
      <trkpt lat="44.91048" lon="6.57547">
        <ele>2227.54</ele>
        <time>2022-02-09T11:57:01Z</time>
      </trkpt>
      <trkpt lat="44.91046" lon="6.57545">
        <ele>2230.79</ele>
        <time>2022-02-09T11:57:10Z</time>
      </trkpt>
      <trkpt lat="44.91043" lon="6.57541">
        <ele>2228.52</ele>
        <time>2022-02-09T11:57:20Z</time>
      </trkpt>
      <trkpt lat="44.91039" lon="6.57541">
        <ele>2229.66</ele>
        <time>2022-02-09T11:57:30Z</time>
      </trkpt>
      <trkpt lat="44.91036" lon="6.57544">
        <ele>2228.64</ele>
        <time>2022-02-09T11:57:40Z</time>
      </trkpt>
      <trkpt lat="44.91033" lon="6.57542">
        <ele>2229.01</ele>
        <time>2022-02-09T11:57:50Z</time>
      </trkpt>
      <trkpt lat="44.91029" lon="6.57538">
        <ele>2230.75</ele>
        <time>2022-02-09T11:58:00Z</time>
      </trkpt>
      <trkpt lat="44.91022" lon="6.57532">
        <ele>2228.77</ele>
        <time>2022-02-09T11:58:10Z</time>
      </trkpt>
      <trkpt lat="44.91019" lon="6.57531">
        <ele>2229.89</ele>
        <time>2022-02-09T11:58:20Z</time>
      </trkpt>
      <trkpt lat="44.91015" lon="6.57528">
        <ele>2231.9</ele>
        <time>2022-02-09T11:58:29Z</time>
      </trkpt>
      <trkpt lat="44.91011" lon="6.57523">
        <ele>2231.8</ele>
        <time>2022-02-09T11:58:39Z</time>
      </trkpt>
      <trkpt lat="44.91009" lon="6.57517">
        <ele>2233.74</ele>
        <time>2022-02-09T11:58:49Z</time>
      </trkpt>
      <trkpt lat="44.91006" lon="6.57515">
        <ele>2231.69</ele>
        <time>2022-02-09T11:58:59Z</time>
      </trkpt>
      <trkpt lat="44.91003" lon="6.57513">
        <ele>2232.18</ele>
        <time>2022-02-09T11:59:08Z</time>
      </trkpt>
      <trkpt lat="44.91001" lon="6.5751">
        <ele>2233.48</ele>
        <time>2022-02-09T11:59:18Z</time>
      </trkpt>
      <trkpt lat="44.90997" lon="6.5751">
        <ele>2235.75</ele>
        <time>2022-02-09T11:59:28Z</time>
      </trkpt>
      <trkpt lat="44.90994" lon="6.57507">
        <ele>2239.8</ele>
        <time>2022-02-09T11:59:38Z</time>
      </trkpt>
      <trkpt lat="44.90992" lon="6.57505">
        <ele>2237.16</ele>
        <time>2022-02-09T11:59:48Z</time>
      </trkpt>
      <trkpt lat="44.90988" lon="6.57504">
        <ele>2238.12</ele>
        <time>2022-02-09T11:59:58Z</time>
      </trkpt>
      <trkpt lat="44.90986" lon="6.57504">
        <ele>2237.48</ele>
        <time>2022-02-09T12:00:07Z</time>
      </trkpt>
      <trkpt lat="44.90981" lon="6.57504">
        <ele>2237.6</ele>
        <time>2022-02-09T12:00:16Z</time>
      </trkpt>
      <trkpt lat="44.90976" lon="6.57503">
        <ele>2238.06</ele>
        <time>2022-02-09T12:00:26Z</time>
      </trkpt>
      <trkpt lat="44.90973" lon="6.575">
        <ele>2239.02</ele>
        <time>2022-02-09T12:00:36Z</time>
      </trkpt>
      <trkpt lat="44.9097" lon="6.57499">
        <ele>2239.41</ele>
        <time>2022-02-09T12:00:45Z</time>
      </trkpt>
      <trkpt lat="44.90967" lon="6.57499">
        <ele>2241.31</ele>
        <time>2022-02-09T12:00:55Z</time>
      </trkpt>
      <trkpt lat="44.90965" lon="6.57499">
        <ele>2245.59</ele>
        <time>2022-02-09T12:01:05Z</time>
      </trkpt>
      <trkpt lat="44.90961" lon="6.57495">
        <ele>2244.27</ele>
        <time>2022-02-09T12:01:15Z</time>
      </trkpt>
      <trkpt lat="44.90954" lon="6.57493">
        <ele>2244.57</ele>
        <time>2022-02-09T12:01:25Z</time>
      </trkpt>
      <trkpt lat="44.9095" lon="6.57489">
        <ele>2240.88</ele>
        <time>2022-02-09T12:01:34Z</time>
      </trkpt>
      <trkpt lat="44.90945" lon="6.57485">
        <ele>2242.44</ele>
        <time>2022-02-09T12:01:44Z</time>
      </trkpt>
      <trkpt lat="44.90941" lon="6.57484">
        <ele>2240.39</ele>
        <time>2022-02-09T12:01:54Z</time>
      </trkpt>
      <trkpt lat="44.90942" lon="6.57483">
        <ele>2243.96</ele>
        <time>2022-02-09T12:02:03Z</time>
      </trkpt>
      <trkpt lat="44.90941" lon="6.5748">
        <ele>2249.56</ele>
        <time>2022-02-09T12:02:13Z</time>
      </trkpt>
      <trkpt lat="44.90937" lon="6.5748">
        <ele>2249.5</ele>
        <time>2022-02-09T12:02:23Z</time>
      </trkpt>
      <trkpt lat="44.90933" lon="6.57483">
        <ele>2252</ele>
        <time>2022-02-09T12:02:33Z</time>
      </trkpt>
      <trkpt lat="44.90932" lon="6.57491">
        <ele>2251.2</ele>
        <time>2022-02-09T12:02:43Z</time>
      </trkpt>
      <trkpt lat="44.90928" lon="6.57497">
        <ele>2251.18</ele>
        <time>2022-02-09T12:02:52Z</time>
      </trkpt>
      <trkpt lat="44.90924" lon="6.57503">
        <ele>2249.76</ele>
        <time>2022-02-09T12:03:02Z</time>
      </trkpt>
      <trkpt lat="44.90924" lon="6.5751">
        <ele>2246.37</ele>
        <time>2022-02-09T12:03:11Z</time>
      </trkpt>
      <trkpt lat="44.90925" lon="6.57516">
        <ele>2249.96</ele>
        <time>2022-02-09T12:03:21Z</time>
      </trkpt>
      <trkpt lat="44.90924" lon="6.57517">
        <ele>2249.22</ele>
        <time>2022-02-09T12:03:31Z</time>
      </trkpt>
      <trkpt lat="44.90921" lon="6.57518">
        <ele>2256.31</ele>
        <time>2022-02-09T12:03:41Z</time>
      </trkpt>
      <trkpt lat="44.90915" lon="6.5751">
        <ele>2254.36</ele>
        <time>2022-02-09T12:03:51Z</time>
      </trkpt>
      <trkpt lat="44.9091" lon="6.57508">
        <ele>2251.29</ele>
        <time>2022-02-09T12:04:01Z</time>
      </trkpt>
      <trkpt lat="44.90907" lon="6.57508">
        <ele>2259.99</ele>
        <time>2022-02-09T12:04:11Z</time>
      </trkpt>
      <trkpt lat="44.90903" lon="6.57507">
        <ele>2256.25</ele>
        <time>2022-02-09T12:04:21Z</time>
      </trkpt>
      <trkpt lat="44.909" lon="6.57506">
        <ele>2257.83</ele>
        <time>2022-02-09T12:04:30Z</time>
      </trkpt>
      <trkpt lat="44.90897" lon="6.57505">
        <ele>2254.08</ele>
        <time>2022-02-09T12:04:40Z</time>
      </trkpt>
      <trkpt lat="44.90893" lon="6.57502">
        <ele>2254.21</ele>
        <time>2022-02-09T12:04:49Z</time>
      </trkpt>
      <trkpt lat="44.90889" lon="6.57503">
        <ele>2262.39</ele>
        <time>2022-02-09T12:05:00Z</time>
      </trkpt>
      <trkpt lat="44.90884" lon="6.57504">
        <ele>2263.72</ele>
        <time>2022-02-09T12:05:09Z</time>
      </trkpt>
      <trkpt lat="44.90881" lon="6.57504">
        <ele>2263.94</ele>
        <time>2022-02-09T12:05:19Z</time>
      </trkpt>
      <trkpt lat="44.90878" lon="6.57504">
        <ele>2257.73</ele>
        <time>2022-02-09T12:05:29Z</time>
      </trkpt>
      <trkpt lat="44.90874" lon="6.57502">
        <ele>2258.12</ele>
        <time>2022-02-09T12:05:39Z</time>
      </trkpt>
      <trkpt lat="44.9087" lon="6.57502">
        <ele>2265.68</ele>
        <time>2022-02-09T12:05:48Z</time>
      </trkpt>
      <trkpt lat="44.90869" lon="6.57504">
        <ele>2258.29</ele>
        <time>2022-02-09T12:05:58Z</time>
      </trkpt>
      <trkpt lat="44.90865" lon="6.57504">
        <ele>2267.05</ele>
        <time>2022-02-09T12:06:07Z</time>
      </trkpt>
      <trkpt lat="44.90862" lon="6.57506">
        <ele>2257.64</ele>
        <time>2022-02-09T12:06:17Z</time>
      </trkpt>
      <trkpt lat="44.90863" lon="6.5751">
        <ele>2257</ele>
        <time>2022-02-09T12:06:26Z</time>
      </trkpt>
      <trkpt lat="44.90866" lon="6.57512">
        <ele>2265.82</ele>
        <time>2022-02-09T12:06:36Z</time>
      </trkpt>
      <trkpt lat="44.9087" lon="6.57517">
        <ele>2258.88</ele>
        <time>2022-02-09T12:06:46Z</time>
      </trkpt>
      <trkpt lat="44.90873" lon="6.57522">
        <ele>2259.7</ele>
        <time>2022-02-09T12:06:55Z</time>
      </trkpt>
      <trkpt lat="44.90874" lon="6.57525">
        <ele>2268.58</ele>
        <time>2022-02-09T12:07:05Z</time>
      </trkpt>
      <trkpt lat="44.90875" lon="6.57527">
        <ele>2256.97</ele>
        <time>2022-02-09T12:07:14Z</time>
      </trkpt>
      <trkpt lat="44.90877" lon="6.57528">
        <ele>2261.45</ele>
        <time>2022-02-09T12:07:23Z</time>
      </trkpt>
      <trkpt lat="44.9088" lon="6.57532">
        <ele>2271.44</ele>
        <time>2022-02-09T12:07:33Z</time>
      </trkpt>
      <trkpt lat="44.90885" lon="6.57537">
        <ele>2254.32</ele>
        <time>2022-02-09T12:07:42Z</time>
      </trkpt>
      <trkpt lat="44.90887" lon="6.5754">
        <ele>2267.28</ele>
        <time>2022-02-09T12:07:52Z</time>
      </trkpt>
      <trkpt lat="44.90889" lon="6.57543">
        <ele>2262.3</ele>
        <time>2022-02-09T12:08:01Z</time>
      </trkpt>
      <trkpt lat="44.9089" lon="6.57545">
        <ele>2263.89</ele>
        <time>2022-02-09T12:08:10Z</time>
      </trkpt>
      <trkpt lat="44.90889" lon="6.5755">
        <ele>2274.93</ele>
        <time>2022-02-09T12:08:20Z</time>
      </trkpt>
      <trkpt lat="44.90884" lon="6.57546">
        <ele>2268.69</ele>
        <time>2022-02-09T12:08:29Z</time>
      </trkpt>
      <trkpt lat="44.9088" lon="6.57548">
        <ele>2271.34</ele>
        <time>2022-02-09T12:08:39Z</time>
      </trkpt>
      <trkpt lat="44.90875" lon="6.57552">
        <ele>2285.35</ele>
        <time>2022-02-09T12:08:49Z</time>
      </trkpt>
      <trkpt lat="44.90871" lon="6.57554">
        <ele>2277.02</ele>
        <time>2022-02-09T12:08:59Z</time>
      </trkpt>
      <trkpt lat="44.90866" lon="6.57553">
        <ele>2269.89</ele>
        <time>2022-02-09T12:09:08Z</time>
      </trkpt>
      <trkpt lat="44.90864" lon="6.57553">
        <ele>2284.92</ele>
        <time>2022-02-09T12:09:18Z</time>
      </trkpt>
      <trkpt lat="44.90862" lon="6.57554">
        <ele>2280.2</ele>
        <time>2022-02-09T12:09:28Z</time>
      </trkpt>
      <trkpt lat="44.90854" lon="6.57557">
        <ele>2267.79</ele>
        <time>2022-02-09T12:09:38Z</time>
      </trkpt>
      <trkpt lat="44.90848" lon="6.57556">
        <ele>2274.91</ele>
        <time>2022-02-09T12:09:47Z</time>
      </trkpt>
      <trkpt lat="44.90849" lon="6.57565">
        <ele>2267.65</ele>
        <time>2022-02-09T12:09:57Z</time>
      </trkpt>
      <trkpt lat="44.9085" lon="6.57572">
        <ele>2278.68</ele>
        <time>2022-02-09T12:10:07Z</time>
      </trkpt>
      <trkpt lat="44.90845" lon="6.57569">
        <ele>2292.01</ele>
        <time>2022-02-09T12:10:17Z</time>
      </trkpt>
      <trkpt lat="44.90843" lon="6.57567">
        <ele>2283.66</ele>
        <time>2022-02-09T12:10:27Z</time>
      </trkpt>
      <trkpt lat="44.90842" lon="6.57568">
        <ele>2283.86</ele>
        <time>2022-02-09T12:10:36Z</time>
      </trkpt>
      <trkpt lat="44.90839" lon="6.57573">
        <ele>2281.96</ele>
        <time>2022-02-09T12:10:46Z</time>
      </trkpt>
      <trkpt lat="44.90835" lon="6.57574">
        <ele>2285.32</ele>
        <time>2022-02-09T12:10:55Z</time>
      </trkpt>
      <trkpt lat="44.90832" lon="6.57578">
        <ele>2281.57</ele>
        <time>2022-02-09T12:11:05Z</time>
      </trkpt>
      <trkpt lat="44.90831" lon="6.57579">
        <ele>2286.31</ele>
        <time>2022-02-09T12:11:14Z</time>
      </trkpt>
      <trkpt lat="44.90829" lon="6.5758">
        <ele>2288.07</ele>
        <time>2022-02-09T12:11:23Z</time>
      </trkpt>
      <trkpt lat="44.90826" lon="6.57581">
        <ele>2277.83</ele>
        <time>2022-02-09T12:11:33Z</time>
      </trkpt>
      <trkpt lat="44.90824" lon="6.57583">
        <ele>2275.56</ele>
        <time>2022-02-09T12:11:42Z</time>
      </trkpt>
      <trkpt lat="44.9082" lon="6.57584">
        <ele>2277.06</ele>
        <time>2022-02-09T12:11:51Z</time>
      </trkpt>
      <trkpt lat="44.90815" lon="6.57586">
        <ele>2287.75</ele>
        <time>2022-02-09T12:12:00Z</time>
      </trkpt>
      <trkpt lat="44.90808" lon="6.57588">
        <ele>2218.52</ele>
        <time>2022-02-09T12:12:10Z</time>
      </trkpt>
      <trkpt lat="44.90802" lon="6.57585">
        <ele>2162.81</ele>
        <time>2022-02-09T12:12:19Z</time>
      </trkpt>
      <trkpt lat="44.90798" lon="6.57583">
        <ele>2160.25</ele>
        <time>2022-02-09T12:12:29Z</time>
      </trkpt>
      <trkpt lat="44.90794" lon="6.57582">
        <ele>2161.67</ele>
        <time>2022-02-09T12:12:39Z</time>
      </trkpt>
      <trkpt lat="44.90794" lon="6.57577">
        <ele>2162.29</ele>
        <time>2022-02-09T12:12:49Z</time>
      </trkpt>
      <trkpt lat="44.90793" lon="6.57575">
        <ele>2163.3</ele>
        <time>2022-02-09T12:12:59Z</time>
      </trkpt>
      <trkpt lat="44.90792" lon="6.57572">
        <ele>2171.19</ele>
        <time>2022-02-09T12:13:09Z</time>
      </trkpt>
      <trkpt lat="44.90788" lon="6.5757">
        <ele>2176.71</ele>
        <time>2022-02-09T12:13:19Z</time>
      </trkpt>
      <trkpt lat="44.90785" lon="6.57569">
        <ele>2224.39</ele>
        <time>2022-02-09T12:13:29Z</time>
      </trkpt>
      <trkpt lat="44.90782" lon="6.57573">
        <ele>2201.48</ele>
        <time>2022-02-09T12:13:38Z</time>
      </trkpt>
      <trkpt lat="44.90785" lon="6.57579">
        <ele>2226.05</ele>
        <time>2022-02-09T12:13:48Z</time>
      </trkpt>
      <trkpt lat="44.90789" lon="6.57582">
        <ele>2226.95</ele>
        <time>2022-02-09T12:13:58Z</time>
      </trkpt>
      <trkpt lat="44.90792" lon="6.57585">
        <ele>2168.6</ele>
        <time>2022-02-09T12:14:07Z</time>
      </trkpt>
      <trkpt lat="44.90794" lon="6.5759">
        <ele>2168.76</ele>
        <time>2022-02-09T12:14:17Z</time>
      </trkpt>
      <trkpt lat="44.90795" lon="6.57592">
        <ele>2216.52</ele>
        <time>2022-02-09T12:14:26Z</time>
      </trkpt>
      <trkpt lat="44.90797" lon="6.57595">
        <ele>2229.29</ele>
        <time>2022-02-09T12:14:35Z</time>
      </trkpt>
      <trkpt lat="44.908" lon="6.57598">
        <ele>2172.64</ele>
        <time>2022-02-09T12:14:45Z</time>
      </trkpt>
      <trkpt lat="44.90802" lon="6.57604">
        <ele>2171.53</ele>
        <time>2022-02-09T12:14:54Z</time>
      </trkpt>
      <trkpt lat="44.90797" lon="6.57611">
        <ele>2170.52</ele>
        <time>2022-02-09T12:15:04Z</time>
      </trkpt>
      <trkpt lat="44.90792" lon="6.57603">
        <ele>2172.08</ele>
        <time>2022-02-09T12:15:14Z</time>
      </trkpt>
      <trkpt lat="44.90787" lon="6.57602">
        <ele>2172.56</ele>
        <time>2022-02-09T12:15:24Z</time>
      </trkpt>
      <trkpt lat="44.90782" lon="6.576">
        <ele>2229.68</ele>
        <time>2022-02-09T12:15:34Z</time>
      </trkpt>
      <trkpt lat="44.90777" lon="6.576">
        <ele>2172.97</ele>
        <time>2022-02-09T12:15:43Z</time>
      </trkpt>
      <trkpt lat="44.90773" lon="6.57605">
        <ele>2173.14</ele>
        <time>2022-02-09T12:15:52Z</time>
      </trkpt>
      <trkpt lat="44.9077" lon="6.57611">
        <ele>2173.01</ele>
        <time>2022-02-09T12:16:02Z</time>
      </trkpt>
      <trkpt lat="44.90768" lon="6.57615">
        <ele>2173.36</ele>
        <time>2022-02-09T12:16:12Z</time>
      </trkpt>
      <trkpt lat="44.90762" lon="6.57613">
        <ele>2189.66</ele>
        <time>2022-02-09T12:16:22Z</time>
      </trkpt>
      <trkpt lat="44.90757" lon="6.57611">
        <ele>2220.72</ele>
        <time>2022-02-09T12:16:31Z</time>
      </trkpt>
      <trkpt lat="44.90752" lon="6.57608">
        <ele>2178.82</ele>
        <time>2022-02-09T12:16:41Z</time>
      </trkpt>
      <trkpt lat="44.90748" lon="6.5761">
        <ele>2226.97</ele>
        <time>2022-02-09T12:16:51Z</time>
      </trkpt>
      <trkpt lat="44.90744" lon="6.5761">
        <ele>2178.48</ele>
        <time>2022-02-09T12:17:00Z</time>
      </trkpt>
      <trkpt lat="44.90741" lon="6.57611">
        <ele>2236.54</ele>
        <time>2022-02-09T12:17:10Z</time>
      </trkpt>
      <trkpt lat="44.90737" lon="6.57614">
        <ele>2184.63</ele>
        <time>2022-02-09T12:17:19Z</time>
      </trkpt>
      <trkpt lat="44.90733" lon="6.57614">
        <ele>2238.09</ele>
        <time>2022-02-09T12:17:29Z</time>
      </trkpt>
      <trkpt lat="44.9073" lon="6.57614">
        <ele>2215.35</ele>
        <time>2022-02-09T12:17:39Z</time>
      </trkpt>
      <trkpt lat="44.90727" lon="6.57618">
        <ele>2177.79</ele>
        <time>2022-02-09T12:17:48Z</time>
      </trkpt>
      <trkpt lat="44.90723" lon="6.57621">
        <ele>2243.64</ele>
        <time>2022-02-09T12:17:58Z</time>
      </trkpt>
      <trkpt lat="44.9072" lon="6.57623">
        <ele>2243.8</ele>
        <time>2022-02-09T12:18:07Z</time>
      </trkpt>
      <trkpt lat="44.90716" lon="6.57624">
        <ele>2243.8</ele>
        <time>2022-02-09T12:18:17Z</time>
      </trkpt>
      <trkpt lat="44.90714" lon="6.57624">
        <ele>2243.8</ele>
        <time>2022-02-09T12:18:27Z</time>
      </trkpt>
      <trkpt lat="44.90713" lon="6.57624">
        <ele>2243.8</ele>
        <time>2022-02-09T12:18:36Z</time>
      </trkpt>
      <trkpt lat="44.9071" lon="6.57625">
        <ele>2243.8</ele>
        <time>2022-02-09T12:18:46Z</time>
      </trkpt>
      <trkpt lat="44.90707" lon="6.57625">
        <ele>2243.8</ele>
        <time>2022-02-09T12:18:55Z</time>
      </trkpt>
      <trkpt lat="44.90705" lon="6.57627">
        <ele>2243.8</ele>
        <time>2022-02-09T12:19:05Z</time>
      </trkpt>
      <trkpt lat="44.90702" lon="6.57628">
        <ele>2243.8</ele>
        <time>2022-02-09T12:19:14Z</time>
      </trkpt>
      <trkpt lat="44.90699" lon="6.57628">
        <ele>2243.8</ele>
        <time>2022-02-09T12:19:23Z</time>
      </trkpt>
      <trkpt lat="44.90697" lon="6.57625">
        <ele>2243.8</ele>
        <time>2022-02-09T12:19:33Z</time>
      </trkpt>
      <trkpt lat="44.90691" lon="6.57622">
        <ele>2243.8</ele>
        <time>2022-02-09T12:19:43Z</time>
      </trkpt>
      <trkpt lat="44.90688" lon="6.57619">
        <ele>2243.8</ele>
        <time>2022-02-09T12:19:53Z</time>
      </trkpt>
      <trkpt lat="44.90687" lon="6.5762">
        <ele>2243.8</ele>
        <time>2022-02-09T12:20:02Z</time>
      </trkpt>
      <trkpt lat="44.90685" lon="6.57622">
        <ele>2243.8</ele>
        <time>2022-02-09T12:20:12Z</time>
      </trkpt>
      <trkpt lat="44.9068" lon="6.57624">
        <ele>2243.8</ele>
        <time>2022-02-09T12:20:21Z</time>
      </trkpt>
      <trkpt lat="44.90677" lon="6.57624">
        <ele>2243.8</ele>
        <time>2022-02-09T12:20:30Z</time>
      </trkpt>
      <trkpt lat="44.90673" lon="6.57623">
        <ele>2243.8</ele>
        <time>2022-02-09T12:20:39Z</time>
      </trkpt>
      <trkpt lat="44.90668" lon="6.57622">
        <ele>2243.8</ele>
        <time>2022-02-09T12:20:49Z</time>
      </trkpt>
      <trkpt lat="44.90666" lon="6.5762">
        <ele>2243.8</ele>
        <time>2022-02-09T12:20:58Z</time>
      </trkpt>
      <trkpt lat="44.90663" lon="6.57618">
        <ele>2243.8</ele>
        <time>2022-02-09T12:21:07Z</time>
      </trkpt>
      <trkpt lat="44.90659" lon="6.57616">
        <ele>2243.8</ele>
        <time>2022-02-09T12:21:16Z</time>
      </trkpt>
      <trkpt lat="44.90656" lon="6.57613">
        <ele>1964.18</ele>
        <time>2022-02-09T12:21:26Z</time>
      </trkpt>
      <trkpt lat="44.90655" lon="6.57612">
        <ele>1950.58</ele>
        <time>2022-02-09T12:21:36Z</time>
      </trkpt>
      <trkpt lat="44.90654" lon="6.57611">
        <ele>1950.5</ele>
        <time>2022-02-09T12:21:50Z</time>
      </trkpt>
      <trkpt lat="44.90648" lon="6.57605">
        <ele>1950.5</ele>
        <time>2022-02-09T12:22:00Z</time>
      </trkpt>
      <trkpt lat="44.90648" lon="6.57604">
        <ele>1950.5</ele>
        <time>2022-02-09T12:22:16Z</time>
      </trkpt>
      <trkpt lat="44.90646" lon="6.57601">
        <ele>1950.5</ele>
        <time>2022-02-09T12:22:26Z</time>
      </trkpt>
      <trkpt lat="44.90644" lon="6.57602">
        <ele>1950.5</ele>
        <time>2022-02-09T12:22:35Z</time>
      </trkpt>
      <trkpt lat="44.90645" lon="6.57607">
        <ele>1950.5</ele>
        <time>2022-02-09T12:22:45Z</time>
      </trkpt>
      <trkpt lat="44.90644" lon="6.57611">
        <ele>1950.5</ele>
        <time>2022-02-09T12:22:55Z</time>
      </trkpt>
      <trkpt lat="44.90644" lon="6.57615">
        <ele>1950.5</ele>
        <time>2022-02-09T12:23:05Z</time>
      </trkpt>
      <trkpt lat="44.90643" lon="6.57618">
        <ele>1950.5</ele>
        <time>2022-02-09T12:23:15Z</time>
      </trkpt>
      <trkpt lat="44.90642" lon="6.5762">
        <ele>1950.5</ele>
        <time>2022-02-09T12:23:24Z</time>
      </trkpt>
      <trkpt lat="44.90642" lon="6.57623">
        <ele>1950.5</ele>
        <time>2022-02-09T12:23:34Z</time>
      </trkpt>
      <trkpt lat="44.90639" lon="6.5763">
        <ele>1950.5</ele>
        <time>2022-02-09T12:23:44Z</time>
      </trkpt>
      <trkpt lat="44.90637" lon="6.57631">
        <ele>1950.5</ele>
        <time>2022-02-09T12:23:54Z</time>
      </trkpt>
      <trkpt lat="44.90634" lon="6.57629">
        <ele>1950.5</ele>
        <time>2022-02-09T12:24:04Z</time>
      </trkpt>
      <trkpt lat="44.9063" lon="6.57623">
        <ele>1950.5</ele>
        <time>2022-02-09T12:24:15Z</time>
      </trkpt>
      <trkpt lat="44.90626" lon="6.57619">
        <ele>1950.5</ele>
        <time>2022-02-09T12:24:25Z</time>
      </trkpt>
      <trkpt lat="44.90623" lon="6.57615">
        <ele>1950.5</ele>
        <time>2022-02-09T12:24:35Z</time>
      </trkpt>
      <trkpt lat="44.90622" lon="6.57613">
        <ele>1950.5</ele>
        <time>2022-02-09T12:24:45Z</time>
      </trkpt>
      <trkpt lat="44.90619" lon="6.57609">
        <ele>1950.5</ele>
        <time>2022-02-09T12:24:55Z</time>
      </trkpt>
      <trkpt lat="44.90618" lon="6.57605">
        <ele>1950.5</ele>
        <time>2022-02-09T12:25:05Z</time>
      </trkpt>
      <trkpt lat="44.90615" lon="6.57602">
        <ele>1950.5</ele>
        <time>2022-02-09T12:25:15Z</time>
      </trkpt>
      <trkpt lat="44.90612" lon="6.57599">
        <ele>1950.5</ele>
        <time>2022-02-09T12:25:24Z</time>
      </trkpt>
      <trkpt lat="44.90609" lon="6.57594">
        <ele>1950.5</ele>
        <time>2022-02-09T12:25:33Z</time>
      </trkpt>
      <trkpt lat="44.90609" lon="6.57587">
        <ele>1950.5</ele>
        <time>2022-02-09T12:25:43Z</time>
      </trkpt>
      <trkpt lat="44.9061" lon="6.57584">
        <ele>1950.5</ele>
        <time>2022-02-09T12:25:52Z</time>
      </trkpt>
      <trkpt lat="44.90611" lon="6.5758">
        <ele>1950.5</ele>
        <time>2022-02-09T12:26:01Z</time>
      </trkpt>
      <trkpt lat="44.9061" lon="6.57581">
        <ele>1950.5</ele>
        <time>2022-02-09T12:26:15Z</time>
      </trkpt>
      <trkpt lat="44.90608" lon="6.5759">
        <ele>1950.5</ele>
        <time>2022-02-09T12:26:25Z</time>
      </trkpt>
      <trkpt lat="44.90606" lon="6.57595">
        <ele>1950.5</ele>
        <time>2022-02-09T12:26:34Z</time>
      </trkpt>
      <trkpt lat="44.90605" lon="6.57597">
        <ele>1950.5</ele>
        <time>2022-02-09T12:26:43Z</time>
      </trkpt>
      <trkpt lat="44.90603" lon="6.57601">
        <ele>1950.5</ele>
        <time>2022-02-09T12:26:52Z</time>
      </trkpt>
      <trkpt lat="44.90602" lon="6.57603">
        <ele>1950.5</ele>
        <time>2022-02-09T12:27:02Z</time>
      </trkpt>
      <trkpt lat="44.90601" lon="6.57607">
        <ele>1950.5</ele>
        <time>2022-02-09T12:27:12Z</time>
      </trkpt>
      <trkpt lat="44.906" lon="6.57614">
        <ele>1950.5</ele>
        <time>2022-02-09T12:27:22Z</time>
      </trkpt>
      <trkpt lat="44.906" lon="6.57621">
        <ele>1950.5</ele>
        <time>2022-02-09T12:27:32Z</time>
      </trkpt>
      <trkpt lat="44.90598" lon="6.57629">
        <ele>1950.5</ele>
        <time>2022-02-09T12:27:42Z</time>
      </trkpt>
      <trkpt lat="44.90598" lon="6.57632">
        <ele>1950.5</ele>
        <time>2022-02-09T12:27:51Z</time>
      </trkpt>
      <trkpt lat="44.90597" lon="6.57637">
        <ele>1950.5</ele>
        <time>2022-02-09T12:28:01Z</time>
      </trkpt>
      <trkpt lat="44.90595" lon="6.57642">
        <ele>1950.5</ele>
        <time>2022-02-09T12:28:10Z</time>
      </trkpt>
      <trkpt lat="44.90594" lon="6.57641">
        <ele>1950.5</ele>
        <time>2022-02-09T12:28:20Z</time>
      </trkpt>
      <trkpt lat="44.90593" lon="6.5764">
        <ele>1950.5</ele>
        <time>2022-02-09T12:28:30Z</time>
      </trkpt>
      <trkpt lat="44.90593" lon="6.57637">
        <ele>2121.33</ele>
        <time>2022-02-09T12:28:40Z</time>
      </trkpt>
      <trkpt lat="44.90586" lon="6.5764">
        <ele>2206.76</ele>
        <time>2022-02-09T12:28:50Z</time>
      </trkpt>
      <trkpt lat="44.9059" lon="6.57628">
        <ele>2252.2</ele>
        <time>2022-02-09T12:28:59Z</time>
      </trkpt>
      <trkpt lat="44.90588" lon="6.57624">
        <ele>2176.74</ele>
        <time>2022-02-09T12:29:09Z</time>
      </trkpt>
      <trkpt lat="44.90587" lon="6.5762">
        <ele>2214.14</ele>
        <time>2022-02-09T12:29:18Z</time>
      </trkpt>
      <trkpt lat="44.90582" lon="6.57616">
        <ele>2260.97</ele>
        <time>2022-02-09T12:29:28Z</time>
      </trkpt>
      <trkpt lat="44.9058" lon="6.57615">
        <ele>2210.88</ele>
        <time>2022-02-09T12:29:38Z</time>
      </trkpt>
      <trkpt lat="44.90579" lon="6.57613">
        <ele>2277.39</ele>
        <time>2022-02-09T12:29:48Z</time>
      </trkpt>
      <trkpt lat="44.90578" lon="6.57612">
        <ele>2244.81</ele>
        <time>2022-02-09T12:29:58Z</time>
      </trkpt>
      <trkpt lat="44.90573" lon="6.57609">
        <ele>2218.84</ele>
        <time>2022-02-09T12:30:08Z</time>
      </trkpt>
      <trkpt lat="44.90569" lon="6.57606">
        <ele>2216.49</ele>
        <time>2022-02-09T12:30:18Z</time>
      </trkpt>
      <trkpt lat="44.90567" lon="6.57604">
        <ele>2199.73</ele>
        <time>2022-02-09T12:30:28Z</time>
      </trkpt>
      <trkpt lat="44.90566" lon="6.57602">
        <ele>2183.77</ele>
        <time>2022-02-09T12:30:37Z</time>
      </trkpt>
      <trkpt lat="44.90565" lon="6.57599">
        <ele>2197.37</ele>
        <time>2022-02-09T12:30:46Z</time>
      </trkpt>
      <trkpt lat="44.90562" lon="6.57596">
        <ele>2199.68</ele>
        <time>2022-02-09T12:30:56Z</time>
      </trkpt>
      <trkpt lat="44.90561" lon="6.57594">
        <ele>2172.32</ele>
        <time>2022-02-09T12:31:06Z</time>
      </trkpt>
      <trkpt lat="44.90561" lon="6.57593">
        <ele>2166.71</ele>
        <time>2022-02-09T12:31:16Z</time>
      </trkpt>
      <trkpt lat="44.90559" lon="6.57591">
        <ele>2184.33</ele>
        <time>2022-02-09T12:31:26Z</time>
      </trkpt>
      <trkpt lat="44.90557" lon="6.57587">
        <ele>2253.97</ele>
        <time>2022-02-09T12:31:36Z</time>
      </trkpt>
      <trkpt lat="44.90556" lon="6.57582">
        <ele>2210.02</ele>
        <time>2022-02-09T12:31:46Z</time>
      </trkpt>
      <trkpt lat="44.90555" lon="6.57582">
        <ele>2267.25</ele>
        <time>2022-02-09T12:31:55Z</time>
      </trkpt>
      <trkpt lat="44.90554" lon="6.57584">
        <ele>2243.79</ele>
        <time>2022-02-09T12:32:04Z</time>
      </trkpt>
      <trkpt lat="44.90553" lon="6.57588">
        <ele>2243.8</ele>
        <time>2022-02-09T12:32:14Z</time>
      </trkpt>
      <trkpt lat="44.90552" lon="6.57591">
        <ele>2243.8</ele>
        <time>2022-02-09T12:32:24Z</time>
      </trkpt>
      <trkpt lat="44.90551" lon="6.57593">
        <ele>2243.8</ele>
        <time>2022-02-09T12:32:34Z</time>
      </trkpt>
      <trkpt lat="44.9055" lon="6.57595">
        <ele>2243.8</ele>
        <time>2022-02-09T12:32:43Z</time>
      </trkpt>
      <trkpt lat="44.90548" lon="6.57596">
        <ele>2271.89</ele>
        <time>2022-02-09T12:32:52Z</time>
      </trkpt>
      <trkpt lat="44.90545" lon="6.57599">
        <ele>2243.9</ele>
        <time>2022-02-09T12:33:02Z</time>
      </trkpt>
      <trkpt lat="44.90543" lon="6.57599">
        <ele>2243.8</ele>
        <time>2022-02-09T12:33:12Z</time>
      </trkpt>
      <trkpt lat="44.90542" lon="6.57595">
        <ele>2243.8</ele>
        <time>2022-02-09T12:33:22Z</time>
      </trkpt>
      <trkpt lat="44.90542" lon="6.57594">
        <ele>1953.46</ele>
        <time>2022-02-09T12:33:32Z</time>
      </trkpt>
      <trkpt lat="44.90543" lon="6.57594">
        <ele>1950.51</ele>
        <time>2022-02-09T12:33:44Z</time>
      </trkpt>
      <trkpt lat="44.90543" lon="6.57591">
        <ele>1950.5</ele>
        <time>2022-02-09T12:33:53Z</time>
      </trkpt>
      <trkpt lat="44.9054" lon="6.57591">
        <ele>1950.5</ele>
        <time>2022-02-09T12:34:02Z</time>
      </trkpt>
      <trkpt lat="44.90536" lon="6.57599">
        <ele>1950.5</ele>
        <time>2022-02-09T12:34:11Z</time>
      </trkpt>
      <trkpt lat="44.90533" lon="6.57603">
        <ele>1950.5</ele>
        <time>2022-02-09T12:34:21Z</time>
      </trkpt>
      <trkpt lat="44.90531" lon="6.57607">
        <ele>1950.5</ele>
        <time>2022-02-09T12:34:31Z</time>
      </trkpt>
      <trkpt lat="44.90529" lon="6.57612">
        <ele>1950.5</ele>
        <time>2022-02-09T12:34:41Z</time>
      </trkpt>
      <trkpt lat="44.90529" lon="6.57615">
        <ele>1950.5</ele>
        <time>2022-02-09T12:34:51Z</time>
      </trkpt>
      <trkpt lat="44.90527" lon="6.57618">
        <ele>1950.5</ele>
        <time>2022-02-09T12:35:01Z</time>
      </trkpt>
      <trkpt lat="44.90525" lon="6.57621">
        <ele>1950.5</ele>
        <time>2022-02-09T12:35:10Z</time>
      </trkpt>
      <trkpt lat="44.90524" lon="6.57625">
        <ele>2250.31</ele>
        <time>2022-02-09T12:35:20Z</time>
      </trkpt>
      <trkpt lat="44.90523" lon="6.57627">
        <ele>2243.84</ele>
        <time>2022-02-09T12:35:30Z</time>
      </trkpt>
      <trkpt lat="44.90522" lon="6.57627">
        <ele>2243.8</ele>
        <time>2022-02-09T12:35:39Z</time>
      </trkpt>
      <trkpt lat="44.90522" lon="6.57623">
        <ele>2243.8</ele>
        <time>2022-02-09T12:35:48Z</time>
      </trkpt>
      <trkpt lat="44.90521" lon="6.57618">
        <ele>2243.8</ele>
        <time>2022-02-09T12:35:58Z</time>
      </trkpt>
      <trkpt lat="44.90518" lon="6.57612">
        <ele>2243.8</ele>
        <time>2022-02-09T12:36:08Z</time>
      </trkpt>
      <trkpt lat="44.90516" lon="6.57608">
        <ele>2243.8</ele>
        <time>2022-02-09T12:36:17Z</time>
      </trkpt>
      <trkpt lat="44.90516" lon="6.57603">
        <ele>2243.8</ele>
        <time>2022-02-09T12:36:27Z</time>
      </trkpt>
      <trkpt lat="44.90516" lon="6.576">
        <ele>2243.8</ele>
        <time>2022-02-09T12:36:36Z</time>
      </trkpt>
      <trkpt lat="44.90514" lon="6.57596">
        <ele>2243.8</ele>
        <time>2022-02-09T12:36:46Z</time>
      </trkpt>
      <trkpt lat="44.90513" lon="6.57595">
        <ele>2210.22</ele>
        <time>2022-02-09T12:36:56Z</time>
      </trkpt>
      <trkpt lat="44.90511" lon="6.57589">
        <ele>2243.86</ele>
        <time>2022-02-09T12:37:06Z</time>
      </trkpt>
      <trkpt lat="44.90508" lon="6.57585">
        <ele>2244.27</ele>
        <time>2022-02-09T12:37:15Z</time>
      </trkpt>
      <trkpt lat="44.90507" lon="6.57582">
        <ele>2282.78</ele>
        <time>2022-02-09T12:37:25Z</time>
      </trkpt>
      <trkpt lat="44.90504" lon="6.5758">
        <ele>2173</ele>
        <time>2022-02-09T12:37:34Z</time>
      </trkpt>
      <trkpt lat="44.905" lon="6.57581">
        <ele>2236.46</ele>
        <time>2022-02-09T12:37:44Z</time>
      </trkpt>
      <trkpt lat="44.90497" lon="6.57584">
        <ele>2309.57</ele>
        <time>2022-02-09T12:37:53Z</time>
      </trkpt>
      <trkpt lat="44.90494" lon="6.57587">
        <ele>2245.51</ele>
        <time>2022-02-09T12:38:02Z</time>
      </trkpt>
      <trkpt lat="44.90491" lon="6.57589">
        <ele>2245.46</ele>
        <time>2022-02-09T12:38:11Z</time>
      </trkpt>
      <trkpt lat="44.90488" lon="6.57591">
        <ele>2243.81</ele>
        <time>2022-02-09T12:38:21Z</time>
      </trkpt>
      <trkpt lat="44.90484" lon="6.57591">
        <ele>2243.8</ele>
        <time>2022-02-09T12:38:30Z</time>
      </trkpt>
      <trkpt lat="44.90482" lon="6.57592">
        <ele>2243.8</ele>
        <time>2022-02-09T12:38:40Z</time>
      </trkpt>
      <trkpt lat="44.90479" lon="6.57595">
        <ele>2243.8</ele>
        <time>2022-02-09T12:38:50Z</time>
      </trkpt>
      <trkpt lat="44.90475" lon="6.57599">
        <ele>2243.8</ele>
        <time>2022-02-09T12:38:59Z</time>
      </trkpt>
      <trkpt lat="44.90472" lon="6.57601">
        <ele>2243.8</ele>
        <time>2022-02-09T12:39:09Z</time>
      </trkpt>
      <trkpt lat="44.9047" lon="6.57599">
        <ele>2243.8</ele>
        <time>2022-02-09T12:39:19Z</time>
      </trkpt>
      <trkpt lat="44.90467" lon="6.57597">
        <ele>2243.8</ele>
        <time>2022-02-09T12:39:28Z</time>
      </trkpt>
      <trkpt lat="44.90464" lon="6.57596">
        <ele>1955.43</ele>
        <time>2022-02-09T12:39:38Z</time>
      </trkpt>
      <trkpt lat="44.90459" lon="6.57595">
        <ele>1950.51</ele>
        <time>2022-02-09T12:39:48Z</time>
      </trkpt>
      <trkpt lat="44.90455" lon="6.57595">
        <ele>1950.5</ele>
        <time>2022-02-09T12:39:58Z</time>
      </trkpt>
      <trkpt lat="44.90451" lon="6.57597">
        <ele>1950.5</ele>
        <time>2022-02-09T12:40:08Z</time>
      </trkpt>
      <trkpt lat="44.90448" lon="6.57597">
        <ele>1950.5</ele>
        <time>2022-02-09T12:40:18Z</time>
      </trkpt>
      <trkpt lat="44.90445" lon="6.57602">
        <ele>1950.5</ele>
        <time>2022-02-09T12:40:27Z</time>
      </trkpt>
      <trkpt lat="44.9044" lon="6.576">
        <ele>1950.5</ele>
        <time>2022-02-09T12:40:37Z</time>
      </trkpt>
      <trkpt lat="44.90437" lon="6.57597">
        <ele>1950.5</ele>
        <time>2022-02-09T12:40:47Z</time>
      </trkpt>
      <trkpt lat="44.90436" lon="6.57599">
        <ele>1950.5</ele>
        <time>2022-02-09T12:40:57Z</time>
      </trkpt>
      <trkpt lat="44.90435" lon="6.57602">
        <ele>2260.63</ele>
        <time>2022-02-09T12:41:06Z</time>
      </trkpt>
      <trkpt lat="44.90434" lon="6.57608">
        <ele>2339.55</ele>
        <time>2022-02-09T12:41:16Z</time>
      </trkpt>
      <trkpt lat="44.90432" lon="6.57614">
        <ele>2271.04</ele>
        <time>2022-02-09T12:41:26Z</time>
      </trkpt>
      <trkpt lat="44.90432" lon="6.57618">
        <ele>2334.01</ele>
        <time>2022-02-09T12:41:35Z</time>
      </trkpt>
      <trkpt lat="44.90432" lon="6.57621">
        <ele>2339.42</ele>
        <time>2022-02-09T12:41:44Z</time>
      </trkpt>
      <trkpt lat="44.90432" lon="6.57626">
        <ele>2280.54</ele>
        <time>2022-02-09T12:41:54Z</time>
      </trkpt>
      <trkpt lat="44.90431" lon="6.57626">
        <ele>2337.52</ele>
        <time>2022-02-09T12:42:04Z</time>
      </trkpt>
      <trkpt lat="44.90426" lon="6.57624">
        <ele>2317.77</ele>
        <time>2022-02-09T12:42:14Z</time>
      </trkpt>
      <trkpt lat="44.90425" lon="6.57624">
        <ele>2279.16</ele>
        <time>2022-02-09T12:42:23Z</time>
      </trkpt>
      <trkpt lat="44.90423" lon="6.57626">
        <ele>2337.54</ele>
        <time>2022-02-09T12:42:33Z</time>
      </trkpt>
      <trkpt lat="44.90423" lon="6.57628">
        <ele>2368.29</ele>
        <time>2022-02-09T12:42:43Z</time>
      </trkpt>
      <trkpt lat="44.90374" lon="6.57703">
        <ele>2386.17</ele>
        <time>2022-02-09T12:42:53Z</time>
      </trkpt>
      <trkpt lat="44.90383" lon="6.5774">
        <ele>2366.95</ele>
        <time>2022-02-09T12:43:03Z</time>
      </trkpt>
      <trkpt lat="44.90388" lon="6.57738">
        <ele>2375.2</ele>
        <time>2022-02-09T12:43:13Z</time>
      </trkpt>
      <trkpt lat="44.90392" lon="6.5774">
        <ele>2354.21</ele>
        <time>2022-02-09T12:43:23Z</time>
      </trkpt>
      <trkpt lat="44.90393" lon="6.57744">
        <ele>2381.65</ele>
        <time>2022-02-09T12:43:33Z</time>
      </trkpt>
      <trkpt lat="44.90397" lon="6.5774">
        <ele>2382.48</ele>
        <time>2022-02-09T12:43:43Z</time>
      </trkpt>
      <trkpt lat="44.904" lon="6.57742">
        <ele>2355.94</ele>
        <time>2022-02-09T12:43:53Z</time>
      </trkpt>
      <trkpt lat="44.90403" lon="6.57738">
        <ele>2316.46</ele>
        <time>2022-02-09T12:44:03Z</time>
      </trkpt>
      <trkpt lat="44.90404" lon="6.57737">
        <ele>2288.06</ele>
        <time>2022-02-09T12:44:13Z</time>
      </trkpt>
      <trkpt lat="44.90406" lon="6.57733">
        <ele>2245.32</ele>
        <time>2022-02-09T12:44:23Z</time>
      </trkpt>
      <trkpt lat="44.90405" lon="6.5773">
        <ele>2319.18</ele>
        <time>2022-02-09T12:44:33Z</time>
      </trkpt>
      <trkpt lat="44.90403" lon="6.57729">
        <ele>2324.93</ele>
        <time>2022-02-09T12:44:43Z</time>
      </trkpt>
      <trkpt lat="44.90403" lon="6.57727">
        <ele>2324.53</ele>
        <time>2022-02-09T12:44:53Z</time>
      </trkpt>
      <trkpt lat="44.90404" lon="6.57726">
        <ele>2328.14</ele>
        <time>2022-02-09T12:45:04Z</time>
      </trkpt>
      <trkpt lat="44.90404" lon="6.57727">
        <ele>2366.25</ele>
        <time>2022-02-09T12:45:14Z</time>
      </trkpt>
      <trkpt lat="44.90404" lon="6.57732">
        <ele>2365.61</ele>
        <time>2022-02-09T12:45:24Z</time>
      </trkpt>
      <trkpt lat="44.90405" lon="6.5774">
        <ele>2363.81</ele>
        <time>2022-02-09T12:45:34Z</time>
      </trkpt>
      <trkpt lat="44.90404" lon="6.57747">
        <ele>2363.07</ele>
        <time>2022-02-09T12:45:44Z</time>
      </trkpt>
      <trkpt lat="44.90402" lon="6.57753">
        <ele>2361.35</ele>
        <time>2022-02-09T12:45:54Z</time>
      </trkpt>
      <trkpt lat="44.90397" lon="6.57757">
        <ele>2360.38</ele>
        <time>2022-02-09T12:46:04Z</time>
      </trkpt>
      <trkpt lat="44.90397" lon="6.57758">
        <ele>2359.65</ele>
        <time>2022-02-09T12:46:40Z</time>
      </trkpt>
      <trkpt lat="44.90396" lon="6.57765">
        <ele>2392</ele>
        <time>2022-02-09T12:46:50Z</time>
      </trkpt>
      <trkpt lat="44.90396" lon="6.57772">
        <ele>2377.91</ele>
        <time>2022-02-09T12:47:00Z</time>
      </trkpt>
      <trkpt lat="44.90394" lon="6.57778">
        <ele>2357.96</ele>
        <time>2022-02-09T12:47:09Z</time>
      </trkpt>
      <trkpt lat="44.90391" lon="6.5778">
        <ele>2389.65</ele>
        <time>2022-02-09T12:47:19Z</time>
      </trkpt>
      <trkpt lat="44.90388" lon="6.57783">
        <ele>2389.91</ele>
        <time>2022-02-09T12:47:29Z</time>
      </trkpt>
      <trkpt lat="44.90384" lon="6.57788">
        <ele>2357.43</ele>
        <time>2022-02-09T12:47:39Z</time>
      </trkpt>
      <trkpt lat="44.90382" lon="6.57794">
        <ele>2388.27</ele>
        <time>2022-02-09T12:47:49Z</time>
      </trkpt>
      <trkpt lat="44.90379" lon="6.57798">
        <ele>2360.1</ele>
        <time>2022-02-09T12:47:58Z</time>
      </trkpt>
      <trkpt lat="44.90378" lon="6.57801">
        <ele>2355.3</ele>
        <time>2022-02-09T12:48:08Z</time>
      </trkpt>
      <trkpt lat="44.90378" lon="6.57803">
        <ele>2421.64</ele>
        <time>2022-02-09T12:48:18Z</time>
      </trkpt>
      <trkpt lat="44.90378" lon="6.57805">
        <ele>2430.47</ele>
        <time>2022-02-09T12:48:27Z</time>
      </trkpt>
      <trkpt lat="44.90377" lon="6.57808">
        <ele>2431.27</ele>
        <time>2022-02-09T12:48:36Z</time>
      </trkpt>
      <trkpt lat="44.90374" lon="6.57808">
        <ele>2431.31</ele>
        <time>2022-02-09T12:48:45Z</time>
      </trkpt>
      <trkpt lat="44.90371" lon="6.57809">
        <ele>2433.09</ele>
        <time>2022-02-09T12:48:55Z</time>
      </trkpt>
      <trkpt lat="44.90371" lon="6.57811">
        <ele>2432.36</ele>
        <time>2022-02-09T12:49:05Z</time>
      </trkpt>
      <trkpt lat="44.90369" lon="6.57813">
        <ele>2431.69</ele>
        <time>2022-02-09T12:49:15Z</time>
      </trkpt>
      <trkpt lat="44.90369" lon="6.57819">
        <ele>2429.82</ele>
        <time>2022-02-09T12:49:25Z</time>
      </trkpt>
      <trkpt lat="44.90369" lon="6.57819">
        <ele>2430.18</ele>
        <time>2022-02-09T12:49:35Z</time>
      </trkpt>
      <trkpt lat="44.90369" lon="6.57821">
        <ele>2430.23</ele>
        <time>2022-02-09T12:50:13Z</time>
      </trkpt>
      <trkpt lat="44.9037" lon="6.5782">
        <ele>2431.77</ele>
        <time>2022-02-09T12:50:54Z</time>
      </trkpt>
      <trkpt lat="44.90369" lon="6.57821">
        <ele>2353.93</ele>
        <time>2022-02-09T12:52:58Z</time>
      </trkpt>
      <trkpt lat="44.90368" lon="6.5782">
        <ele>2353.18</ele>
        <time>2022-02-09T12:54:00Z</time>
      </trkpt>
      <trkpt lat="44.9037" lon="6.5782">
        <ele>2354.04</ele>
        <time>2022-02-09T12:55:04Z</time>
      </trkpt>
      <trkpt lat="44.9037" lon="6.57819">
        <ele>2419.48</ele>
        <time>2022-02-09T12:55:14Z</time>
      </trkpt>
      <trkpt lat="44.90371" lon="6.5782">
        <ele>2431.84</ele>
        <time>2022-02-09T12:55:35Z</time>
      </trkpt>
      <trkpt lat="44.90368" lon="6.57826">
        <ele>2431.38</ele>
        <time>2022-02-09T12:55:44Z</time>
      </trkpt>
      <trkpt lat="44.90367" lon="6.57832">
        <ele>2432.42</ele>
        <time>2022-02-09T12:55:54Z</time>
      </trkpt>
      <trkpt lat="44.90367" lon="6.5784">
        <ele>2431.66</ele>
        <time>2022-02-09T12:56:04Z</time>
      </trkpt>
      <trkpt lat="44.90367" lon="6.57848">
        <ele>2429.73</ele>
        <time>2022-02-09T12:56:14Z</time>
      </trkpt>
      <trkpt lat="44.90368" lon="6.57851">
        <ele>2429.26</ele>
        <time>2022-02-09T12:56:23Z</time>
      </trkpt>
      <trkpt lat="44.90368" lon="6.57855">
        <ele>2429.57</ele>
        <time>2022-02-09T12:56:33Z</time>
      </trkpt>
      <trkpt lat="44.90367" lon="6.57857">
        <ele>2429.8</ele>
        <time>2022-02-09T12:56:43Z</time>
      </trkpt>
      <trkpt lat="44.90363" lon="6.57857">
        <ele>2430.59</ele>
        <time>2022-02-09T12:56:52Z</time>
      </trkpt>
      <trkpt lat="44.90361" lon="6.57859">
        <ele>2432.13</ele>
        <time>2022-02-09T12:57:01Z</time>
      </trkpt>
      <trkpt lat="44.90363" lon="6.57866">
        <ele>2435.99</ele>
        <time>2022-02-09T12:57:11Z</time>
      </trkpt>
      <trkpt lat="44.90364" lon="6.57872">
        <ele>2437</ele>
        <time>2022-02-09T12:57:21Z</time>
      </trkpt>
      <trkpt lat="44.90362" lon="6.57876">
        <ele>2436.92</ele>
        <time>2022-02-09T12:57:31Z</time>
      </trkpt>
      <trkpt lat="44.9036" lon="6.57879">
        <ele>2437.24</ele>
        <time>2022-02-09T12:57:40Z</time>
      </trkpt>
      <trkpt lat="44.9036" lon="6.57878">
        <ele>2436.73</ele>
        <time>2022-02-09T12:57:50Z</time>
      </trkpt>
      <trkpt lat="44.90359" lon="6.57877">
        <ele>2436.6</ele>
        <time>2022-02-09T12:58:02Z</time>
      </trkpt>
      <trkpt lat="44.90357" lon="6.5788">
        <ele>2438.49</ele>
        <time>2022-02-09T12:58:12Z</time>
      </trkpt>
      <trkpt lat="44.90355" lon="6.57886">
        <ele>2278.32</ele>
        <time>2022-02-09T12:58:22Z</time>
      </trkpt>
      <trkpt lat="44.90353" lon="6.57886">
        <ele>2319.44</ele>
        <time>2022-02-09T12:58:32Z</time>
      </trkpt>
      <trkpt lat="44.90354" lon="6.57884">
        <ele>2324.16</ele>
        <time>2022-02-09T12:58:41Z</time>
      </trkpt>
      <trkpt lat="44.90357" lon="6.57883">
        <ele>2279.92</ele>
        <time>2022-02-09T12:58:51Z</time>
      </trkpt>
      <trkpt lat="44.90361" lon="6.57882">
        <ele>2327.01</ele>
        <time>2022-02-09T12:59:00Z</time>
      </trkpt>
      <trkpt lat="44.90365" lon="6.57884">
        <ele>2254.22</ele>
        <time>2022-02-09T12:59:10Z</time>
      </trkpt>
      <trkpt lat="44.90366" lon="6.57883">
        <ele>2327.13</ele>
        <time>2022-02-09T12:59:19Z</time>
      </trkpt>
      <trkpt lat="44.90367" lon="6.57882">
        <ele>2307.53</ele>
        <time>2022-02-09T12:59:29Z</time>
      </trkpt>
      <trkpt lat="44.90369" lon="6.57883">
        <ele>2333.51</ele>
        <time>2022-02-09T12:59:39Z</time>
      </trkpt>
      <trkpt lat="44.90369" lon="6.57884">
        <ele>2270.86</ele>
        <time>2022-02-09T12:59:49Z</time>
      </trkpt>
      <trkpt lat="44.90368" lon="6.57885">
        <ele>2253.97</ele>
        <time>2022-02-09T12:59:59Z</time>
      </trkpt>
      <trkpt lat="44.90368" lon="6.57888">
        <ele>2279.17</ele>
        <time>2022-02-09T13:00:09Z</time>
      </trkpt>
      <trkpt lat="44.90368" lon="6.57889">
        <ele>2290.76</ele>
        <time>2022-02-09T13:01:15Z</time>
      </trkpt>
      <trkpt lat="44.90367" lon="6.57892">
        <ele>2315.95</ele>
        <time>2022-02-09T13:01:24Z</time>
      </trkpt>
      <trkpt lat="44.90363" lon="6.57897">
        <ele>2257.91</ele>
        <time>2022-02-09T13:01:33Z</time>
      </trkpt>
      <trkpt lat="44.9036" lon="6.57901">
        <ele>2231.37</ele>
        <time>2022-02-09T13:01:43Z</time>
      </trkpt>
      <trkpt lat="44.90359" lon="6.57904">
        <ele>2327.42</ele>
        <time>2022-02-09T13:01:53Z</time>
      </trkpt>
      <trkpt lat="44.90357" lon="6.57908">
        <ele>2241.5</ele>
        <time>2022-02-09T13:02:02Z</time>
      </trkpt>
      <trkpt lat="44.90354" lon="6.57915">
        <ele>2226.3</ele>
        <time>2022-02-09T13:02:12Z</time>
      </trkpt>
      <trkpt lat="44.90352" lon="6.57918">
        <ele>2194.8</ele>
        <time>2022-02-09T13:02:21Z</time>
      </trkpt>
      <trkpt lat="44.90351" lon="6.57922">
        <ele>2281.68</ele>
        <time>2022-02-09T13:02:30Z</time>
      </trkpt>
      <trkpt lat="44.9035" lon="6.57924">
        <ele>2158.58</ele>
        <time>2022-02-09T13:02:41Z</time>
      </trkpt>
      <trkpt lat="44.90349" lon="6.57925">
        <ele>2173.24</ele>
        <time>2022-02-09T13:02:50Z</time>
      </trkpt>
      <trkpt lat="44.90347" lon="6.57927">
        <ele>2315.14</ele>
        <time>2022-02-09T13:03:00Z</time>
      </trkpt>
      <trkpt lat="44.90343" lon="6.5793">
        <ele>2334.08</ele>
        <time>2022-02-09T13:03:10Z</time>
      </trkpt>
      <trkpt lat="44.9034" lon="6.57935">
        <ele>2331.69</ele>
        <time>2022-02-09T13:03:20Z</time>
      </trkpt>
      <trkpt lat="44.90337" lon="6.57938">
        <ele>2247.78</ele>
        <time>2022-02-09T13:03:30Z</time>
      </trkpt>
      <trkpt lat="44.90335" lon="6.57943">
        <ele>2160.64</ele>
        <time>2022-02-09T13:03:39Z</time>
      </trkpt>
      <trkpt lat="44.90333" lon="6.57945">
        <ele>2207.38</ele>
        <time>2022-02-09T13:03:48Z</time>
      </trkpt>
      <trkpt lat="44.90335" lon="6.57951">
        <ele>2205.43</ele>
        <time>2022-02-09T13:03:58Z</time>
      </trkpt>
      <trkpt lat="44.90335" lon="6.57954">
        <ele>2212.36</ele>
        <time>2022-02-09T13:04:08Z</time>
      </trkpt>
      <trkpt lat="44.90337" lon="6.57956">
        <ele>2259.21</ele>
        <time>2022-02-09T13:04:17Z</time>
      </trkpt>
      <trkpt lat="44.90339" lon="6.57955">
        <ele>2259.81</ele>
        <time>2022-02-09T13:04:26Z</time>
      </trkpt>
      <trkpt lat="44.90341" lon="6.57954">
        <ele>2309.8</ele>
        <time>2022-02-09T13:04:36Z</time>
      </trkpt>
      <trkpt lat="44.90342" lon="6.57953">
        <ele>2342.14</ele>
        <time>2022-02-09T13:04:45Z</time>
      </trkpt>
      <trkpt lat="44.90345" lon="6.57953">
        <ele>2345.03</ele>
        <time>2022-02-09T13:04:55Z</time>
      </trkpt>
      <trkpt lat="44.90347" lon="6.57954">
        <ele>2272.74</ele>
        <time>2022-02-09T13:05:05Z</time>
      </trkpt>
      <trkpt lat="44.9035" lon="6.57952">
        <ele>2267.3</ele>
        <time>2022-02-09T13:05:15Z</time>
      </trkpt>
      <trkpt lat="44.9035" lon="6.57954">
        <ele>2338.32</ele>
        <time>2022-02-09T13:05:24Z</time>
      </trkpt>
      <trkpt lat="44.90347" lon="6.57958">
        <ele>2343.99</ele>
        <time>2022-02-09T13:05:34Z</time>
      </trkpt>
      <trkpt lat="44.90344" lon="6.57964">
        <ele>2252.72</ele>
        <time>2022-02-09T13:05:43Z</time>
      </trkpt>
      <trkpt lat="44.90343" lon="6.57967">
        <ele>2317.27</ele>
        <time>2022-02-09T13:05:52Z</time>
      </trkpt>
      <trkpt lat="44.90341" lon="6.5797">
        <ele>2317.57</ele>
        <time>2022-02-09T13:06:01Z</time>
      </trkpt>
      <trkpt lat="44.90339" lon="6.57973">
        <ele>2255.32</ele>
        <time>2022-02-09T13:06:11Z</time>
      </trkpt>
      <trkpt lat="44.90337" lon="6.57979">
        <ele>2225.8</ele>
        <time>2022-02-09T13:06:21Z</time>
      </trkpt>
      <trkpt lat="44.90336" lon="6.57985">
        <ele>2303.1</ele>
        <time>2022-02-09T13:06:31Z</time>
      </trkpt>
      <trkpt lat="44.90338" lon="6.57985">
        <ele>2328.29</ele>
        <time>2022-02-09T13:06:42Z</time>
      </trkpt>
      <trkpt lat="44.9034" lon="6.57983">
        <ele>2333.52</ele>
        <time>2022-02-09T13:06:52Z</time>
      </trkpt>
      <trkpt lat="44.90342" lon="6.57981">
        <ele>2240.75</ele>
        <time>2022-02-09T13:07:02Z</time>
      </trkpt>
      <trkpt lat="44.90343" lon="6.57981">
        <ele>2238.63</ele>
        <time>2022-02-09T13:07:12Z</time>
      </trkpt>
      <trkpt lat="44.90345" lon="6.57982">
        <ele>2302.29</ele>
        <time>2022-02-09T13:07:22Z</time>
      </trkpt>
      <trkpt lat="44.90345" lon="6.57985">
        <ele>2184.17</ele>
        <time>2022-02-09T13:07:31Z</time>
      </trkpt>
      <trkpt lat="44.90345" lon="6.57991">
        <ele>2182.41</ele>
        <time>2022-02-09T13:07:40Z</time>
      </trkpt>
      <trkpt lat="44.90344" lon="6.57997">
        <ele>2257.11</ele>
        <time>2022-02-09T13:07:50Z</time>
      </trkpt>
      <trkpt lat="44.90344" lon="6.58">
        <ele>2286.32</ele>
        <time>2022-02-09T13:08:00Z</time>
      </trkpt>
      <trkpt lat="44.90342" lon="6.58003">
        <ele>2201.14</ele>
        <time>2022-02-09T13:08:10Z</time>
      </trkpt>
      <trkpt lat="44.90339" lon="6.58009">
        <ele>2297.06</ele>
        <time>2022-02-09T13:08:20Z</time>
      </trkpt>
      <trkpt lat="44.90338" lon="6.58009">
        <ele>2328.07</ele>
        <time>2022-02-09T13:08:29Z</time>
      </trkpt>
      <trkpt lat="44.90337" lon="6.58011">
        <ele>2305.19</ele>
        <time>2022-02-09T13:08:39Z</time>
      </trkpt>
      <trkpt lat="44.90335" lon="6.58014">
        <ele>2334.9</ele>
        <time>2022-02-09T13:08:49Z</time>
      </trkpt>
      <trkpt lat="44.90333" lon="6.58019">
        <ele>2228</ele>
        <time>2022-02-09T13:08:59Z</time>
      </trkpt>
      <trkpt lat="44.90332" lon="6.58021">
        <ele>2229.53</ele>
        <time>2022-02-09T13:09:08Z</time>
      </trkpt>
      <trkpt lat="44.90331" lon="6.58022">
        <ele>2325.9</ele>
        <time>2022-02-09T13:09:26Z</time>
      </trkpt>
      <trkpt lat="44.9033" lon="6.58028">
        <ele>2302.6</ele>
        <time>2022-02-09T13:09:36Z</time>
      </trkpt>
      <trkpt lat="44.90328" lon="6.58032">
        <ele>2286.41</ele>
        <time>2022-02-09T13:09:45Z</time>
      </trkpt>
      <trkpt lat="44.90329" lon="6.58034">
        <ele>2324.87</ele>
        <time>2022-02-09T13:09:55Z</time>
      </trkpt>
      <trkpt lat="44.90331" lon="6.58036">
        <ele>2293.56</ele>
        <time>2022-02-09T13:10:05Z</time>
      </trkpt>
      <trkpt lat="44.90332" lon="6.5804">
        <ele>2367.31</ele>
        <time>2022-02-09T13:10:15Z</time>
      </trkpt>
      <trkpt lat="44.90334" lon="6.58043">
        <ele>2271.88</ele>
        <time>2022-02-09T13:10:25Z</time>
      </trkpt>
      <trkpt lat="44.90334" lon="6.58048">
        <ele>2308.25</ele>
        <time>2022-02-09T13:10:35Z</time>
      </trkpt>
      <trkpt lat="44.90334" lon="6.58053">
        <ele>2354.95</ele>
        <time>2022-02-09T13:10:45Z</time>
      </trkpt>
      <trkpt lat="44.90335" lon="6.5806">
        <ele>2364.13</ele>
        <time>2022-02-09T13:10:55Z</time>
      </trkpt>
      <trkpt lat="44.90335" lon="6.58062">
        <ele>2294.3</ele>
        <time>2022-02-09T13:11:05Z</time>
      </trkpt>
      <trkpt lat="44.90336" lon="6.58068">
        <ele>2367.7</ele>
        <time>2022-02-09T13:11:15Z</time>
      </trkpt>
      <trkpt lat="44.90336" lon="6.5807">
        <ele>2375.46</ele>
        <time>2022-02-09T13:11:24Z</time>
      </trkpt>
      <trkpt lat="44.90338" lon="6.58076">
        <ele>2375.55</ele>
        <time>2022-02-09T13:11:34Z</time>
      </trkpt>
      <trkpt lat="44.90339" lon="6.5808">
        <ele>2313.08</ele>
        <time>2022-02-09T13:11:44Z</time>
      </trkpt>
      <trkpt lat="44.90341" lon="6.58083">
        <ele>2295.46</ele>
        <time>2022-02-09T13:11:54Z</time>
      </trkpt>
      <trkpt lat="44.90341" lon="6.58084">
        <ele>2378.2</ele>
        <time>2022-02-09T13:12:03Z</time>
      </trkpt>
      <trkpt lat="44.90341" lon="6.58087">
        <ele>2291.19</ele>
        <time>2022-02-09T13:12:13Z</time>
      </trkpt>
      <trkpt lat="44.90342" lon="6.58092">
        <ele>2305.62</ele>
        <time>2022-02-09T13:12:22Z</time>
      </trkpt>
      <trkpt lat="44.90343" lon="6.58096">
        <ele>2291.44</ele>
        <time>2022-02-09T13:12:32Z</time>
      </trkpt>
      <trkpt lat="44.90344" lon="6.58098">
        <ele>2347.54</ele>
        <time>2022-02-09T13:12:41Z</time>
      </trkpt>
      <trkpt lat="44.90344" lon="6.58099">
        <ele>2378.65</ele>
        <time>2022-02-09T13:12:53Z</time>
      </trkpt>
      <trkpt lat="44.90345" lon="6.58102">
        <ele>2379.11</ele>
        <time>2022-02-09T13:13:02Z</time>
      </trkpt>
      <trkpt lat="44.90347" lon="6.58106">
        <ele>2305.03</ele>
        <time>2022-02-09T13:13:12Z</time>
      </trkpt>
      <trkpt lat="44.90349" lon="6.58111">
        <ele>2291.5</ele>
        <time>2022-02-09T13:13:22Z</time>
      </trkpt>
      <trkpt lat="44.9035" lon="6.58113">
        <ele>2311.86</ele>
        <time>2022-02-09T13:13:31Z</time>
      </trkpt>
      <trkpt lat="44.90351" lon="6.58116">
        <ele>2427.52</ele>
        <time>2022-02-09T13:13:40Z</time>
      </trkpt>
      <trkpt lat="44.90351" lon="6.58113">
        <ele>2447.34</ele>
        <time>2022-02-09T13:13:50Z</time>
      </trkpt>
      <trkpt lat="44.90352" lon="6.58109">
        <ele>2405.21</ele>
        <time>2022-02-09T13:13:59Z</time>
      </trkpt>
      <trkpt lat="44.90353" lon="6.58106">
        <ele>2442.78</ele>
        <time>2022-02-09T13:14:10Z</time>
      </trkpt>
      <trkpt lat="44.90354" lon="6.58103">
        <ele>2420.81</ele>
        <time>2022-02-09T13:14:20Z</time>
      </trkpt>
      <trkpt lat="44.90355" lon="6.58102">
        <ele>2445.15</ele>
        <time>2022-02-09T13:14:30Z</time>
      </trkpt>
      <trkpt lat="44.90357" lon="6.581">
        <ele>2449.31</ele>
        <time>2022-02-09T13:14:40Z</time>
      </trkpt>
      <trkpt lat="44.90358" lon="6.58099">
        <ele>2424.59</ele>
        <time>2022-02-09T13:14:49Z</time>
      </trkpt>
      <trkpt lat="44.9036" lon="6.58097">
        <ele>2465.16</ele>
        <time>2022-02-09T13:14:59Z</time>
      </trkpt>
      <trkpt lat="44.90363" lon="6.58095">
        <ele>2487.88</ele>
        <time>2022-02-09T13:15:08Z</time>
      </trkpt>
      <trkpt lat="44.90366" lon="6.58093">
        <ele>2467.62</ele>
        <time>2022-02-09T13:15:18Z</time>
      </trkpt>
      <trkpt lat="44.90368" lon="6.58091">
        <ele>2467.57</ele>
        <time>2022-02-09T13:15:28Z</time>
      </trkpt>
      <trkpt lat="44.90369" lon="6.5809">
        <ele>2487.38</ele>
        <time>2022-02-09T13:15:37Z</time>
      </trkpt>
      <trkpt lat="44.90371" lon="6.58093">
        <ele>2482.62</ele>
        <time>2022-02-09T13:15:47Z</time>
      </trkpt>
      <trkpt lat="44.90372" lon="6.58096">
        <ele>2496.26</ele>
        <time>2022-02-09T13:15:57Z</time>
      </trkpt>
      <trkpt lat="44.90374" lon="6.58099">
        <ele>2499.65</ele>
        <time>2022-02-09T13:16:06Z</time>
      </trkpt>
      <trkpt lat="44.90374" lon="6.58102">
        <ele>2487.15</ele>
        <time>2022-02-09T13:16:16Z</time>
      </trkpt>
      <trkpt lat="44.90376" lon="6.58106">
        <ele>2502.72</ele>
        <time>2022-02-09T13:16:26Z</time>
      </trkpt>
      <trkpt lat="44.90377" lon="6.5811">
        <ele>2504.66</ele>
        <time>2022-02-09T13:16:36Z</time>
      </trkpt>
      <trkpt lat="44.90379" lon="6.58111">
        <ele>2508.55</ele>
        <time>2022-02-09T13:16:45Z</time>
      </trkpt>
      <trkpt lat="44.9038" lon="6.58113">
        <ele>2508.46</ele>
        <time>2022-02-09T13:16:55Z</time>
      </trkpt>
      <trkpt lat="44.9038" lon="6.58114">
        <ele>2496.86</ele>
        <time>2022-02-09T13:17:09Z</time>
      </trkpt>
      <trkpt lat="44.9038" lon="6.58116">
        <ele>2495.44</ele>
        <time>2022-02-09T13:17:20Z</time>
      </trkpt>
      <trkpt lat="44.90381" lon="6.5812">
        <ele>2509.98</ele>
        <time>2022-02-09T13:17:29Z</time>
      </trkpt>
      <trkpt lat="44.90383" lon="6.58124">
        <ele>2499.69</ele>
        <time>2022-02-09T13:17:38Z</time>
      </trkpt>
      <trkpt lat="44.90386" lon="6.58129">
        <ele>2508.18</ele>
        <time>2022-02-09T13:17:48Z</time>
      </trkpt>
      <trkpt lat="44.90386" lon="6.58127">
        <ele>2497.49</ele>
        <time>2022-02-09T13:18:30Z</time>
      </trkpt>
      <trkpt lat="44.90387" lon="6.58129">
        <ele>2511.02</ele>
        <time>2022-02-09T13:18:39Z</time>
      </trkpt>
      <trkpt lat="44.90389" lon="6.58136">
        <ele>2512.58</ele>
        <time>2022-02-09T13:18:49Z</time>
      </trkpt>
      <trkpt lat="44.9039" lon="6.58144">
        <ele>2512.39</ele>
        <time>2022-02-09T13:18:59Z</time>
      </trkpt>
      <trkpt lat="44.90393" lon="6.58152">
        <ele>2511.88</ele>
        <time>2022-02-09T13:19:09Z</time>
      </trkpt>
      <trkpt lat="44.90396" lon="6.58155">
        <ele>2501.57</ele>
        <time>2022-02-09T13:19:19Z</time>
      </trkpt>
      <trkpt lat="44.90397" lon="6.58155">
        <ele>2498.79</ele>
        <time>2022-02-09T13:19:30Z</time>
      </trkpt>
      <trkpt lat="44.90398" lon="6.58149">
        <ele>2492.58</ele>
        <time>2022-02-09T13:19:40Z</time>
      </trkpt>
      <trkpt lat="44.904" lon="6.58144">
        <ele>2476.67</ele>
        <time>2022-02-09T13:19:49Z</time>
      </trkpt>
      <trkpt lat="44.90401" lon="6.58143">
        <ele>2507.27</ele>
        <time>2022-02-09T13:19:58Z</time>
      </trkpt>
      <trkpt lat="44.90403" lon="6.58142">
        <ele>2512.39</ele>
        <time>2022-02-09T13:20:08Z</time>
      </trkpt>
      <trkpt lat="44.90405" lon="6.58144">
        <ele>2502.24</ele>
        <time>2022-02-09T13:20:17Z</time>
      </trkpt>
      <trkpt lat="44.90407" lon="6.58148">
        <ele>2502.06</ele>
        <time>2022-02-09T13:20:27Z</time>
      </trkpt>
      <trkpt lat="44.90408" lon="6.58149">
        <ele>2498.14</ele>
        <time>2022-02-09T13:20:37Z</time>
      </trkpt>
      <trkpt lat="44.90409" lon="6.58148">
        <ele>2500.73</ele>
        <time>2022-02-09T13:20:46Z</time>
      </trkpt>
      <trkpt lat="44.9041" lon="6.58144">
        <ele>2516.81</ele>
        <time>2022-02-09T13:20:55Z</time>
      </trkpt>
      <trkpt lat="44.90412" lon="6.5814">
        <ele>2502.39</ele>
        <time>2022-02-09T13:21:05Z</time>
      </trkpt>
      <trkpt lat="44.90412" lon="6.58141">
        <ele>2502.24</ele>
        <time>2022-02-09T13:21:15Z</time>
      </trkpt>
      <trkpt lat="44.90413" lon="6.58142">
        <ele>2502.44</ele>
        <time>2022-02-09T13:21:26Z</time>
      </trkpt>
      <trkpt lat="44.90414" lon="6.58143">
        <ele>2503.42</ele>
        <time>2022-02-09T13:21:35Z</time>
      </trkpt>
      <trkpt lat="44.90414" lon="6.5814">
        <ele>2519.64</ele>
        <time>2022-02-09T13:21:45Z</time>
      </trkpt>
      <trkpt lat="44.90415" lon="6.58138">
        <ele>2520.09</ele>
        <time>2022-02-09T13:21:54Z</time>
      </trkpt>
      <trkpt lat="44.90417" lon="6.5814">
        <ele>2505.78</ele>
        <time>2022-02-09T13:22:04Z</time>
      </trkpt>
      <trkpt lat="44.90418" lon="6.58142">
        <ele>2519.76</ele>
        <time>2022-02-09T13:22:13Z</time>
      </trkpt>
      <trkpt lat="44.90418" lon="6.58147">
        <ele>2509.62</ele>
        <time>2022-02-09T13:22:23Z</time>
      </trkpt>
      <trkpt lat="44.9042" lon="6.58149">
        <ele>2505.86</ele>
        <time>2022-02-09T13:22:33Z</time>
      </trkpt>
      <trkpt lat="44.90422" lon="6.58149">
        <ele>2522.65</ele>
        <time>2022-02-09T13:22:42Z</time>
      </trkpt>
      <trkpt lat="44.90423" lon="6.58148">
        <ele>2523.34</ele>
        <time>2022-02-09T13:22:52Z</time>
      </trkpt>
      <trkpt lat="44.90425" lon="6.58151">
        <ele>2507.18</ele>
        <time>2022-02-09T13:23:01Z</time>
      </trkpt>
      <trkpt lat="44.90427" lon="6.58154">
        <ele>2526.36</ele>
        <time>2022-02-09T13:23:11Z</time>
      </trkpt>
      <trkpt lat="44.90429" lon="6.58153">
        <ele>2526.07</ele>
        <time>2022-02-09T13:23:20Z</time>
      </trkpt>
      <trkpt lat="44.90432" lon="6.58148">
        <ele>2515.55</ele>
        <time>2022-02-09T13:23:30Z</time>
      </trkpt>
      <trkpt lat="44.90434" lon="6.58145">
        <ele>2526.52</ele>
        <time>2022-02-09T13:23:39Z</time>
      </trkpt>
      <trkpt lat="44.90433" lon="6.58142">
        <ele>2527.11</ele>
        <time>2022-02-09T13:23:49Z</time>
      </trkpt>
      <trkpt lat="44.90434" lon="6.58137">
        <ele>2512.38</ele>
        <time>2022-02-09T13:23:59Z</time>
      </trkpt>
      <trkpt lat="44.90434" lon="6.58133">
        <ele>2512.66</ele>
        <time>2022-02-09T13:24:09Z</time>
      </trkpt>
      <trkpt lat="44.90433" lon="6.5813">
        <ele>2513.19</ele>
        <time>2022-02-09T13:24:19Z</time>
      </trkpt>
      <trkpt lat="44.90434" lon="6.58127">
        <ele>2533.09</ele>
        <time>2022-02-09T13:24:29Z</time>
      </trkpt>
      <trkpt lat="44.90434" lon="6.58125">
        <ele>2535.05</ele>
        <time>2022-02-09T13:24:39Z</time>
      </trkpt>
      <trkpt lat="44.90435" lon="6.58126">
        <ele>2519.18</ele>
        <time>2022-02-09T13:24:49Z</time>
      </trkpt>
      <trkpt lat="44.90437" lon="6.58127">
        <ele>2518.77</ele>
        <time>2022-02-09T13:24:59Z</time>
      </trkpt>
      <trkpt lat="44.90439" lon="6.58124">
        <ele>2516.56</ele>
        <time>2022-02-09T13:25:09Z</time>
      </trkpt>
      <trkpt lat="44.9044" lon="6.58119">
        <ele>2517.52</ele>
        <time>2022-02-09T13:25:18Z</time>
      </trkpt>
      <trkpt lat="44.9044" lon="6.58116">
        <ele>2517.04</ele>
        <time>2022-02-09T13:25:29Z</time>
      </trkpt>
      <trkpt lat="44.9044" lon="6.58114">
        <ele>2516.81</ele>
        <time>2022-02-09T13:25:39Z</time>
      </trkpt>
      <trkpt lat="44.90441" lon="6.58111">
        <ele>2536.32</ele>
        <time>2022-02-09T13:25:48Z</time>
      </trkpt>
      <trkpt lat="44.90442" lon="6.58107">
        <ele>2518.06</ele>
        <time>2022-02-09T13:25:58Z</time>
      </trkpt>
      <trkpt lat="44.90443" lon="6.58108">
        <ele>2518.08</ele>
        <time>2022-02-09T13:26:17Z</time>
      </trkpt>
      <trkpt lat="44.90445" lon="6.5811">
        <ele>2519.01</ele>
        <time>2022-02-09T13:26:27Z</time>
      </trkpt>
      <trkpt lat="44.90447" lon="6.58111">
        <ele>2519.23</ele>
        <time>2022-02-09T13:26:37Z</time>
      </trkpt>
      <trkpt lat="44.90449" lon="6.58113">
        <ele>2520.11</ele>
        <time>2022-02-09T13:26:47Z</time>
      </trkpt>
      <trkpt lat="44.90451" lon="6.58115">
        <ele>2520.82</ele>
        <time>2022-02-09T13:26:57Z</time>
      </trkpt>
      <trkpt lat="44.90453" lon="6.58117">
        <ele>2541.53</ele>
        <time>2022-02-09T13:27:06Z</time>
      </trkpt>
      <trkpt lat="44.90454" lon="6.58118">
        <ele>2529.71</ele>
        <time>2022-02-09T13:27:16Z</time>
      </trkpt>
      <trkpt lat="44.90456" lon="6.58122">
        <ele>2522.57</ele>
        <time>2022-02-09T13:27:26Z</time>
      </trkpt>
      <trkpt lat="44.90458" lon="6.58124">
        <ele>2530.46</ele>
        <time>2022-02-09T13:27:35Z</time>
      </trkpt>
      <trkpt lat="44.9046" lon="6.58127">
        <ele>2539.25</ele>
        <time>2022-02-09T13:27:45Z</time>
      </trkpt>
      <trkpt lat="44.90461" lon="6.58129">
        <ele>2544.75</ele>
        <time>2022-02-09T13:27:55Z</time>
      </trkpt>
      <trkpt lat="44.90462" lon="6.58132">
        <ele>2544.89</ele>
        <time>2022-02-09T13:28:05Z</time>
      </trkpt>
      <trkpt lat="44.90464" lon="6.58135">
        <ele>2531.51</ele>
        <time>2022-02-09T13:28:15Z</time>
      </trkpt>
      <trkpt lat="44.90467" lon="6.58136">
        <ele>2523.07</ele>
        <time>2022-02-09T13:28:25Z</time>
      </trkpt>
      <trkpt lat="44.90469" lon="6.58138">
        <ele>2522.93</ele>
        <time>2022-02-09T13:28:35Z</time>
      </trkpt>
      <trkpt lat="44.90471" lon="6.5814">
        <ele>2543.23</ele>
        <time>2022-02-09T13:28:45Z</time>
      </trkpt>
      <trkpt lat="44.90473" lon="6.58142">
        <ele>2536.58</ele>
        <time>2022-02-09T13:28:55Z</time>
      </trkpt>
      <trkpt lat="44.90474" lon="6.58145">
        <ele>2524.95</ele>
        <time>2022-02-09T13:29:05Z</time>
      </trkpt>
      <trkpt lat="44.90475" lon="6.58145">
        <ele>2536.4</ele>
        <time>2022-02-09T13:29:15Z</time>
      </trkpt>
      <trkpt lat="44.90476" lon="6.58146">
        <ele>2525.91</ele>
        <time>2022-02-09T13:29:29Z</time>
      </trkpt>
      <trkpt lat="44.90477" lon="6.58147">
        <ele>2542.74</ele>
        <time>2022-02-09T13:29:38Z</time>
      </trkpt>
      <trkpt lat="44.90477" lon="6.58144">
        <ele>2546.95</ele>
        <time>2022-02-09T13:29:47Z</time>
      </trkpt>
      <trkpt lat="44.90477" lon="6.58141">
        <ele>2532.21</ele>
        <time>2022-02-09T13:29:57Z</time>
      </trkpt>
      <trkpt lat="44.90478" lon="6.58139">
        <ele>2527.74</ele>
        <time>2022-02-09T13:30:07Z</time>
      </trkpt>
      <trkpt lat="44.90479" lon="6.58141">
        <ele>2529.24</ele>
        <time>2022-02-09T13:30:17Z</time>
      </trkpt>
      <trkpt lat="44.90481" lon="6.58145">
        <ele>2529.39</ele>
        <time>2022-02-09T13:30:27Z</time>
      </trkpt>
      <trkpt lat="44.90484" lon="6.58147">
        <ele>2549.09</ele>
        <time>2022-02-09T13:30:37Z</time>
      </trkpt>
      <trkpt lat="44.90485" lon="6.58149">
        <ele>2551.57</ele>
        <time>2022-02-09T13:30:47Z</time>
      </trkpt>
      <trkpt lat="44.90487" lon="6.58152">
        <ele>2529.76</ele>
        <time>2022-02-09T13:30:56Z</time>
      </trkpt>
      <trkpt lat="44.90488" lon="6.58153">
        <ele>2549.98</ele>
        <time>2022-02-09T13:31:06Z</time>
      </trkpt>
      <trkpt lat="44.90489" lon="6.58154">
        <ele>2529.84</ele>
        <time>2022-02-09T13:31:16Z</time>
      </trkpt>
      <trkpt lat="44.9049" lon="6.58155">
        <ele>2529.79</ele>
        <time>2022-02-09T13:31:26Z</time>
      </trkpt>
      <trkpt lat="44.90489" lon="6.58153">
        <ele>2544.52</ele>
        <time>2022-02-09T13:31:35Z</time>
      </trkpt>
      <trkpt lat="44.90491" lon="6.5815">
        <ele>2540.76</ele>
        <time>2022-02-09T13:31:45Z</time>
      </trkpt>
      <trkpt lat="44.90491" lon="6.58151">
        <ele>2552.5</ele>
        <time>2022-02-09T13:32:03Z</time>
      </trkpt>
      <trkpt lat="44.90492" lon="6.58152">
        <ele>2533.84</ele>
        <time>2022-02-09T13:32:13Z</time>
      </trkpt>
      <trkpt lat="44.90492" lon="6.58148">
        <ele>2534.6</ele>
        <time>2022-02-09T13:32:23Z</time>
      </trkpt>
      <trkpt lat="44.90492" lon="6.58144">
        <ele>2535.72</ele>
        <time>2022-02-09T13:32:33Z</time>
      </trkpt>
      <trkpt lat="44.90492" lon="6.58141">
        <ele>2536.35</ele>
        <time>2022-02-09T13:32:43Z</time>
      </trkpt>
      <trkpt lat="44.90492" lon="6.58138">
        <ele>2537.11</ele>
        <time>2022-02-09T13:32:53Z</time>
      </trkpt>
      <trkpt lat="44.90492" lon="6.58137">
        <ele>2541.57</ele>
        <time>2022-02-09T13:33:03Z</time>
      </trkpt>
      <trkpt lat="44.90493" lon="6.58134">
        <ele>2537.06</ele>
        <time>2022-02-09T13:33:13Z</time>
      </trkpt>
      <trkpt lat="44.90494" lon="6.5813">
        <ele>2537.68</ele>
        <time>2022-02-09T13:33:23Z</time>
      </trkpt>
      <trkpt lat="44.90494" lon="6.58129">
        <ele>2537.9</ele>
        <time>2022-02-09T13:33:32Z</time>
      </trkpt>
      <trkpt lat="44.90495" lon="6.58131">
        <ele>2543.68</ele>
        <time>2022-02-09T13:33:42Z</time>
      </trkpt>
      <trkpt lat="44.90497" lon="6.58133">
        <ele>2545.47</ele>
        <time>2022-02-09T13:33:51Z</time>
      </trkpt>
      <trkpt lat="44.905" lon="6.58135">
        <ele>2557.43</ele>
        <time>2022-02-09T13:34:01Z</time>
      </trkpt>
      <trkpt lat="44.90501" lon="6.58137">
        <ele>2542.86</ele>
        <time>2022-02-09T13:34:11Z</time>
      </trkpt>
      <trkpt lat="44.90502" lon="6.58137">
        <ele>2540.19</ele>
        <time>2022-02-09T13:34:46Z</time>
      </trkpt>
      <trkpt lat="44.90504" lon="6.58137">
        <ele>2565.8</ele>
        <time>2022-02-09T13:34:56Z</time>
      </trkpt>
      <trkpt lat="44.90506" lon="6.58138">
        <ele>2545.46</ele>
        <time>2022-02-09T13:35:05Z</time>
      </trkpt>
      <trkpt lat="44.90507" lon="6.5814">
        <ele>2542.23</ele>
        <time>2022-02-09T13:35:14Z</time>
      </trkpt>
      <trkpt lat="44.90509" lon="6.58141">
        <ele>2541.82</ele>
        <time>2022-02-09T13:35:23Z</time>
      </trkpt>
      <trkpt lat="44.90511" lon="6.58142">
        <ele>2566.9</ele>
        <time>2022-02-09T13:35:33Z</time>
      </trkpt>
      <trkpt lat="44.90512" lon="6.58143">
        <ele>2566.09</ele>
        <time>2022-02-09T13:35:43Z</time>
      </trkpt>
      <trkpt lat="44.90513" lon="6.58143">
        <ele>2549.23</ele>
        <time>2022-02-09T13:35:54Z</time>
      </trkpt>
      <trkpt lat="44.90514" lon="6.5814">
        <ele>2601.4</ele>
        <time>2022-02-09T13:36:04Z</time>
      </trkpt>
      <trkpt lat="44.90515" lon="6.58137">
        <ele>2590.49</ele>
        <time>2022-02-09T13:36:13Z</time>
      </trkpt>
      <trkpt lat="44.90515" lon="6.58132">
        <ele>2592.54</ele>
        <time>2022-02-09T13:36:23Z</time>
      </trkpt>
      <trkpt lat="44.90514" lon="6.5813">
        <ele>2594.69</ele>
        <time>2022-02-09T13:36:33Z</time>
      </trkpt>
      <trkpt lat="44.90514" lon="6.58127">
        <ele>2599.78</ele>
        <time>2022-02-09T13:36:43Z</time>
      </trkpt>
      <trkpt lat="44.90515" lon="6.58125">
        <ele>2598.07</ele>
        <time>2022-02-09T13:36:52Z</time>
      </trkpt>
      <trkpt lat="44.90515" lon="6.58121">
        <ele>1394.59</ele>
        <time>2022-02-09T13:37:02Z</time>
      </trkpt>
      <trkpt lat="44.90517" lon="6.58117">
        <ele>1273.34</ele>
        <time>2022-02-09T13:37:12Z</time>
      </trkpt>
      <trkpt lat="44.90518" lon="6.58116">
        <ele>1272.9</ele>
        <time>2022-02-09T13:37:23Z</time>
      </trkpt>
      <trkpt lat="44.90519" lon="6.58117">
        <ele>1272.9</ele>
        <time>2022-02-09T13:37:35Z</time>
      </trkpt>
      <trkpt lat="44.90521" lon="6.58116">
        <ele>2581.68</ele>
        <time>2022-02-09T13:37:44Z</time>
      </trkpt>
      <trkpt lat="44.90522" lon="6.58111">
        <ele>2575.49</ele>
        <time>2022-02-09T13:37:54Z</time>
      </trkpt>
      <trkpt lat="44.90524" lon="6.58108">
        <ele>2552.13</ele>
        <time>2022-02-09T13:38:04Z</time>
      </trkpt>
      <trkpt lat="44.90525" lon="6.58109">
        <ele>2383.63</ele>
        <time>2022-02-09T13:38:28Z</time>
      </trkpt>
      <trkpt lat="44.90526" lon="6.58111">
        <ele>2394.65</ele>
        <time>2022-02-09T13:38:38Z</time>
      </trkpt>
      <trkpt lat="44.90527" lon="6.58111">
        <ele>2460.24</ele>
        <time>2022-02-09T13:38:50Z</time>
      </trkpt>
      <trkpt lat="44.90528" lon="6.58111">
        <ele>2460.93</ele>
        <time>2022-02-09T13:39:00Z</time>
      </trkpt>
      <trkpt lat="44.90529" lon="6.58111">
        <ele>2483.31</ele>
        <time>2022-02-09T13:39:09Z</time>
      </trkpt>
      <trkpt lat="44.9053" lon="6.58113">
        <ele>2456.64</ele>
        <time>2022-02-09T13:39:19Z</time>
      </trkpt>
      <trkpt lat="44.90534" lon="6.58115">
        <ele>2372.73</ele>
        <time>2022-02-09T13:39:29Z</time>
      </trkpt>
      <trkpt lat="44.90535" lon="6.58114">
        <ele>2461</ele>
        <time>2022-02-09T13:39:40Z</time>
      </trkpt>
      <trkpt lat="44.90534" lon="6.58114">
        <ele>2361.45</ele>
        <time>2022-02-09T13:40:04Z</time>
      </trkpt>
      <trkpt lat="44.90532" lon="6.58114">
        <ele>2360.64</ele>
        <time>2022-02-09T13:40:13Z</time>
      </trkpt>
      <trkpt lat="44.90529" lon="6.58116">
        <ele>2421.63</ele>
        <time>2022-02-09T13:40:23Z</time>
      </trkpt>
      <trkpt lat="44.90528" lon="6.58118">
        <ele>2604.09</ele>
        <time>2022-02-09T13:40:33Z</time>
      </trkpt>
      <trkpt lat="44.90527" lon="6.58115">
        <ele>2493.54</ele>
        <time>2022-02-09T13:40:43Z</time>
      </trkpt>
      <trkpt lat="44.90529" lon="6.58114">
        <ele>2583.95</ele>
        <time>2022-02-09T13:40:52Z</time>
      </trkpt>
      <trkpt lat="44.9053" lon="6.58115">
        <ele>2535.5</ele>
        <time>2022-02-09T13:41:06Z</time>
      </trkpt>
      <trkpt lat="44.9053" lon="6.58113">
        <ele>2362.9</ele>
        <time>2022-02-09T13:41:16Z</time>
      </trkpt>
      <trkpt lat="44.90533" lon="6.58116">
        <ele>2361.15</ele>
        <time>2022-02-09T13:41:26Z</time>
      </trkpt>
      <trkpt lat="44.90531" lon="6.58114">
        <ele>2454.92</ele>
        <time>2022-02-09T13:41:36Z</time>
      </trkpt>
      <trkpt lat="44.90532" lon="6.58115">
        <ele>2360.69</ele>
        <time>2022-02-09T13:45:00Z</time>
      </trkpt>
      <trkpt lat="44.90531" lon="6.58114">
        <ele>2460.65</ele>
        <time>2022-02-09T13:51:18Z</time>
      </trkpt>
      <trkpt lat="44.90537" lon="6.58105">
        <ele>2460.38</ele>
        <time>2022-02-09T13:51:28Z</time>
      </trkpt>
      <trkpt lat="44.90536" lon="6.58103">
        <ele>2488.61</ele>
        <time>2022-02-09T13:51:38Z</time>
      </trkpt>
      <trkpt lat="44.90537" lon="6.58103">
        <ele>2472.42</ele>
        <time>2022-02-09T13:52:09Z</time>
      </trkpt>
      <trkpt lat="44.90544" lon="6.58101">
        <ele>2525.2</ele>
        <time>2022-02-09T13:52:18Z</time>
      </trkpt>
      <trkpt lat="44.90546" lon="6.58103">
        <ele>2475.86</ele>
        <time>2022-02-09T13:52:28Z</time>
      </trkpt>
      <trkpt lat="44.90546" lon="6.58104">
        <ele>2473.29</ele>
        <time>2022-02-09T13:52:39Z</time>
      </trkpt>
      <trkpt lat="44.90544" lon="6.58103">
        <ele>2483.43</ele>
        <time>2022-02-09T13:52:49Z</time>
      </trkpt>
      <trkpt lat="44.90544" lon="6.58105">
        <ele>2493.68</ele>
        <time>2022-02-09T13:53:02Z</time>
      </trkpt>
      <trkpt lat="44.90543" lon="6.58111">
        <ele>2473.55</ele>
        <time>2022-02-09T13:53:13Z</time>
      </trkpt>
      <trkpt lat="44.9054" lon="6.58114">
        <ele>2473.35</ele>
        <time>2022-02-09T13:53:23Z</time>
      </trkpt>
      <trkpt lat="44.90541" lon="6.58113">
        <ele>2527.26</ele>
        <time>2022-02-09T13:53:45Z</time>
      </trkpt>
      <trkpt lat="44.90541" lon="6.58114">
        <ele>2612.44</ele>
        <time>2022-02-09T13:54:03Z</time>
      </trkpt>
      <trkpt lat="44.9054" lon="6.58115">
        <ele>1458.12</ele>
        <time>2022-02-09T13:54:41Z</time>
      </trkpt>
      <trkpt lat="44.90538" lon="6.58115">
        <ele>1455.62</ele>
        <time>2022-02-09T13:54:51Z</time>
      </trkpt>
      <trkpt lat="44.90532" lon="6.58111">
        <ele>1455.6</ele>
        <time>2022-02-09T13:55:01Z</time>
      </trkpt>
      <trkpt lat="44.9053" lon="6.58113">
        <ele>1455.6</ele>
        <time>2022-02-09T13:55:11Z</time>
      </trkpt>
      <trkpt lat="44.90531" lon="6.58113">
        <ele>1455.6</ele>
        <time>2022-02-09T13:55:21Z</time>
      </trkpt>
      <trkpt lat="44.90532" lon="6.58115">
        <ele>2439.12</ele>
        <time>2022-02-09T13:56:59Z</time>
      </trkpt>
      <trkpt lat="44.90532" lon="6.58114">
        <ele>2361.99</ele>
        <time>2022-02-09T13:57:31Z</time>
      </trkpt>
      <trkpt lat="44.90532" lon="6.58112">
        <ele>2360.67</ele>
        <time>2022-02-09T13:57:55Z</time>
      </trkpt>
      <trkpt lat="44.90532" lon="6.5811">
        <ele>2359.82</ele>
        <time>2022-02-09T13:58:05Z</time>
      </trkpt>
      <trkpt lat="44.90533" lon="6.5811">
        <ele>2442.28</ele>
        <time>2022-02-09T13:58:15Z</time>
      </trkpt>
      <trkpt lat="44.90532" lon="6.58111">
        <ele>2474.19</ele>
        <time>2022-02-09T13:58:30Z</time>
      </trkpt>
      <trkpt lat="44.90531" lon="6.58109">
        <ele>2362.58</ele>
        <time>2022-02-09T13:58:40Z</time>
      </trkpt>
      <trkpt lat="44.9053" lon="6.5811">
        <ele>2361.16</ele>
        <time>2022-02-09T13:58:49Z</time>
      </trkpt>
      <trkpt lat="44.90529" lon="6.581">
        <ele>2360.39</ele>
        <time>2022-02-09T13:58:59Z</time>
      </trkpt>
      <trkpt lat="44.90523" lon="6.58091">
        <ele>2617.41</ele>
        <time>2022-02-09T13:59:09Z</time>
      </trkpt>
      <trkpt lat="44.90522" lon="6.58086">
        <ele>2396</ele>
        <time>2022-02-09T13:59:18Z</time>
      </trkpt>
      <trkpt lat="44.90517" lon="6.58093">
        <ele>2340.07</ele>
        <time>2022-02-09T13:59:28Z</time>
      </trkpt>
      <trkpt lat="44.90516" lon="6.58094">
        <ele>2457.34</ele>
        <time>2022-02-09T13:59:37Z</time>
      </trkpt>
      <trkpt lat="44.90515" lon="6.581">
        <ele>2417.55</ele>
        <time>2022-02-09T13:59:47Z</time>
      </trkpt>
      <trkpt lat="44.90514" lon="6.58111">
        <ele>2356.78</ele>
        <time>2022-02-09T13:59:57Z</time>
      </trkpt>
      <trkpt lat="44.90514" lon="6.58108">
        <ele>2523.36</ele>
        <time>2022-02-09T14:00:07Z</time>
      </trkpt>
      <trkpt lat="44.90515" lon="6.58106">
        <ele>2547.92</ele>
        <time>2022-02-09T14:00:16Z</time>
      </trkpt>
      <trkpt lat="44.90514" lon="6.58118">
        <ele>2546.44</ele>
        <time>2022-02-09T14:00:25Z</time>
      </trkpt>
      <trkpt lat="44.90513" lon="6.5813">
        <ele>2544.44</ele>
        <time>2022-02-09T14:00:35Z</time>
      </trkpt>
      <trkpt lat="44.90513" lon="6.58133">
        <ele>2594.19</ele>
        <time>2022-02-09T14:00:44Z</time>
      </trkpt>
      <trkpt lat="44.90514" lon="6.58145">
        <ele>2554.21</ele>
        <time>2022-02-09T14:00:54Z</time>
      </trkpt>
      <trkpt lat="44.90514" lon="6.58151">
        <ele>2600.81</ele>
        <time>2022-02-09T14:01:04Z</time>
      </trkpt>
      <trkpt lat="44.90513" lon="6.58149">
        <ele>2603.05</ele>
        <time>2022-02-09T14:01:14Z</time>
      </trkpt>
      <trkpt lat="44.90511" lon="6.58153">
        <ele>2603.31</ele>
        <time>2022-02-09T14:01:23Z</time>
      </trkpt>
      <trkpt lat="44.90506" lon="6.58152">
        <ele>2579.37</ele>
        <time>2022-02-09T14:01:33Z</time>
      </trkpt>
      <trkpt lat="44.90503" lon="6.58141">
        <ele>2564.97</ele>
        <time>2022-02-09T14:01:44Z</time>
      </trkpt>
      <trkpt lat="44.90501" lon="6.58134">
        <ele>2539.38</ele>
        <time>2022-02-09T14:01:53Z</time>
      </trkpt>
      <trkpt lat="44.90497" lon="6.58133">
        <ele>2539.5</ele>
        <time>2022-02-09T14:02:03Z</time>
      </trkpt>
      <trkpt lat="44.90493" lon="6.58133">
        <ele>2565.24</ele>
        <time>2022-02-09T14:02:12Z</time>
      </trkpt>
      <trkpt lat="44.90489" lon="6.58132">
        <ele>2539.02</ele>
        <time>2022-02-09T14:02:21Z</time>
      </trkpt>
      <trkpt lat="44.90485" lon="6.58134">
        <ele>2537.35</ele>
        <time>2022-02-09T14:02:31Z</time>
      </trkpt>
      <trkpt lat="44.90487" lon="6.58139">
        <ele>2537.05</ele>
        <time>2022-02-09T14:02:40Z</time>
      </trkpt>
      <trkpt lat="44.9049" lon="6.58142">
        <ele>2536.44</ele>
        <time>2022-02-09T14:02:49Z</time>
      </trkpt>
      <trkpt lat="44.90488" lon="6.58143">
        <ele>2537.19</ele>
        <time>2022-02-09T14:02:59Z</time>
      </trkpt>
      <trkpt lat="44.90489" lon="6.58147">
        <ele>2536.72</ele>
        <time>2022-02-09T14:03:08Z</time>
      </trkpt>
      <trkpt lat="44.90489" lon="6.58151">
        <ele>2536.35</ele>
        <time>2022-02-09T14:03:17Z</time>
      </trkpt>
      <trkpt lat="44.90488" lon="6.5816">
        <ele>2553.69</ele>
        <time>2022-02-09T14:03:27Z</time>
      </trkpt>
      <trkpt lat="44.90486" lon="6.58167">
        <ele>2555.71</ele>
        <time>2022-02-09T14:03:36Z</time>
      </trkpt>
      <trkpt lat="44.90482" lon="6.58173">
        <ele>2548.13</ele>
        <time>2022-02-09T14:03:46Z</time>
      </trkpt>
      <trkpt lat="44.90479" lon="6.58177">
        <ele>2550.38</ele>
        <time>2022-02-09T14:03:56Z</time>
      </trkpt>
      <trkpt lat="44.90476" lon="6.58182">
        <ele>2547.04</ele>
        <time>2022-02-09T14:04:06Z</time>
      </trkpt>
      <trkpt lat="44.90473" lon="6.58184">
        <ele>2546.98</ele>
        <time>2022-02-09T14:04:16Z</time>
      </trkpt>
      <trkpt lat="44.9047" lon="6.58182">
        <ele>2545.75</ele>
        <time>2022-02-09T14:04:26Z</time>
      </trkpt>
      <trkpt lat="44.90468" lon="6.58182">
        <ele>2543.89</ele>
        <time>2022-02-09T14:04:36Z</time>
      </trkpt>
      <trkpt lat="44.90463" lon="6.58183">
        <ele>2522.11</ele>
        <time>2022-02-09T14:04:46Z</time>
      </trkpt>
      <trkpt lat="44.9046" lon="6.58183">
        <ele>2521.88</ele>
        <time>2022-02-09T14:04:56Z</time>
      </trkpt>
      <trkpt lat="44.90458" lon="6.58185">
        <ele>2534.52</ele>
        <time>2022-02-09T14:05:06Z</time>
      </trkpt>
      <trkpt lat="44.90456" lon="6.5819">
        <ele>2538.55</ele>
        <time>2022-02-09T14:05:16Z</time>
      </trkpt>
      <trkpt lat="44.90453" lon="6.5819">
        <ele>2539.54</ele>
        <time>2022-02-09T14:05:25Z</time>
      </trkpt>
      <trkpt lat="44.90447" lon="6.58195">
        <ele>2540.18</ele>
        <time>2022-02-09T14:05:35Z</time>
      </trkpt>
      <trkpt lat="44.90447" lon="6.58205">
        <ele>2538.92</ele>
        <time>2022-02-09T14:05:45Z</time>
      </trkpt>
      <trkpt lat="44.90444" lon="6.58212">
        <ele>2556.52</ele>
        <time>2022-02-09T14:05:55Z</time>
      </trkpt>
      <trkpt lat="44.90442" lon="6.5822">
        <ele>2558.2</ele>
        <time>2022-02-09T14:06:04Z</time>
      </trkpt>
      <trkpt lat="44.90437" lon="6.58217">
        <ele>2561.09</ele>
        <time>2022-02-09T14:06:13Z</time>
      </trkpt>
      <trkpt lat="44.90434" lon="6.58213">
        <ele>2557.24</ele>
        <time>2022-02-09T14:06:22Z</time>
      </trkpt>
      <trkpt lat="44.90434" lon="6.58197">
        <ele>2553.11</ele>
        <time>2022-02-09T14:06:31Z</time>
      </trkpt>
      <trkpt lat="44.90432" lon="6.58184">
        <ele>2549.42</ele>
        <time>2022-02-09T14:06:41Z</time>
      </trkpt>
      <trkpt lat="44.90427" lon="6.58188">
        <ele>2549.51</ele>
        <time>2022-02-09T14:06:50Z</time>
      </trkpt>
      <trkpt lat="44.90423" lon="6.58193">
        <ele>2547.08</ele>
        <time>2022-02-09T14:07:00Z</time>
      </trkpt>
      <trkpt lat="44.90423" lon="6.58195">
        <ele>2546.1</ele>
        <time>2022-02-09T14:07:10Z</time>
      </trkpt>
      <trkpt lat="44.90419" lon="6.58199">
        <ele>2545.55</ele>
        <time>2022-02-09T14:07:20Z</time>
      </trkpt>
      <trkpt lat="44.90413" lon="6.58203">
        <ele>2543.56</ele>
        <time>2022-02-09T14:07:29Z</time>
      </trkpt>
      <trkpt lat="44.90409" lon="6.58201">
        <ele>2541.99</ele>
        <time>2022-02-09T14:07:39Z</time>
      </trkpt>
      <trkpt lat="44.90404" lon="6.58209">
        <ele>2540.87</ele>
        <time>2022-02-09T14:07:49Z</time>
      </trkpt>
      <trkpt lat="44.90399" lon="6.58202">
        <ele>2539.92</ele>
        <time>2022-02-09T14:07:59Z</time>
      </trkpt>
      <trkpt lat="44.90395" lon="6.58208">
        <ele>2537.95</ele>
        <time>2022-02-09T14:08:09Z</time>
      </trkpt>
      <trkpt lat="44.90389" lon="6.58208">
        <ele>2534.2</ele>
        <time>2022-02-09T14:08:18Z</time>
      </trkpt>
      <trkpt lat="44.90388" lon="6.58206">
        <ele>2533.77</ele>
        <time>2022-02-09T14:08:27Z</time>
      </trkpt>
      <trkpt lat="44.9039" lon="6.58208">
        <ele>2534.49</ele>
        <time>2022-02-09T14:08:38Z</time>
      </trkpt>
      <trkpt lat="44.90391" lon="6.58209">
        <ele>2535.09</ele>
        <time>2022-02-09T14:08:48Z</time>
      </trkpt>
      <trkpt lat="44.90391" lon="6.58208">
        <ele>2535.29</ele>
        <time>2022-02-09T14:08:58Z</time>
      </trkpt>
      <trkpt lat="44.90392" lon="6.58206">
        <ele>2499.52</ele>
        <time>2022-02-09T14:09:08Z</time>
      </trkpt>
      <trkpt lat="44.90393" lon="6.58205">
        <ele>2477</ele>
        <time>2022-02-09T14:09:45Z</time>
      </trkpt>
      <trkpt lat="44.90394" lon="6.58206">
        <ele>2495.32</ele>
        <time>2022-02-09T14:10:51Z</time>
      </trkpt>
      <trkpt lat="44.90394" lon="6.58205">
        <ele>2511.96</ele>
        <time>2022-02-09T14:11:15Z</time>
      </trkpt>
      <trkpt lat="44.90395" lon="6.58206">
        <ele>2496.26</ele>
        <time>2022-02-09T14:11:29Z</time>
      </trkpt>
      <trkpt lat="44.90396" lon="6.58206">
        <ele>2496.75</ele>
        <time>2022-02-09T14:11:43Z</time>
      </trkpt>
      <trkpt lat="44.90395" lon="6.58206">
        <ele>2496.87</ele>
        <time>2022-02-09T14:11:54Z</time>
      </trkpt>
      <trkpt lat="44.90394" lon="6.58204">
        <ele>2538.04</ele>
        <time>2022-02-09T14:12:18Z</time>
      </trkpt>
      <trkpt lat="44.9038" lon="6.58187">
        <ele>2535.19</ele>
        <time>2022-02-09T14:12:28Z</time>
      </trkpt>
      <trkpt lat="44.90385" lon="6.58188">
        <ele>2535.5</ele>
        <time>2022-02-09T14:12:38Z</time>
      </trkpt>
      <trkpt lat="44.90383" lon="6.58188">
        <ele>2499.1</ele>
        <time>2022-02-09T14:12:52Z</time>
      </trkpt>
      <trkpt lat="44.90374" lon="6.58174">
        <ele>2474.38</ele>
        <time>2022-02-09T14:13:01Z</time>
      </trkpt>
      <trkpt lat="44.90372" lon="6.58175">
        <ele>2505.79</ele>
        <time>2022-02-09T14:13:11Z</time>
      </trkpt>
      <trkpt lat="44.90371" lon="6.58174">
        <ele>2491.19</ele>
        <time>2022-02-09T14:13:21Z</time>
      </trkpt>
      <trkpt lat="44.9037" lon="6.58173">
        <ele>2500.16</ele>
        <time>2022-02-09T14:13:31Z</time>
      </trkpt>
      <trkpt lat="44.90369" lon="6.58172">
        <ele>2490.02</ele>
        <time>2022-02-09T14:13:46Z</time>
      </trkpt>
      <trkpt lat="44.90368" lon="6.58171">
        <ele>2504.31</ele>
        <time>2022-02-09T14:13:59Z</time>
      </trkpt>
      <trkpt lat="44.90353" lon="6.58163">
        <ele>2487.29</ele>
        <time>2022-02-09T14:14:08Z</time>
      </trkpt>
      <trkpt lat="44.90335" lon="6.58113">
        <ele>2491.26</ele>
        <time>2022-02-09T14:14:18Z</time>
      </trkpt>
      <trkpt lat="44.90331" lon="6.58033">
        <ele>2396.65</ele>
        <time>2022-02-09T14:14:28Z</time>
      </trkpt>
      <trkpt lat="44.90333" lon="6.58028">
        <ele>2364.09</ele>
        <time>2022-02-09T14:14:38Z</time>
      </trkpt>
      <trkpt lat="44.90332" lon="6.58029">
        <ele>2331.29</ele>
        <time>2022-02-09T14:14:53Z</time>
      </trkpt>
      <trkpt lat="44.90331" lon="6.5803">
        <ele>2285.02</ele>
        <time>2022-02-09T14:15:03Z</time>
      </trkpt>
      <trkpt lat="44.90331" lon="6.58028">
        <ele>2311.41</ele>
        <time>2022-02-09T14:15:13Z</time>
      </trkpt>
      <trkpt lat="44.90333" lon="6.57994">
        <ele>2360.9</ele>
        <time>2022-02-09T14:15:23Z</time>
      </trkpt>
      <trkpt lat="44.90335" lon="6.57966">
        <ele>2253.27</ele>
        <time>2022-02-09T14:15:33Z</time>
      </trkpt>
      <trkpt lat="44.90333" lon="6.57964">
        <ele>2239.91</ele>
        <time>2022-02-09T14:15:43Z</time>
      </trkpt>
      <trkpt lat="44.90332" lon="6.57963">
        <ele>2030.99</ele>
        <time>2022-02-09T14:15:53Z</time>
      </trkpt>
      <trkpt lat="44.90333" lon="6.5796">
        <ele>2011.04</ele>
        <time>2022-02-09T14:16:03Z</time>
      </trkpt>
      <trkpt lat="44.90328" lon="6.57968">
        <ele>2200.69</ele>
        <time>2022-02-09T14:16:13Z</time>
      </trkpt>
      <trkpt lat="44.90329" lon="6.57966">
        <ele>2240.43</ele>
        <time>2022-02-09T14:16:23Z</time>
      </trkpt>
      <trkpt lat="44.90328" lon="6.57965">
        <ele>2215.15</ele>
        <time>2022-02-09T14:16:45Z</time>
      </trkpt>
      <trkpt lat="44.90329" lon="6.57962">
        <ele>2206.91</ele>
        <time>2022-02-09T14:16:54Z</time>
      </trkpt>
      <trkpt lat="44.9033" lon="6.57959">
        <ele>2259</ele>
        <time>2022-02-09T14:17:04Z</time>
      </trkpt>
      <trkpt lat="44.90349" lon="6.57925">
        <ele>2265.16</ele>
        <time>2022-02-09T14:17:14Z</time>
      </trkpt>
      <trkpt lat="44.90359" lon="6.57893">
        <ele>2249.46</ele>
        <time>2022-02-09T14:17:23Z</time>
      </trkpt>
      <trkpt lat="44.90356" lon="6.57896">
        <ele>2189.33</ele>
        <time>2022-02-09T14:17:33Z</time>
      </trkpt>
      <trkpt lat="44.90355" lon="6.57896">
        <ele>2319.25</ele>
        <time>2022-02-09T14:17:53Z</time>
      </trkpt>
      <trkpt lat="44.90354" lon="6.57897">
        <ele>2260.69</ele>
        <time>2022-02-09T14:18:03Z</time>
      </trkpt>
      <trkpt lat="44.9035" lon="6.57893">
        <ele>2254.32</ele>
        <time>2022-02-09T14:18:13Z</time>
      </trkpt>
      <trkpt lat="44.9035" lon="6.5784">
        <ele>2427.91</ele>
        <time>2022-02-09T14:18:23Z</time>
      </trkpt>
      <trkpt lat="44.90338" lon="6.57783">
        <ele>2361.23</ele>
        <time>2022-02-09T14:18:32Z</time>
      </trkpt>
      <trkpt lat="44.90335" lon="6.57791">
        <ele>2377.74</ele>
        <time>2022-02-09T14:18:41Z</time>
      </trkpt>
      <trkpt lat="44.90331" lon="6.57788">
        <ele>2376.46</ele>
        <time>2022-02-09T14:18:50Z</time>
      </trkpt>
      <trkpt lat="44.90327" lon="6.57784">
        <ele>2352.79</ele>
        <time>2022-02-09T14:19:00Z</time>
      </trkpt>
      <trkpt lat="44.90325" lon="6.57783">
        <ele>2299.88</ele>
        <time>2022-02-09T14:19:10Z</time>
      </trkpt>
      <trkpt lat="44.90324" lon="6.57782">
        <ele>2312.78</ele>
        <time>2022-02-09T14:19:20Z</time>
      </trkpt>
      <trkpt lat="44.90321" lon="6.57781">
        <ele>2336.85</ele>
        <time>2022-02-09T14:19:30Z</time>
      </trkpt>
      <trkpt lat="44.90316" lon="6.5778">
        <ele>2337</ele>
        <time>2022-02-09T14:19:40Z</time>
      </trkpt>
      <trkpt lat="44.90317" lon="6.57779">
        <ele>2337</ele>
        <time>2022-02-09T14:19:50Z</time>
      </trkpt>
      <trkpt lat="44.90318" lon="6.57778">
        <ele>2337</ele>
        <time>2022-02-09T14:20:00Z</time>
      </trkpt>
      <trkpt lat="44.90319" lon="6.57778">
        <ele>2337</ele>
        <time>2022-02-09T14:20:13Z</time>
      </trkpt>
      <trkpt lat="44.9032" lon="6.57778">
        <ele>2337</ele>
        <time>2022-02-09T14:20:23Z</time>
      </trkpt>
      <trkpt lat="44.90321" lon="6.57778">
        <ele>2337</ele>
        <time>2022-02-09T14:20:35Z</time>
      </trkpt>
      <trkpt lat="44.90323" lon="6.57779">
        <ele>2337</ele>
        <time>2022-02-09T14:20:45Z</time>
      </trkpt>
      <trkpt lat="44.90324" lon="6.5778">
        <ele>2337.14</ele>
        <time>2022-02-09T14:20:55Z</time>
      </trkpt>
      <trkpt lat="44.90323" lon="6.57779">
        <ele>2383.32</ele>
        <time>2022-02-09T14:21:06Z</time>
      </trkpt>
      <trkpt lat="44.90322" lon="6.5778">
        <ele>2351.72</ele>
        <time>2022-02-09T14:21:16Z</time>
      </trkpt>
      <trkpt lat="44.90323" lon="6.57779">
        <ele>2331.43</ele>
        <time>2022-02-09T14:21:40Z</time>
      </trkpt>
      <trkpt lat="44.90323" lon="6.57778">
        <ele>2346.12</ele>
        <time>2022-02-09T14:22:00Z</time>
      </trkpt>
      <trkpt lat="44.90323" lon="6.57779">
        <ele>2350.95</ele>
        <time>2022-02-09T14:22:10Z</time>
      </trkpt>
      <trkpt lat="44.90322" lon="6.57778">
        <ele>2345.15</ele>
        <time>2022-02-09T14:22:26Z</time>
      </trkpt>
      <trkpt lat="44.90323" lon="6.57777">
        <ele>2382.84</ele>
        <time>2022-02-09T14:22:42Z</time>
      </trkpt>
      <trkpt lat="44.90326" lon="6.57775">
        <ele>2382.57</ele>
        <time>2022-02-09T14:22:51Z</time>
      </trkpt>
      <trkpt lat="44.90326" lon="6.5777">
        <ele>2352.96</ele>
        <time>2022-02-09T14:23:01Z</time>
      </trkpt>
      <trkpt lat="44.90327" lon="6.57767">
        <ele>2364.16</ele>
        <time>2022-02-09T14:23:10Z</time>
      </trkpt>
      <trkpt lat="44.90327" lon="6.57765">
        <ele>2353.18</ele>
        <time>2022-02-09T14:23:19Z</time>
      </trkpt>
      <trkpt lat="44.90329" lon="6.57762">
        <ele>2353.81</ele>
        <time>2022-02-09T14:23:29Z</time>
      </trkpt>
      <trkpt lat="44.90331" lon="6.5776">
        <ele>2353.44</ele>
        <time>2022-02-09T14:23:38Z</time>
      </trkpt>
      <trkpt lat="44.90335" lon="6.57755">
        <ele>2384.56</ele>
        <time>2022-02-09T14:23:48Z</time>
      </trkpt>
      <trkpt lat="44.90339" lon="6.57749">
        <ele>2350.59</ele>
        <time>2022-02-09T14:23:58Z</time>
      </trkpt>
      <trkpt lat="44.90339" lon="6.57748">
        <ele>2331.6</ele>
        <time>2022-02-09T14:24:07Z</time>
      </trkpt>
      <trkpt lat="44.90342" lon="6.57745">
        <ele>2377.46</ele>
        <time>2022-02-09T14:24:17Z</time>
      </trkpt>
      <trkpt lat="44.90345" lon="6.57741">
        <ele>2348.87</ele>
        <time>2022-02-09T14:24:27Z</time>
      </trkpt>
      <trkpt lat="44.90348" lon="6.57737">
        <ele>2353.99</ele>
        <time>2022-02-09T14:24:37Z</time>
      </trkpt>
      <trkpt lat="44.90352" lon="6.57734">
        <ele>2353.62</ele>
        <time>2022-02-09T14:24:47Z</time>
      </trkpt>
      <trkpt lat="44.90354" lon="6.5773">
        <ele>2352.13</ele>
        <time>2022-02-09T14:24:57Z</time>
      </trkpt>
      <trkpt lat="44.90356" lon="6.57724">
        <ele>2350.95</ele>
        <time>2022-02-09T14:25:06Z</time>
      </trkpt>
      <trkpt lat="44.90359" lon="6.57721">
        <ele>2349.54</ele>
        <time>2022-02-09T14:25:16Z</time>
      </trkpt>
      <trkpt lat="44.90362" lon="6.57716">
        <ele>2372.68</ele>
        <time>2022-02-09T14:25:26Z</time>
      </trkpt>
      <trkpt lat="44.90361" lon="6.57711">
        <ele>2360.54</ele>
        <time>2022-02-09T14:25:36Z</time>
      </trkpt>
      <trkpt lat="44.90363" lon="6.57704">
        <ele>2385.34</ele>
        <time>2022-02-09T14:25:46Z</time>
      </trkpt>
      <trkpt lat="44.90365" lon="6.57699">
        <ele>2387.24</ele>
        <time>2022-02-09T14:25:55Z</time>
      </trkpt>
      <trkpt lat="44.90368" lon="6.57691">
        <ele>2374.32</ele>
        <time>2022-02-09T14:26:05Z</time>
      </trkpt>
      <trkpt lat="44.90371" lon="6.57684">
        <ele>2353.76</ele>
        <time>2022-02-09T14:26:14Z</time>
      </trkpt>
      <trkpt lat="44.90372" lon="6.5768">
        <ele>2385.71</ele>
        <time>2022-02-09T14:26:24Z</time>
      </trkpt>
      <trkpt lat="44.90372" lon="6.57677">
        <ele>2387.3</ele>
        <time>2022-02-09T14:26:34Z</time>
      </trkpt>
      <trkpt lat="44.90376" lon="6.57675">
        <ele>2357.95</ele>
        <time>2022-02-09T14:26:44Z</time>
      </trkpt>
      <trkpt lat="44.9038" lon="6.57672">
        <ele>2356.86</ele>
        <time>2022-02-09T14:26:53Z</time>
      </trkpt>
      <trkpt lat="44.90381" lon="6.57662">
        <ele>2375.55</ele>
        <time>2022-02-09T14:27:02Z</time>
      </trkpt>
      <trkpt lat="44.90381" lon="6.57652">
        <ele>2353.91</ele>
        <time>2022-02-09T14:27:12Z</time>
      </trkpt>
      <trkpt lat="44.90381" lon="6.57645">
        <ele>2436.81</ele>
        <time>2022-02-09T14:27:22Z</time>
      </trkpt>
      <trkpt lat="44.90382" lon="6.57639">
        <ele>2438.83</ele>
        <time>2022-02-09T14:27:31Z</time>
      </trkpt>
      <trkpt lat="44.90385" lon="6.57632">
        <ele>2438.31</ele>
        <time>2022-02-09T14:27:40Z</time>
      </trkpt>
      <trkpt lat="44.90386" lon="6.57624">
        <ele>2387.76</ele>
        <time>2022-02-09T14:27:50Z</time>
      </trkpt>
      <trkpt lat="44.90388" lon="6.57615">
        <ele>2388.78</ele>
        <time>2022-02-09T14:27:59Z</time>
      </trkpt>
      <trkpt lat="44.90389" lon="6.5761">
        <ele>2388.46</ele>
        <time>2022-02-09T14:28:09Z</time>
      </trkpt>
      <trkpt lat="44.90393" lon="6.57604">
        <ele>2389.3</ele>
        <time>2022-02-09T14:28:18Z</time>
      </trkpt>
      <trkpt lat="44.90398" lon="6.57599">
        <ele>2376.3</ele>
        <time>2022-02-09T14:28:28Z</time>
      </trkpt>
      <trkpt lat="44.90401" lon="6.57596">
        <ele>2379.27</ele>
        <time>2022-02-09T14:28:37Z</time>
      </trkpt>
      <trkpt lat="44.90403" lon="6.5759">
        <ele>2358.56</ele>
        <time>2022-02-09T14:28:47Z</time>
      </trkpt>
      <trkpt lat="44.90407" lon="6.57586">
        <ele>2389.87</ele>
        <time>2022-02-09T14:28:56Z</time>
      </trkpt>
      <trkpt lat="44.90411" lon="6.57579">
        <ele>2357.48</ele>
        <time>2022-02-09T14:29:05Z</time>
      </trkpt>
      <trkpt lat="44.90416" lon="6.57575">
        <ele>2366.21</ele>
        <time>2022-02-09T14:29:15Z</time>
      </trkpt>
      <trkpt lat="44.90421" lon="6.57572">
        <ele>2392.76</ele>
        <time>2022-02-09T14:29:24Z</time>
      </trkpt>
      <trkpt lat="44.90424" lon="6.57564">
        <ele>2361.46</ele>
        <time>2022-02-09T14:29:33Z</time>
      </trkpt>
      <trkpt lat="44.90427" lon="6.57557">
        <ele>2387.22</ele>
        <time>2022-02-09T14:29:43Z</time>
      </trkpt>
      <trkpt lat="44.9043" lon="6.57559">
        <ele>2341.16</ele>
        <time>2022-02-09T14:29:53Z</time>
      </trkpt>
      <trkpt lat="44.90431" lon="6.57556">
        <ele>2331.18</ele>
        <time>2022-02-09T14:30:03Z</time>
      </trkpt>
      <trkpt lat="44.90431" lon="6.57554">
        <ele>2324.68</ele>
        <time>2022-02-09T14:30:13Z</time>
      </trkpt>
      <trkpt lat="44.90432" lon="6.57553">
        <ele>2274.59</ele>
        <time>2022-02-09T14:30:23Z</time>
      </trkpt>
      <trkpt lat="44.90431" lon="6.57552">
        <ele>2259.11</ele>
        <time>2022-02-09T14:30:33Z</time>
      </trkpt>
      <trkpt lat="44.90434" lon="6.57551">
        <ele>2259.24</ele>
        <time>2022-02-09T14:30:43Z</time>
      </trkpt>
      <trkpt lat="44.90435" lon="6.57549">
        <ele>2259.27</ele>
        <time>2022-02-09T14:30:53Z</time>
      </trkpt>
      <trkpt lat="44.90436" lon="6.57545">
        <ele>2257.69</ele>
        <time>2022-02-09T14:31:03Z</time>
      </trkpt>
      <trkpt lat="44.90436" lon="6.57533">
        <ele>2298.83</ele>
        <time>2022-02-09T14:31:13Z</time>
      </trkpt>
      <trkpt lat="44.90432" lon="6.57525">
        <ele>2326.23</ele>
        <time>2022-02-09T14:31:22Z</time>
      </trkpt>
      <trkpt lat="44.90429" lon="6.57518">
        <ele>2252.1</ele>
        <time>2022-02-09T14:31:31Z</time>
      </trkpt>
      <trkpt lat="44.90436" lon="6.57512">
        <ele>2249.98</ele>
        <time>2022-02-09T14:31:41Z</time>
      </trkpt>
      <trkpt lat="44.90439" lon="6.57501">
        <ele>2328.2</ele>
        <time>2022-02-09T14:31:50Z</time>
      </trkpt>
      <trkpt lat="44.90443" lon="6.5749">
        <ele>2278.31</ele>
        <time>2022-02-09T14:31:59Z</time>
      </trkpt>
      <trkpt lat="44.90448" lon="6.57481">
        <ele>2288.19</ele>
        <time>2022-02-09T14:32:09Z</time>
      </trkpt>
      <trkpt lat="44.90452" lon="6.57474">
        <ele>2250.23</ele>
        <time>2022-02-09T14:32:18Z</time>
      </trkpt>
      <trkpt lat="44.90454" lon="6.57468">
        <ele>2324.93</ele>
        <time>2022-02-09T14:32:28Z</time>
      </trkpt>
      <trkpt lat="44.90455" lon="6.5747">
        <ele>2296.3</ele>
        <time>2022-02-09T14:32:38Z</time>
      </trkpt>
      <trkpt lat="44.90453" lon="6.57471">
        <ele>2250.74</ele>
        <time>2022-02-09T14:32:56Z</time>
      </trkpt>
      <trkpt lat="44.90452" lon="6.5747">
        <ele>2228.95</ele>
        <time>2022-02-09T14:33:06Z</time>
      </trkpt>
      <trkpt lat="44.90453" lon="6.57469">
        <ele>2277.37</ele>
        <time>2022-02-09T14:35:49Z</time>
      </trkpt>
      <trkpt lat="44.90453" lon="6.5747">
        <ele>2251.29</ele>
        <time>2022-02-09T14:36:05Z</time>
      </trkpt>
      <trkpt lat="44.90454" lon="6.57473">
        <ele>2250.55</ele>
        <time>2022-02-09T14:36:15Z</time>
      </trkpt>
      <trkpt lat="44.90453" lon="6.57472">
        <ele>2319.4</ele>
        <time>2022-02-09T14:36:25Z</time>
      </trkpt>
      <trkpt lat="44.90452" lon="6.57471">
        <ele>2329.37</ele>
        <time>2022-02-09T14:36:46Z</time>
      </trkpt>
      <trkpt lat="44.90453" lon="6.5747">
        <ele>2328.96</ele>
        <time>2022-02-09T14:37:04Z</time>
      </trkpt>
      <trkpt lat="44.90452" lon="6.5747">
        <ele>2327.21</ele>
        <time>2022-02-09T14:37:20Z</time>
      </trkpt>
      <trkpt lat="44.90453" lon="6.57468">
        <ele>2297.32</ele>
        <time>2022-02-09T14:37:48Z</time>
      </trkpt>
      <trkpt lat="44.90459" lon="6.57459">
        <ele>2311.68</ele>
        <time>2022-02-09T14:37:58Z</time>
      </trkpt>
      <trkpt lat="44.90459" lon="6.57458">
        <ele>2329.42</ele>
        <time>2022-02-09T14:38:58Z</time>
      </trkpt>
      <trkpt lat="44.90473" lon="6.57429">
        <ele>2402.29</ele>
        <time>2022-02-09T14:39:08Z</time>
      </trkpt>
      <trkpt lat="44.90481" lon="6.57402">
        <ele>2250.08</ele>
        <time>2022-02-09T14:39:18Z</time>
      </trkpt>
      <trkpt lat="44.90489" lon="6.57369">
        <ele>2247.32</ele>
        <time>2022-02-09T14:39:28Z</time>
      </trkpt>
      <trkpt lat="44.90499" lon="6.57351">
        <ele>2244.97</ele>
        <time>2022-02-09T14:39:38Z</time>
      </trkpt>
      <trkpt lat="44.90512" lon="6.57347">
        <ele>2316.29</ele>
        <time>2022-02-09T14:39:48Z</time>
      </trkpt>
      <trkpt lat="44.90517" lon="6.57352">
        <ele>2317.4</ele>
        <time>2022-02-09T14:39:58Z</time>
      </trkpt>
      <trkpt lat="44.90529" lon="6.57387">
        <ele>2312.33</ele>
        <time>2022-02-09T14:40:08Z</time>
      </trkpt>
      <trkpt lat="44.90541" lon="6.57388">
        <ele>2238.08</ele>
        <time>2022-02-09T14:40:18Z</time>
      </trkpt>
      <trkpt lat="44.90541" lon="6.57398">
        <ele>2232.79</ele>
        <time>2022-02-09T14:40:28Z</time>
      </trkpt>
      <trkpt lat="44.90557" lon="6.57422">
        <ele>2285.53</ele>
        <time>2022-02-09T14:40:38Z</time>
      </trkpt>
      <trkpt lat="44.90581" lon="6.57421">
        <ele>2296.86</ele>
        <time>2022-02-09T14:40:48Z</time>
      </trkpt>
      <trkpt lat="44.90594" lon="6.57427">
        <ele>2291.01</ele>
        <time>2022-02-09T14:40:58Z</time>
      </trkpt>
      <trkpt lat="44.90592" lon="6.57427">
        <ele>2238.88</ele>
        <time>2022-02-09T14:41:08Z</time>
      </trkpt>
      <trkpt lat="44.90593" lon="6.57427">
        <ele>2243.79</ele>
        <time>2022-02-09T14:41:21Z</time>
      </trkpt>
      <trkpt lat="44.90598" lon="6.57429">
        <ele>2243.8</ele>
        <time>2022-02-09T14:41:31Z</time>
      </trkpt>
      <trkpt lat="44.90622" lon="6.57417">
        <ele>2243.8</ele>
        <time>2022-02-09T14:41:40Z</time>
      </trkpt>
      <trkpt lat="44.90645" lon="6.57397">
        <ele>2243.8</ele>
        <time>2022-02-09T14:41:49Z</time>
      </trkpt>
      <trkpt lat="44.90666" lon="6.57387">
        <ele>2243.8</ele>
        <time>2022-02-09T14:41:58Z</time>
      </trkpt>
      <trkpt lat="44.90686" lon="6.57357">
        <ele>2243.8</ele>
        <time>2022-02-09T14:42:08Z</time>
      </trkpt>
      <trkpt lat="44.90697" lon="6.57315">
        <ele>2243.8</ele>
        <time>2022-02-09T14:42:18Z</time>
      </trkpt>
      <trkpt lat="44.90695" lon="6.57274">
        <ele>2243.8</ele>
        <time>2022-02-09T14:42:27Z</time>
      </trkpt>
      <trkpt lat="44.90695" lon="6.57258">
        <ele>2243.8</ele>
        <time>2022-02-09T14:42:37Z</time>
      </trkpt>
      <trkpt lat="44.90694" lon="6.57258">
        <ele>2243.8</ele>
        <time>2022-02-09T14:42:48Z</time>
      </trkpt>
      <trkpt lat="44.90694" lon="6.57259">
        <ele>2206.41</ele>
        <time>2022-02-09T14:43:08Z</time>
      </trkpt>
      <trkpt lat="44.90695" lon="6.57259">
        <ele>2205.85</ele>
        <time>2022-02-09T14:43:18Z</time>
      </trkpt>
      <trkpt lat="44.90696" lon="6.57258">
        <ele>2255.62</ele>
        <time>2022-02-09T14:43:33Z</time>
      </trkpt>
      <trkpt lat="44.90694" lon="6.57247">
        <ele>2266.76</ele>
        <time>2022-02-09T14:43:43Z</time>
      </trkpt>
      <trkpt lat="44.90681" lon="6.57214">
        <ele>2207.98</ele>
        <time>2022-02-09T14:43:52Z</time>
      </trkpt>
      <trkpt lat="44.9066" lon="6.5717">
        <ele>2197.41</ele>
        <time>2022-02-09T14:44:01Z</time>
      </trkpt>
      <trkpt lat="44.90648" lon="6.57118">
        <ele>2246.31</ele>
        <time>2022-02-09T14:44:11Z</time>
      </trkpt>
      <trkpt lat="44.90632" lon="6.57086">
        <ele>2243.54</ele>
        <time>2022-02-09T14:44:21Z</time>
      </trkpt>
      <trkpt lat="44.90633" lon="6.57087">
        <ele>2242.06</ele>
        <time>2022-02-09T14:44:31Z</time>
      </trkpt>
      <trkpt lat="44.90634" lon="6.57088">
        <ele>2241.76</ele>
        <time>2022-02-09T14:44:41Z</time>
      </trkpt>
      <trkpt lat="44.90633" lon="6.57086">
        <ele>2184.89</ele>
        <time>2022-02-09T14:45:00Z</time>
      </trkpt>
      <trkpt lat="44.90646" lon="6.57071">
        <ele>2226.85</ele>
        <time>2022-02-09T14:45:10Z</time>
      </trkpt>
      <trkpt lat="44.90659" lon="6.57051">
        <ele>2234.31</ele>
        <time>2022-02-09T14:45:19Z</time>
      </trkpt>
      <trkpt lat="44.90682" lon="6.57023">
        <ele>2221.55</ele>
        <time>2022-02-09T14:45:29Z</time>
      </trkpt>
      <trkpt lat="44.90686" lon="6.57003">
        <ele>2161.91</ele>
        <time>2022-02-09T14:45:39Z</time>
      </trkpt>
      <trkpt lat="44.90687" lon="6.56995">
        <ele>2158.09</ele>
        <time>2022-02-09T14:45:48Z</time>
      </trkpt>
      <trkpt lat="44.90697" lon="6.56955">
        <ele>2153.17</ele>
        <time>2022-02-09T14:45:57Z</time>
      </trkpt>
      <trkpt lat="44.90702" lon="6.56953">
        <ele>2125.68</ele>
        <time>2022-02-09T14:46:07Z</time>
      </trkpt>
      <trkpt lat="44.90708" lon="6.56942">
        <ele>2191.49</ele>
        <time>2022-02-09T14:46:16Z</time>
      </trkpt>
      <trkpt lat="44.90728" lon="6.56921">
        <ele>2193.24</ele>
        <time>2022-02-09T14:46:25Z</time>
      </trkpt>
      <trkpt lat="44.9074" lon="6.56915">
        <ele>2130.6</ele>
        <time>2022-02-09T14:46:35Z</time>
      </trkpt>
      <trkpt lat="44.90753" lon="6.56912">
        <ele>2150.9</ele>
        <time>2022-02-09T14:46:45Z</time>
      </trkpt>
      <trkpt lat="44.9079" lon="6.56932">
        <ele>2132.05</ele>
        <time>2022-02-09T14:46:54Z</time>
      </trkpt>
      <trkpt lat="44.90823" lon="6.56946">
        <ele>2160.31</ele>
        <time>2022-02-09T14:47:03Z</time>
      </trkpt>
      <trkpt lat="44.90856" lon="6.56968">
        <ele>2160.57</ele>
        <time>2022-02-09T14:47:13Z</time>
      </trkpt>
      <trkpt lat="44.90853" lon="6.56972">
        <ele>2157.16</ele>
        <time>2022-02-09T14:47:23Z</time>
      </trkpt>
      <trkpt lat="44.90856" lon="6.5697">
        <ele>2126.36</ele>
        <time>2022-02-09T14:47:33Z</time>
      </trkpt>
      <trkpt lat="44.90856" lon="6.56972">
        <ele>2125.05</ele>
        <time>2022-02-09T14:47:43Z</time>
      </trkpt>
      <trkpt lat="44.90857" lon="6.56971">
        <ele>2097.44</ele>
        <time>2022-02-09T14:47:53Z</time>
      </trkpt>
      <trkpt lat="44.90857" lon="6.56969">
        <ele>2146.08</ele>
        <time>2022-02-09T14:48:03Z</time>
      </trkpt>
      <trkpt lat="44.90864" lon="6.56975">
        <ele>2171.34</ele>
        <time>2022-02-09T14:48:13Z</time>
      </trkpt>
      <trkpt lat="44.90882" lon="6.56999">
        <ele>2169.59</ele>
        <time>2022-02-09T14:48:22Z</time>
      </trkpt>
      <trkpt lat="44.90906" lon="6.5702">
        <ele>2166.63</ele>
        <time>2022-02-09T14:48:31Z</time>
      </trkpt>
      <trkpt lat="44.90941" lon="6.57036">
        <ele>2159.01</ele>
        <time>2022-02-09T14:48:41Z</time>
      </trkpt>
      <trkpt lat="44.9097" lon="6.57041">
        <ele>2108.4</ele>
        <time>2022-02-09T14:48:50Z</time>
      </trkpt>
      <trkpt lat="44.91001" lon="6.57047">
        <ele>2103.26</ele>
        <time>2022-02-09T14:49:00Z</time>
      </trkpt>
      <trkpt lat="44.91037" lon="6.57048">
        <ele>2098.77</ele>
        <time>2022-02-09T14:49:09Z</time>
      </trkpt>
      <trkpt lat="44.9106" lon="6.57064">
        <ele>2115.57</ele>
        <time>2022-02-09T14:49:19Z</time>
      </trkpt>
      <trkpt lat="44.91062" lon="6.57062">
        <ele>2091.95</ele>
        <time>2022-02-09T14:49:29Z</time>
      </trkpt>
      <trkpt lat="44.91063" lon="6.5706">
        <ele>2041.98</ele>
        <time>2022-02-09T14:49:39Z</time>
      </trkpt>
      <trkpt lat="44.91063" lon="6.57062">
        <ele>2077.37</ele>
        <time>2022-02-09T14:49:49Z</time>
      </trkpt>
      <trkpt lat="44.91062" lon="6.57062">
        <ele>2057.32</ele>
        <time>2022-02-09T14:49:59Z</time>
      </trkpt>
      <trkpt lat="44.91061" lon="6.57059">
        <ele>2106.71</ele>
        <time>2022-02-09T14:50:09Z</time>
      </trkpt>
      <trkpt lat="44.91063" lon="6.57057">
        <ele>2136.49</ele>
        <time>2022-02-09T14:50:19Z</time>
      </trkpt>
      <trkpt lat="44.91063" lon="6.57058">
        <ele>2093.85</ele>
        <time>2022-02-09T14:50:40Z</time>
      </trkpt>
      <trkpt lat="44.91066" lon="6.57088">
        <ele>2090.7</ele>
        <time>2022-02-09T14:50:50Z</time>
      </trkpt>
      <trkpt lat="44.91106" lon="6.57133">
        <ele>2099.74</ele>
        <time>2022-02-09T14:51:00Z</time>
      </trkpt>
      <trkpt lat="44.91145" lon="6.57152">
        <ele>2116.56</ele>
        <time>2022-02-09T14:51:10Z</time>
      </trkpt>
      <trkpt lat="44.91191" lon="6.57166">
        <ele>2112.06</ele>
        <time>2022-02-09T14:51:20Z</time>
      </trkpt>
      <trkpt lat="44.91237" lon="6.57181">
        <ele>2106.44</ele>
        <time>2022-02-09T14:51:30Z</time>
      </trkpt>
      <trkpt lat="44.91264" lon="6.572">
        <ele>2107.31</ele>
        <time>2022-02-09T14:51:39Z</time>
      </trkpt>
      <trkpt lat="44.91307" lon="6.57238">
        <ele>2068.56</ele>
        <time>2022-02-09T14:51:49Z</time>
      </trkpt>
      <trkpt lat="44.91332" lon="6.57246">
        <ele>2063.66</ele>
        <time>2022-02-09T14:51:59Z</time>
      </trkpt>
      <trkpt lat="44.9133" lon="6.57248">
        <ele>2063.46</ele>
        <time>2022-02-09T14:52:09Z</time>
      </trkpt>
      <trkpt lat="44.91329" lon="6.57248">
        <ele>2076.78</ele>
        <time>2022-02-09T14:52:19Z</time>
      </trkpt>
      <trkpt lat="44.9133" lon="6.57245">
        <ele>2080.47</ele>
        <time>2022-02-09T14:52:29Z</time>
      </trkpt>
      <trkpt lat="44.91329" lon="6.57246">
        <ele>2085.27</ele>
        <time>2022-02-09T14:52:39Z</time>
      </trkpt>
      <trkpt lat="44.91328" lon="6.57244">
        <ele>2085.3</ele>
        <time>2022-02-09T14:52:49Z</time>
      </trkpt>
      <trkpt lat="44.91331" lon="6.57242">
        <ele>2085.3</ele>
        <time>2022-02-09T14:52:59Z</time>
      </trkpt>
      <trkpt lat="44.91333" lon="6.57231">
        <ele>2085.3</ele>
        <time>2022-02-09T14:53:09Z</time>
      </trkpt>
      <trkpt lat="44.91358" lon="6.57201">
        <ele>2085.3</ele>
        <time>2022-02-09T14:53:19Z</time>
      </trkpt>
      <trkpt lat="44.91381" lon="6.5716">
        <ele>2085.3</ele>
        <time>2022-02-09T14:53:29Z</time>
      </trkpt>
      <trkpt lat="44.9138" lon="6.57162">
        <ele>2085.3</ele>
        <time>2022-02-09T14:53:38Z</time>
      </trkpt>
      <trkpt lat="44.9138" lon="6.57159">
        <ele>2085.3</ele>
        <time>2022-02-09T14:53:48Z</time>
      </trkpt>
      <trkpt lat="44.91383" lon="6.57147">
        <ele>2085.3</ele>
        <time>2022-02-09T14:53:58Z</time>
      </trkpt>
      <trkpt lat="44.91388" lon="6.57124">
        <ele>2085.3</ele>
        <time>2022-02-09T14:54:07Z</time>
      </trkpt>
      <trkpt lat="44.91392" lon="6.57077">
        <ele>2085.3</ele>
        <time>2022-02-09T14:54:16Z</time>
      </trkpt>
      <trkpt lat="44.91396" lon="6.57035">
        <ele>2085.3</ele>
        <time>2022-02-09T14:54:26Z</time>
      </trkpt>
      <trkpt lat="44.91398" lon="6.57036">
        <ele>2085.3</ele>
        <time>2022-02-09T14:54:36Z</time>
      </trkpt>
      <trkpt lat="44.91398" lon="6.57037">
        <ele>2085.3</ele>
        <time>2022-02-09T14:54:46Z</time>
      </trkpt>
      <trkpt lat="44.91399" lon="6.57038">
        <ele>2085.3</ele>
        <time>2022-02-09T14:54:56Z</time>
      </trkpt>
      <trkpt lat="44.91398" lon="6.57032">
        <ele>2085.3</ele>
        <time>2022-02-09T14:55:06Z</time>
      </trkpt>
      <trkpt lat="44.91398" lon="6.57028">
        <ele>2085.3</ele>
        <time>2022-02-09T14:55:16Z</time>
      </trkpt>
      <trkpt lat="44.91422" lon="6.56998">
        <ele>2085.3</ele>
        <time>2022-02-09T14:55:26Z</time>
      </trkpt>
      <trkpt lat="44.91479" lon="6.5699">
        <ele>2085.3</ele>
        <time>2022-02-09T14:55:35Z</time>
      </trkpt>
      <trkpt lat="44.91514" lon="6.57002">
        <ele>2085.3</ele>
        <time>2022-02-09T14:55:45Z</time>
      </trkpt>
      <trkpt lat="44.91539" lon="6.57018">
        <ele>2085.3</ele>
        <time>2022-02-09T14:55:55Z</time>
      </trkpt>
      <trkpt lat="44.91561" lon="6.57028">
        <ele>2085.3</ele>
        <time>2022-02-09T14:56:05Z</time>
      </trkpt>
      <trkpt lat="44.91585" lon="6.57039">
        <ele>2085.3</ele>
        <time>2022-02-09T14:56:15Z</time>
      </trkpt>
      <trkpt lat="44.91584" lon="6.57041">
        <ele>2085.3</ele>
        <time>2022-02-09T14:56:25Z</time>
      </trkpt>
      <trkpt lat="44.91583" lon="6.57041">
        <ele>2085.3</ele>
        <time>2022-02-09T14:56:35Z</time>
      </trkpt>
      <trkpt lat="44.91584" lon="6.57041">
        <ele>2085.3</ele>
        <time>2022-02-09T14:57:00Z</time>
      </trkpt>
      <trkpt lat="44.91583" lon="6.5704">
        <ele>2085.3</ele>
        <time>2022-02-09T14:57:10Z</time>
      </trkpt>
      <trkpt lat="44.91583" lon="6.57042">
        <ele>2085.3</ele>
        <time>2022-02-09T14:57:20Z</time>
      </trkpt>
      <trkpt lat="44.91582" lon="6.57043">
        <ele>2085.3</ele>
        <time>2022-02-09T14:57:32Z</time>
      </trkpt>
      <trkpt lat="44.91588" lon="6.57043">
        <ele>2085.3</ele>
        <time>2022-02-09T14:57:42Z</time>
      </trkpt>
      <trkpt lat="44.91617" lon="6.57057">
        <ele>2085.3</ele>
        <time>2022-02-09T14:57:52Z</time>
      </trkpt>
      <trkpt lat="44.91639" lon="6.57062">
        <ele>2085.3</ele>
        <time>2022-02-09T14:58:01Z</time>
      </trkpt>
      <trkpt lat="44.91651" lon="6.57057">
        <ele>2085.3</ele>
        <time>2022-02-09T14:58:11Z</time>
      </trkpt>
      <trkpt lat="44.91651" lon="6.57058">
        <ele>2085.3</ele>
        <time>2022-02-09T14:58:21Z</time>
      </trkpt>
      <trkpt lat="44.91672" lon="6.57063">
        <ele>2085.3</ele>
        <time>2022-02-09T14:58:31Z</time>
      </trkpt>
      <trkpt lat="44.91671" lon="6.57061">
        <ele>2085.3</ele>
        <time>2022-02-09T14:58:41Z</time>
      </trkpt>
      <trkpt lat="44.91671" lon="6.57063">
        <ele>2085.3</ele>
        <time>2022-02-09T14:58:51Z</time>
      </trkpt>
      <trkpt lat="44.91688" lon="6.57075">
        <ele>2085.3</ele>
        <time>2022-02-09T14:59:01Z</time>
      </trkpt>
      <trkpt lat="44.91701" lon="6.57067">
        <ele>2104.86</ele>
        <time>2022-02-09T14:59:11Z</time>
      </trkpt>
      <trkpt lat="44.91701" lon="6.57068">
        <ele>2130.15</ele>
        <time>2022-02-09T14:59:24Z</time>
      </trkpt>
      <trkpt lat="44.91713" lon="6.57078">
        <ele>2121.9</ele>
        <time>2022-02-09T14:59:34Z</time>
      </trkpt>
      <trkpt lat="44.91743" lon="6.57096">
        <ele>2098.62</ele>
        <time>2022-02-09T14:59:44Z</time>
      </trkpt>
      <trkpt lat="44.91762" lon="6.57116">
        <ele>2096.04</ele>
        <time>2022-02-09T14:59:54Z</time>
      </trkpt>
      <trkpt lat="44.91785" lon="6.57138">
        <ele>2076.46</ele>
        <time>2022-02-09T15:00:03Z</time>
      </trkpt>
      <trkpt lat="44.91817" lon="6.57162">
        <ele>2111.07</ele>
        <time>2022-02-09T15:00:13Z</time>
      </trkpt>
      <trkpt lat="44.91838" lon="6.5718">
        <ele>2082.91</ele>
        <time>2022-02-09T15:00:23Z</time>
      </trkpt>
      <trkpt lat="44.91834" lon="6.57187">
        <ele>2075.92</ele>
        <time>2022-02-09T15:00:32Z</time>
      </trkpt>
      <trkpt lat="44.91886" lon="6.57211">
        <ele>2075.15</ele>
        <time>2022-02-09T15:00:42Z</time>
      </trkpt>
      <trkpt lat="44.91932" lon="6.57201">
        <ele>2054.77</ele>
        <time>2022-02-09T15:00:52Z</time>
      </trkpt>
      <trkpt lat="44.91974" lon="6.5719">
        <ele>2080.24</ele>
        <time>2022-02-09T15:01:02Z</time>
      </trkpt>
      <trkpt lat="44.92009" lon="6.57201">
        <ele>2097.4</ele>
        <time>2022-02-09T15:01:12Z</time>
      </trkpt>
      <trkpt lat="44.92036" lon="6.57208">
        <ele>2078.34</ele>
        <time>2022-02-09T15:01:22Z</time>
      </trkpt>
      <trkpt lat="44.92071" lon="6.57201">
        <ele>2074.94</ele>
        <time>2022-02-09T15:01:32Z</time>
      </trkpt>
      <trkpt lat="44.92086" lon="6.57184">
        <ele>2079.59</ele>
        <time>2022-02-09T15:01:42Z</time>
      </trkpt>
      <trkpt lat="44.92087" lon="6.57183">
        <ele>2040.66</ele>
        <time>2022-02-09T15:02:02Z</time>
      </trkpt>
      <trkpt lat="44.92089" lon="6.57183">
        <ele>2066.44</ele>
        <time>2022-02-09T15:02:12Z</time>
      </trkpt>
      <trkpt lat="44.92114" lon="6.57192">
        <ele>2067.1</ele>
        <time>2022-02-09T15:02:22Z</time>
      </trkpt>
      <trkpt lat="44.92149" lon="6.57197">
        <ele>2063.05</ele>
        <time>2022-02-09T15:02:32Z</time>
      </trkpt>
      <trkpt lat="44.92186" lon="6.57197">
        <ele>2072.02</ele>
        <time>2022-02-09T15:02:42Z</time>
      </trkpt>
      <trkpt lat="44.922" lon="6.57187">
        <ele>1997.28</ele>
        <time>2022-02-09T15:02:52Z</time>
      </trkpt>
      <trkpt lat="44.92199" lon="6.57181">
        <ele>1951.54</ele>
        <time>2022-02-09T15:03:02Z</time>
      </trkpt>
      <trkpt lat="44.92261" lon="6.57202">
        <ele>1950.71</ele>
        <time>2022-02-09T15:03:12Z</time>
      </trkpt>
      <trkpt lat="44.92329" lon="6.57219">
        <ele>1950.7</ele>
        <time>2022-02-09T15:03:22Z</time>
      </trkpt>
      <trkpt lat="44.92357" lon="6.57231">
        <ele>1933.03</ele>
        <time>2022-02-09T15:03:32Z</time>
      </trkpt>
      <trkpt lat="44.92379" lon="6.57285">
        <ele>1930.41</ele>
        <time>2022-02-09T15:03:42Z</time>
      </trkpt>
      <trkpt lat="44.9238" lon="6.57288">
        <ele>1930.4</ele>
        <time>2022-02-09T15:03:52Z</time>
      </trkpt>
      <trkpt lat="44.92381" lon="6.57287">
        <ele>1930.4</ele>
        <time>2022-02-09T15:04:03Z</time>
      </trkpt>
      <trkpt lat="44.92382" lon="6.57288">
        <ele>1930.4</ele>
        <time>2022-02-09T15:04:13Z</time>
      </trkpt>
      <trkpt lat="44.92381" lon="6.57288">
        <ele>1930.4</ele>
        <time>2022-02-09T15:04:23Z</time>
      </trkpt>
      <trkpt lat="44.92382" lon="6.5729">
        <ele>1930.4</ele>
        <time>2022-02-09T15:04:36Z</time>
      </trkpt>
      <trkpt lat="44.92408" lon="6.57301">
        <ele>1930.4</ele>
        <time>2022-02-09T15:04:45Z</time>
      </trkpt>
      <trkpt lat="44.92446" lon="6.57294">
        <ele>1930.4</ele>
        <time>2022-02-09T15:04:55Z</time>
      </trkpt>
      <trkpt lat="44.92476" lon="6.57257">
        <ele>1930.4</ele>
        <time>2022-02-09T15:05:05Z</time>
      </trkpt>
      <trkpt lat="44.92502" lon="6.57218">
        <ele>1930.4</ele>
        <time>2022-02-09T15:05:14Z</time>
      </trkpt>
      <trkpt lat="44.92525" lon="6.57198">
        <ele>1930.4</ele>
        <time>2022-02-09T15:05:24Z</time>
      </trkpt>
      <trkpt lat="44.92529" lon="6.57202">
        <ele>1930.4</ele>
        <time>2022-02-09T15:05:34Z</time>
      </trkpt>
      <trkpt lat="44.9253" lon="6.57201">
        <ele>1930.4</ele>
        <time>2022-02-09T15:05:44Z</time>
      </trkpt>
      <trkpt lat="44.92521" lon="6.57249">
        <ele>1930.4</ele>
        <time>2022-02-09T15:05:54Z</time>
      </trkpt>
      <trkpt lat="44.92522" lon="6.57264">
        <ele>1930.4</ele>
        <time>2022-02-09T15:06:03Z</time>
      </trkpt>
      <trkpt lat="44.92494" lon="6.57321">
        <ele>1841.36</ele>
        <time>2022-02-09T15:06:13Z</time>
      </trkpt>
      <trkpt lat="44.92484" lon="6.57354">
        <ele>1836.69</ele>
        <time>2022-02-09T15:06:23Z</time>
      </trkpt>
      <trkpt lat="44.92484" lon="6.57355">
        <ele>1836.26</ele>
        <time>2022-02-09T15:06:39Z</time>
      </trkpt>
      <trkpt lat="44.92485" lon="6.57354">
        <ele>1836.77</ele>
        <time>2022-02-09T15:06:49Z</time>
      </trkpt>
      <trkpt lat="44.92486" lon="6.57354">
        <ele>1861.9</ele>
        <time>2022-02-09T15:07:02Z</time>
      </trkpt>
      <trkpt lat="44.92484" lon="6.57354">
        <ele>1856.5</ele>
        <time>2022-02-09T15:07:12Z</time>
      </trkpt>
      <trkpt lat="44.92495" lon="6.57356">
        <ele>1878.79</ele>
        <time>2022-02-09T15:07:22Z</time>
      </trkpt>
      <trkpt lat="44.92517" lon="6.5734">
        <ele>1842.68</ele>
        <time>2022-02-09T15:07:32Z</time>
      </trkpt>
      <trkpt lat="44.92549" lon="6.57325">
        <ele>1855.04</ele>
        <time>2022-02-09T15:07:42Z</time>
      </trkpt>
      <trkpt lat="44.92571" lon="6.57299">
        <ele>1847.4</ele>
        <time>2022-02-09T15:07:52Z</time>
      </trkpt>
      <trkpt lat="44.92583" lon="6.57263">
        <ele>1842.41</ele>
        <time>2022-02-09T15:08:02Z</time>
      </trkpt>
      <trkpt lat="44.92594" lon="6.57216">
        <ele>1840.7</ele>
        <time>2022-02-09T15:08:12Z</time>
      </trkpt>
      <trkpt lat="44.92602" lon="6.57182">
        <ele>1822.17</ele>
        <time>2022-02-09T15:08:22Z</time>
      </trkpt>
      <trkpt lat="44.92611" lon="6.57133">
        <ele>1843.96</ele>
        <time>2022-02-09T15:08:32Z</time>
      </trkpt>
      <trkpt lat="44.92623" lon="6.57117">
        <ele>1831.94</ele>
        <time>2022-02-09T15:08:42Z</time>
      </trkpt>
      <trkpt lat="44.92623" lon="6.57114">
        <ele>1821.34</ele>
        <time>2022-02-09T15:08:51Z</time>
      </trkpt>
      <trkpt lat="44.92624" lon="6.57104">
        <ele>1833.9</ele>
        <time>2022-02-09T15:09:01Z</time>
      </trkpt>
      <trkpt lat="44.92633" lon="6.57087">
        <ele>1818.17</ele>
        <time>2022-02-09T15:09:11Z</time>
      </trkpt>
      <trkpt lat="44.92633" lon="6.57088">
        <ele>1835.45</ele>
        <time>2022-02-09T15:09:28Z</time>
      </trkpt>
      <trkpt lat="44.92636" lon="6.57088">
        <ele>1834.27</ele>
        <time>2022-02-09T15:09:38Z</time>
      </trkpt>
      <trkpt lat="44.92648" lon="6.57127">
        <ele>1828.56</ele>
        <time>2022-02-09T15:09:48Z</time>
      </trkpt>
      <trkpt lat="44.92662" lon="6.57176">
        <ele>1819.59</ele>
        <time>2022-02-09T15:09:58Z</time>
      </trkpt>
      <trkpt lat="44.92678" lon="6.57216">
        <ele>1797.08</ele>
        <time>2022-02-09T15:10:07Z</time>
      </trkpt>
      <trkpt lat="44.92693" lon="6.57268">
        <ele>1793.58</ele>
        <time>2022-02-09T15:10:17Z</time>
      </trkpt>
      <trkpt lat="44.92701" lon="6.57332">
        <ele>1970.72</ele>
        <time>2022-02-09T15:10:27Z</time>
      </trkpt>
      <trkpt lat="44.92706" lon="6.57394">
        <ele>2014.81</ele>
        <time>2022-02-09T15:10:37Z</time>
      </trkpt>
      <trkpt lat="44.92704" lon="6.57434">
        <ele>2011.52</ele>
        <time>2022-02-09T15:10:46Z</time>
      </trkpt>
      <trkpt lat="44.92703" lon="6.57451">
        <ele>2009.33</ele>
        <time>2022-02-09T15:10:56Z</time>
      </trkpt>
      <trkpt lat="44.92702" lon="6.57459">
        <ele>2008.88</ele>
        <time>2022-02-09T15:11:06Z</time>
      </trkpt>
      <trkpt lat="44.92703" lon="6.57458">
        <ele>2009.34</ele>
        <time>2022-02-09T15:11:20Z</time>
      </trkpt>
      <trkpt lat="44.92704" lon="6.57458">
        <ele>2009.94</ele>
        <time>2022-02-09T15:11:37Z</time>
      </trkpt>
      <trkpt lat="44.92687" lon="6.57524">
        <ele>1679.78</ele>
        <time>2022-02-09T15:11:47Z</time>
      </trkpt>
      <trkpt lat="44.92675" lon="6.57579">
        <ele>1657.67</ele>
        <time>2022-02-09T15:11:57Z</time>
      </trkpt>
      <trkpt lat="44.92677" lon="6.57567">
        <ele>1920.76</ele>
        <time>2022-02-09T15:12:12Z</time>
      </trkpt>
      <trkpt lat="44.92678" lon="6.57569">
        <ele>1635.92</ele>
        <time>2022-02-09T15:12:35Z</time>
      </trkpt>
      <trkpt lat="44.92679" lon="6.57569">
        <ele>1612.57</ele>
        <time>2022-02-09T15:12:45Z</time>
      </trkpt>
      <trkpt lat="44.92682" lon="6.57574">
        <ele>1611.91</ele>
        <time>2022-02-09T15:12:55Z</time>
      </trkpt>
      <trkpt lat="44.92704" lon="6.57592">
        <ele>1611.9</ele>
        <time>2022-02-09T15:13:04Z</time>
      </trkpt>
      <trkpt lat="44.92723" lon="6.57607">
        <ele>1611.9</ele>
        <time>2022-02-09T15:13:14Z</time>
      </trkpt>
      <trkpt lat="44.92724" lon="6.57603">
        <ele>1611.9</ele>
        <time>2022-02-09T15:13:25Z</time>
      </trkpt>
      <trkpt lat="44.92747" lon="6.57607">
        <ele>1611.9</ele>
        <time>2022-02-09T15:13:35Z</time>
      </trkpt>
      <trkpt lat="44.92763" lon="6.57622">
        <ele>1611.9</ele>
        <time>2022-02-09T15:13:44Z</time>
      </trkpt>
      <trkpt lat="44.92783" lon="6.57635">
        <ele>1611.9</ele>
        <time>2022-02-09T15:13:54Z</time>
      </trkpt>
      <trkpt lat="44.92818" lon="6.57655">
        <ele>1611.9</ele>
        <time>2022-02-09T15:14:03Z</time>
      </trkpt>
      <trkpt lat="44.92873" lon="6.57682">
        <ele>1611.9</ele>
        <time>2022-02-09T15:14:19Z</time>
      </trkpt>
      <trkpt lat="44.92884" lon="6.57693">
        <ele>1611.9</ele>
        <time>2022-02-09T15:14:29Z</time>
      </trkpt>
      <trkpt lat="44.92886" lon="6.57692">
        <ele>1981.08</ele>
        <time>2022-02-09T15:14:40Z</time>
      </trkpt>
      <trkpt lat="44.92945" lon="6.57746">
        <ele>1967.68</ele>
        <time>2022-02-09T15:15:48Z</time>
      </trkpt>
      <trkpt lat="44.92939" lon="6.57769">
        <ele>1911.92</ele>
        <time>2022-02-09T15:15:57Z</time>
      </trkpt>
      <trkpt lat="44.92966" lon="6.57824">
        <ele>1900.22</ele>
        <time>2022-02-09T15:16:07Z</time>
      </trkpt>
      <trkpt lat="44.92988" lon="6.57888">
        <ele>1893.01</ele>
        <time>2022-02-09T15:16:17Z</time>
      </trkpt>
      <trkpt lat="44.93004" lon="6.5792">
        <ele>1890.06</ele>
        <time>2022-02-09T15:16:26Z</time>
      </trkpt>
      <trkpt lat="44.93012" lon="6.57915">
        <ele>1814.93</ele>
        <time>2022-02-09T15:16:35Z</time>
      </trkpt>
      <trkpt lat="44.9301" lon="6.57915">
        <ele>1684.99</ele>
        <time>2022-02-09T15:16:45Z</time>
      </trkpt>
      <trkpt lat="44.93024" lon="6.58066">
        <ele>1613.13</ele>
        <time>2022-02-09T15:17:28Z</time>
      </trkpt>
      <trkpt lat="44.93056" lon="6.57959">
        <ele>1914.8</ele>
        <time>2022-02-09T15:17:55Z</time>
      </trkpt>
      <trkpt lat="44.93062" lon="6.57979">
        <ele>1866.01</ele>
        <time>2022-02-09T15:18:04Z</time>
      </trkpt>
      <trkpt lat="44.93072" lon="6.58004">
        <ele>1858.95</ele>
        <time>2022-02-09T15:18:13Z</time>
      </trkpt>
      <trkpt lat="44.9307" lon="6.58038">
        <ele>1815.41</ele>
        <time>2022-02-09T15:18:23Z</time>
      </trkpt>
      <trkpt lat="44.93071" lon="6.58071">
        <ele>1847.97</ele>
        <time>2022-02-09T15:18:32Z</time>
      </trkpt>
      <trkpt lat="44.93072" lon="6.581">
        <ele>1624.05</ele>
        <time>2022-02-09T15:18:42Z</time>
      </trkpt>
      <trkpt lat="44.93068" lon="6.58103">
        <ele>1430.04</ele>
        <time>2022-02-09T15:18:52Z</time>
      </trkpt>
      <trkpt lat="44.93068" lon="6.58104">
        <ele>1455.76</ele>
        <time>2022-02-09T15:19:04Z</time>
      </trkpt>
      <trkpt lat="44.93065" lon="6.58106">
        <ele>1464.65</ele>
        <time>2022-02-09T15:19:14Z</time>
      </trkpt>
      <trkpt lat="44.93068" lon="6.58103">
        <ele>1464.7</ele>
        <time>2022-02-09T15:19:24Z</time>
      </trkpt>
      <trkpt lat="44.93069" lon="6.58104">
        <ele>1464.7</ele>
        <time>2022-02-09T15:19:37Z</time>
      </trkpt>
      <trkpt lat="44.93068" lon="6.58103">
        <ele>1464.7</ele>
        <time>2022-02-09T15:19:48Z</time>
      </trkpt>
      <trkpt lat="44.9305" lon="6.58154">
        <ele>1511.63</ele>
        <time>2022-02-09T15:20:15Z</time>
      </trkpt>
      <trkpt lat="44.93048" lon="6.58277">
        <ele>1446.18</ele>
        <time>2022-02-09T15:20:26Z</time>
      </trkpt>
      <trkpt lat="44.93051" lon="6.58279">
        <ele>1413.39</ele>
        <time>2022-02-09T15:20:36Z</time>
      </trkpt>
      <trkpt lat="44.93049" lon="6.58278">
        <ele>1527.57</ele>
        <time>2022-02-09T15:20:46Z</time>
      </trkpt>
      <trkpt lat="44.93049" lon="6.5828">
        <ele>1419.75</ele>
        <time>2022-02-09T15:20:58Z</time>
      </trkpt>
      <trkpt lat="44.93051" lon="6.5828">
        <ele>1415.15</ele>
        <time>2022-02-09T15:21:08Z</time>
      </trkpt>
      <trkpt lat="44.93052" lon="6.58278">
        <ele>1415.06</ele>
        <time>2022-02-09T15:21:18Z</time>
      </trkpt>
      <trkpt lat="44.93054" lon="6.58287">
        <ele>1541.17</ele>
        <time>2022-02-09T15:21:29Z</time>
      </trkpt>
      <trkpt lat="44.93072" lon="6.5832">
        <ele>1418.64</ele>
        <time>2022-02-09T15:21:38Z</time>
      </trkpt>
      <trkpt lat="44.93089" lon="6.58352">
        <ele>1417.1</ele>
        <time>2022-02-09T15:21:47Z</time>
      </trkpt>
      <trkpt lat="44.93086" lon="6.58375">
        <ele>1413.57</ele>
        <time>2022-02-09T15:22:03Z</time>
      </trkpt>
      <trkpt lat="44.9311" lon="6.58365">
        <ele>1426.63</ele>
        <time>2022-02-09T15:22:44Z</time>
      </trkpt>
      <trkpt lat="44.93356" lon="6.58641">
        <ele>1418.3</ele>
        <time>2022-02-09T15:22:54Z</time>
      </trkpt>
      <trkpt lat="44.93122" lon="6.58421">
        <ele>1414.27</ele>
        <time>2022-02-09T15:23:05Z</time>
      </trkpt>
      <trkpt lat="44.93123" lon="6.58421">
        <ele>1412.05</ele>
        <time>2022-02-09T15:23:16Z</time>
      </trkpt>
      <trkpt lat="44.93127" lon="6.58424">
        <ele>1412.51</ele>
        <time>2022-02-09T15:23:26Z</time>
      </trkpt>
      <trkpt lat="44.93127" lon="6.58432">
        <ele>1413.28</ele>
        <time>2022-02-09T15:23:36Z</time>
      </trkpt>
      <trkpt lat="44.93129" lon="6.58433">
        <ele>1421.53</ele>
        <time>2022-02-09T15:23:48Z</time>
      </trkpt>
      <trkpt lat="44.93116" lon="6.58434">
        <ele>1417.01</ele>
        <time>2022-02-09T15:24:01Z</time>
      </trkpt>
      <trkpt lat="44.93123" lon="6.5844">
        <ele>1415.12</ele>
        <time>2022-02-09T15:24:11Z</time>
      </trkpt>
      <trkpt lat="44.93122" lon="6.58429">
        <ele>1420.36</ele>
        <time>2022-02-09T15:24:24Z</time>
      </trkpt>
      <trkpt lat="44.93117" lon="6.5843">
        <ele>1413.57</ele>
        <time>2022-02-09T15:24:34Z</time>
      </trkpt>
      <trkpt lat="44.93128" lon="6.58437">
        <ele>1412.61</ele>
        <time>2022-02-09T15:24:44Z</time>
      </trkpt>
      <trkpt lat="44.93124" lon="6.58443">
        <ele>1412.35</ele>
        <time>2022-02-09T15:24:54Z</time>
      </trkpt>
      <trkpt lat="44.93124" lon="6.58439">
        <ele>1412.3</ele>
        <time>2022-02-09T15:25:04Z</time>
      </trkpt>
      <trkpt lat="44.93124" lon="6.58441">
        <ele>1415.85</ele>
        <time>2022-02-09T15:25:17Z</time>
      </trkpt>
      <trkpt lat="44.93126" lon="6.58447">
        <ele>1414.94</ele>
        <time>2022-02-09T15:25:28Z</time>
      </trkpt>
      <trkpt lat="44.93129" lon="6.5845">
        <ele>1417.39</ele>
        <time>2022-02-09T15:25:38Z</time>
      </trkpt>
      <trkpt lat="44.93138" lon="6.58446">
        <ele>1415.83</ele>
        <time>2022-02-09T15:25:48Z</time>
      </trkpt>
      <trkpt lat="44.93141" lon="6.58447">
        <ele>1413.42</ele>
        <time>2022-02-09T15:25:58Z</time>
      </trkpt>
      <trkpt lat="44.9314" lon="6.58449">
        <ele>1416.3</ele>
        <time>2022-02-09T15:26:18Z</time>
      </trkpt>
      <trkpt lat="44.93135" lon="6.58472">
        <ele>1413.16</ele>
        <time>2022-02-09T15:26:28Z</time>
      </trkpt>
      <trkpt lat="44.93139" lon="6.58496">
        <ele>1412.9</ele>
        <time>2022-02-09T15:26:38Z</time>
      </trkpt>
      <trkpt lat="44.93135" lon="6.58518">
        <ele>1412.9</ele>
        <time>2022-02-09T15:26:48Z</time>
      </trkpt>
      <trkpt lat="44.93136" lon="6.58517">
        <ele>1413.47</ele>
        <time>2022-02-09T15:27:03Z</time>
      </trkpt>
      <trkpt lat="44.93141" lon="6.58535">
        <ele>1416.21</ele>
        <time>2022-02-09T15:27:12Z</time>
      </trkpt>
      <trkpt lat="44.93148" lon="6.58567">
        <ele>1413.8</ele>
        <time>2022-02-09T15:27:22Z</time>
      </trkpt>
      <trkpt lat="44.9315" lon="6.58572">
        <ele>1413.08</ele>
        <time>2022-02-09T15:27:32Z</time>
      </trkpt>
      <trkpt lat="44.9315" lon="6.58573">
        <ele>1412</ele>
        <time>2022-02-09T15:27:47Z</time>
      </trkpt>
      <trkpt lat="44.93151" lon="6.58574">
        <ele>1414.87</ele>
        <time>2022-02-09T15:28:05Z</time>
      </trkpt>
      <trkpt lat="44.93184" lon="6.58611">
        <ele>1417.08</ele>
        <time>2022-02-09T15:28:15Z</time>
      </trkpt>
      <trkpt lat="44.93217" lon="6.58635">
        <ele>1413.5</ele>
        <time>2022-02-09T15:28:25Z</time>
      </trkpt>
      <trkpt lat="44.93269" lon="6.58691">
        <ele>1413.2</ele>
        <time>2022-02-09T15:28:34Z</time>
      </trkpt>
      <trkpt lat="44.93268" lon="6.58698">
        <ele>1413.58</ele>
        <time>2022-02-09T15:28:44Z</time>
      </trkpt>
      <trkpt lat="44.93271" lon="6.58698">
        <ele>1413.04</ele>
        <time>2022-02-09T15:28:53Z</time>
      </trkpt>
      <trkpt lat="44.93278" lon="6.58696">
        <ele>1413.09</ele>
        <time>2022-02-09T15:29:02Z</time>
      </trkpt>
      <trkpt lat="44.93284" lon="6.58691">
        <ele>1413.75</ele>
        <time>2022-02-09T15:29:12Z</time>
      </trkpt>
      <trkpt lat="44.93288" lon="6.58683">
        <ele>1413.8</ele>
        <time>2022-02-09T15:29:22Z</time>
      </trkpt>
      <trkpt lat="44.93288" lon="6.58673">
        <ele>1413.06</ele>
        <time>2022-02-09T15:29:32Z</time>
      </trkpt>
      <trkpt lat="44.93291" lon="6.58664">
        <ele>1413.15</ele>
        <time>2022-02-09T15:29:41Z</time>
      </trkpt>
      <trkpt lat="44.93293" lon="6.58658">
        <ele>1413.8</ele>
        <time>2022-02-09T15:29:51Z</time>
      </trkpt>
      <trkpt lat="44.93299" lon="6.58654">
        <ele>1412.03</ele>
        <time>2022-02-09T15:30:00Z</time>
      </trkpt>
      <trkpt lat="44.93305" lon="6.58647">
        <ele>1412</ele>
        <time>2022-02-09T15:30:09Z</time>
      </trkpt>
      <trkpt lat="44.93305" lon="6.58644">
        <ele>1412</ele>
        <time>2022-02-09T15:30:19Z</time>
      </trkpt>
      <trkpt lat="44.93305" lon="6.58642">
        <ele>1412</ele>
        <time>2022-02-09T15:30:29Z</time>
      </trkpt>
      <trkpt lat="44.93304" lon="6.58641">
        <ele>1413.8</ele>
        <time>2022-02-09T15:30:51Z</time>
      </trkpt>
      <trkpt lat="44.93305" lon="6.58641">
        <ele>1413.81</ele>
        <time>2022-02-09T15:31:02Z</time>
      </trkpt>
      <trkpt lat="44.93306" lon="6.58642">
        <ele>1412</ele>
        <time>2022-02-09T15:31:20Z</time>
      </trkpt>
      <trkpt lat="44.93307" lon="6.58641">
        <ele>1412</ele>
        <time>2022-02-09T15:31:31Z</time>
      </trkpt>
      <trkpt lat="44.93309" lon="6.58633">
        <ele>1413.48</ele>
        <time>2022-02-09T15:31:41Z</time>
      </trkpt>
      <trkpt lat="44.93314" lon="6.5863">
        <ele>1413.7</ele>
        <time>2022-02-09T15:31:50Z</time>
      </trkpt>
      <trkpt lat="44.93319" lon="6.58627">
        <ele>1412.03</ele>
        <time>2022-02-09T15:32:00Z</time>
      </trkpt>
      <trkpt lat="44.93325" lon="6.58624">
        <ele>1416.62</ele>
        <time>2022-02-09T15:32:09Z</time>
      </trkpt>
      <trkpt lat="44.93333" lon="6.58621">
        <ele>1416.7</ele>
        <time>2022-02-09T15:32:20Z</time>
      </trkpt>
      <trkpt lat="44.93339" lon="6.58619">
        <ele>1417.77</ele>
        <time>2022-02-09T15:32:29Z</time>
      </trkpt>
      <trkpt lat="44.93345" lon="6.58613">
        <ele>1416.6</ele>
        <time>2022-02-09T15:32:38Z</time>
      </trkpt>
      <trkpt lat="44.93352" lon="6.58606">
        <ele>1416.7</ele>
        <time>2022-02-09T15:32:48Z</time>
      </trkpt>
      <trkpt lat="44.93355" lon="6.58593">
        <ele>1417.8</ele>
        <time>2022-02-09T15:32:57Z</time>
      </trkpt>
      <trkpt lat="44.93361" lon="6.58583">
        <ele>1418.05</ele>
        <time>2022-02-09T15:33:06Z</time>
      </trkpt>
      <trkpt lat="44.93369" lon="6.58574">
        <ele>1417.8</ele>
        <time>2022-02-09T15:33:16Z</time>
      </trkpt>
      <trkpt lat="44.93376" lon="6.58563">
        <ele>1417.8</ele>
        <time>2022-02-09T15:33:26Z</time>
      </trkpt>
      <trkpt lat="44.93384" lon="6.58555">
        <ele>1413.62</ele>
        <time>2022-02-09T15:33:35Z</time>
      </trkpt>
      <trkpt lat="44.93396" lon="6.58552">
        <ele>1413.6</ele>
        <time>2022-02-09T15:33:45Z</time>
      </trkpt>
      <trkpt lat="44.93407" lon="6.58552">
        <ele>1413.6</ele>
        <time>2022-02-09T15:33:54Z</time>
      </trkpt>
      <trkpt lat="44.93417" lon="6.58552">
        <ele>1413.6</ele>
        <time>2022-02-09T15:34:04Z</time>
      </trkpt>
      <trkpt lat="44.93428" lon="6.58558">
        <ele>1413.6</ele>
        <time>2022-02-09T15:34:14Z</time>
      </trkpt>
      <trkpt lat="44.93433" lon="6.58554">
        <ele>1414.74</ele>
        <time>2022-02-09T15:34:24Z</time>
      </trkpt>
      <trkpt lat="44.93438" lon="6.5855">
        <ele>1413.6</ele>
        <time>2022-02-09T15:34:33Z</time>
      </trkpt>
      <trkpt lat="44.93445" lon="6.58554">
        <ele>1413.6</ele>
        <time>2022-02-09T15:34:42Z</time>
      </trkpt>
      <trkpt lat="44.9345" lon="6.58553">
        <ele>1413.6</ele>
        <time>2022-02-09T15:34:52Z</time>
      </trkpt>
      <trkpt lat="44.93457" lon="6.58546">
        <ele>1414.15</ele>
        <time>2022-02-09T15:35:01Z</time>
      </trkpt>
      <trkpt lat="44.93458" lon="6.58542">
        <ele>1415.32</ele>
        <time>2022-02-09T15:35:11Z</time>
      </trkpt>
      <trkpt lat="44.93459" lon="6.58541">
        <ele>1413.74</ele>
        <time>2022-02-09T15:35:28Z</time>
      </trkpt>
      <trkpt lat="44.93458" lon="6.58542">
        <ele>1413.6</ele>
        <time>2022-02-09T15:35:43Z</time>
      </trkpt>
      <trkpt lat="44.93458" lon="6.58543">
        <ele>1413.6</ele>
        <time>2022-02-09T15:35:58Z</time>
      </trkpt>
      <trkpt lat="44.93458" lon="6.58539">
        <ele>1417.31</ele>
        <time>2022-02-09T15:36:07Z</time>
      </trkpt>
      <trkpt lat="44.93459" lon="6.58529">
        <ele>1413.88</ele>
        <time>2022-02-09T15:36:17Z</time>
      </trkpt>
      <trkpt lat="44.93459" lon="6.58532">
        <ele>1413.6</ele>
        <time>2022-02-09T15:36:27Z</time>
      </trkpt>
      <trkpt lat="44.93459" lon="6.58534">
        <ele>1413.6</ele>
        <time>2022-02-09T15:36:37Z</time>
      </trkpt>
      <trkpt lat="44.93459" lon="6.58536">
        <ele>1413.6</ele>
        <time>2022-02-09T15:36:47Z</time>
      </trkpt>
      <trkpt lat="44.93459" lon="6.58537">
        <ele>1417.91</ele>
        <time>2022-02-09T15:38:53Z</time>
      </trkpt>
      <trkpt lat="44.93459" lon="6.58538">
        <ele>1414</ele>
        <time>2022-02-09T15:39:32Z</time>
      </trkpt>
      <trkpt lat="44.93459" lon="6.58539">
        <ele>1413.6</ele>
        <time>2022-02-09T15:41:33Z</time>
      </trkpt>
      <trkpt lat="44.93458" lon="6.5854">
        <ele>1418.55</ele>
        <time>2022-02-09T15:44:41Z</time>
      </trkpt>
      <trkpt lat="44.9346" lon="6.5854">
        <ele>1413.6</ele>
        <time>2022-02-09T15:45:22Z</time>
      </trkpt>
      <trkpt lat="44.93464" lon="6.58535">
        <ele>1413.6</ele>
        <time>2022-02-09T15:45:31Z</time>
      </trkpt>
      <trkpt lat="44.93464" lon="6.58535">
        <ele>1413.6</ele>
        <time>2022-02-09T15:45:36Z</time>
      </trkpt>
    </trkseg>
  </trk>
</gpx>